<?xml version="1.0" encoding="UTF-8" standalone="no" ?>
<gpx xmlns="http://www.topografix.com/GPX/1/1" xmlns:xsi="http://www.w3.org/2001/XMLSchema-instance" xsi:schemaLocation="http://www.topografix.com/GPX/1/1 http://www.topografix.com/GPX/1/1/gpx.xsd" version="1.1" creator="VisuGPX - https://www.visugpx.com">
  <metadata>
    <name>Marathon Nice-Cannes</name>
    <desc><![CDATA[14 nov. 2010]]></desc>
  </metadata>
  <trk>
    <name><![CDATA[Marathon Nice-Cannes_1]]></name>
    <trkseg>
      <trkpt lat="43.69512" lon="7.26746">
        <ele>1.5800000429153</ele>
        <time>2010-11-14T07:17:13Z</time>
      </trkpt>
      <trkpt lat="43.69512" lon="7.26745">
        <ele>3.0199999809265</ele>
        <time>2010-11-14T07:17:15Z</time>
      </trkpt>
      <trkpt lat="43.69511" lon="7.26734">
        <ele>1.1000000238419</ele>
        <time>2010-11-14T07:17:20Z</time>
      </trkpt>
      <trkpt lat="43.6951" lon="7.2672">
        <ele>3.5</ele>
        <time>2010-11-14T07:17:23Z</time>
      </trkpt>
      <trkpt lat="43.6951" lon="7.26715">
        <ele>-0.34000000357628</ele>
        <time>2010-11-14T07:17:24Z</time>
      </trkpt>
      <trkpt lat="43.6951" lon="7.26709">
        <ele>2.0599999427795</ele>
        <time>2010-11-14T07:17:25Z</time>
      </trkpt>
      <trkpt lat="43.69509" lon="7.26685">
        <ele>-0.81999999284744</ele>
        <time>2010-11-14T07:17:29Z</time>
      </trkpt>
      <trkpt lat="43.69507" lon="7.26653">
        <ele>2.0599999427795</ele>
        <time>2010-11-14T07:17:35Z</time>
      </trkpt>
      <trkpt lat="43.69507" lon="7.26648">
        <ele>0.14000000059605</ele>
        <time>2010-11-14T07:17:36Z</time>
      </trkpt>
      <trkpt lat="43.69507" lon="7.26643">
        <ele>-3.2300000190735</ele>
        <time>2010-11-14T07:17:37Z</time>
      </trkpt>
      <trkpt lat="43.69506" lon="7.26637">
        <ele>3.5</ele>
        <time>2010-11-14T07:17:38Z</time>
      </trkpt>
      <trkpt lat="43.69506" lon="7.26632">
        <ele>-0.81999999284744</ele>
        <time>2010-11-14T07:17:39Z</time>
      </trkpt>
      <trkpt lat="43.69505" lon="7.26591">
        <ele>-4.6700000762939</ele>
        <time>2010-11-14T07:17:47Z</time>
      </trkpt>
      <trkpt lat="43.69505" lon="7.26586">
        <ele>1.1000000238419</ele>
        <time>2010-11-14T07:17:48Z</time>
      </trkpt>
      <trkpt lat="43.69504" lon="7.26571">
        <ele>-2.2699999809265</ele>
        <time>2010-11-14T07:17:51Z</time>
      </trkpt>
      <trkpt lat="43.69504" lon="7.26557">
        <ele>2.0599999427795</ele>
        <time>2010-11-14T07:17:54Z</time>
      </trkpt>
      <trkpt lat="43.69503" lon="7.26552">
        <ele>-1.789999961853</ele>
        <time>2010-11-14T07:17:55Z</time>
      </trkpt>
      <trkpt lat="43.69503" lon="7.26547">
        <ele>4.460000038147</ele>
        <time>2010-11-14T07:17:56Z</time>
      </trkpt>
      <trkpt lat="43.69502" lon="7.26542">
        <ele>1.1000000238419</ele>
        <time>2010-11-14T07:17:57Z</time>
      </trkpt>
      <trkpt lat="43.69501" lon="7.26532">
        <ele>0.14000000059605</ele>
        <time>2010-11-14T07:17:59Z</time>
      </trkpt>
      <trkpt lat="43.695" lon="7.26516">
        <ele>0.62000000476837</ele>
        <time>2010-11-14T07:18:02Z</time>
      </trkpt>
      <trkpt lat="43.69497" lon="7.26436">
        <ele>2.0599999427795</ele>
        <time>2010-11-14T07:18:17Z</time>
      </trkpt>
      <trkpt lat="43.69495" lon="7.26368">
        <ele>0.62000000476837</ele>
        <time>2010-11-14T07:18:30Z</time>
      </trkpt>
      <trkpt lat="43.69491" lon="7.26309">
        <ele>1.1000000238419</ele>
        <time>2010-11-14T07:18:42Z</time>
      </trkpt>
      <trkpt lat="43.69485" lon="7.26237">
        <ele>0.62000000476837</ele>
        <time>2010-11-14T07:18:56Z</time>
      </trkpt>
      <trkpt lat="43.69482" lon="7.26216">
        <ele>-0.34000000357628</ele>
        <time>2010-11-14T07:19:00Z</time>
      </trkpt>
      <trkpt lat="43.69477" lon="7.26139">
        <ele>-0.34000000357628</ele>
        <time>2010-11-14T07:19:15Z</time>
      </trkpt>
      <trkpt lat="43.69474" lon="7.26114">
        <ele>2.539999961853</ele>
        <time>2010-11-14T07:19:20Z</time>
      </trkpt>
      <trkpt lat="43.69471" lon="7.26089">
        <ele>-0.34000000357628</ele>
        <time>2010-11-14T07:19:25Z</time>
      </trkpt>
      <trkpt lat="43.69464" lon="7.26045">
        <ele>2.539999961853</ele>
        <time>2010-11-14T07:19:34Z</time>
      </trkpt>
      <trkpt lat="43.69458" lon="7.26">
        <ele>-0.81999999284744</ele>
        <time>2010-11-14T07:19:43Z</time>
      </trkpt>
      <trkpt lat="43.69457" lon="7.2599">
        <ele>3.0199999809265</ele>
        <time>2010-11-14T07:19:45Z</time>
      </trkpt>
      <trkpt lat="43.69455" lon="7.25971">
        <ele>-0.81999999284744</ele>
        <time>2010-11-14T07:19:49Z</time>
      </trkpt>
      <trkpt lat="43.69455" lon="7.25966">
        <ele>0.62000000476837</ele>
        <time>2010-11-14T07:19:50Z</time>
      </trkpt>
      <trkpt lat="43.69444" lon="7.25895">
        <ele>-0.34000000357628</ele>
        <time>2010-11-14T07:20:04Z</time>
      </trkpt>
      <trkpt lat="43.69437" lon="7.25852">
        <ele>1.5800000429153</ele>
        <time>2010-11-14T07:20:13Z</time>
      </trkpt>
      <trkpt lat="43.69434" lon="7.25839">
        <ele>-1.789999961853</ele>
        <time>2010-11-14T07:20:16Z</time>
      </trkpt>
      <trkpt lat="43.69427" lon="7.25811">
        <ele>1.5800000429153</ele>
        <time>2010-11-14T07:20:22Z</time>
      </trkpt>
      <trkpt lat="43.69423" lon="7.25797">
        <ele>-1.2999999523163</ele>
        <time>2010-11-14T07:20:25Z</time>
      </trkpt>
      <trkpt lat="43.69421" lon="7.25793">
        <ele>-0.81999999284744</ele>
        <time>2010-11-14T07:20:26Z</time>
      </trkpt>
      <trkpt lat="43.69418" lon="7.25778">
        <ele>1.1000000238419</ele>
        <time>2010-11-14T07:20:29Z</time>
      </trkpt>
      <trkpt lat="43.69406" lon="7.25719">
        <ele>1.1000000238419</ele>
        <time>2010-11-14T07:20:41Z</time>
      </trkpt>
      <trkpt lat="43.69389" lon="7.25648">
        <ele>0.14000000059605</ele>
        <time>2010-11-14T07:20:56Z</time>
      </trkpt>
      <trkpt lat="43.69369" lon="7.2559">
        <ele>0.14000000059605</ele>
        <time>2010-11-14T07:21:08Z</time>
      </trkpt>
      <trkpt lat="43.69353" lon="7.25523">
        <ele>2.539999961853</ele>
        <time>2010-11-14T07:21:21Z</time>
      </trkpt>
      <trkpt lat="43.69347" lon="7.25492">
        <ele>-2.75</ele>
        <time>2010-11-14T07:21:27Z</time>
      </trkpt>
      <trkpt lat="43.69346" lon="7.25487">
        <ele>1.1000000238419</ele>
        <time>2010-11-14T07:21:28Z</time>
      </trkpt>
      <trkpt lat="43.69332" lon="7.25425">
        <ele>1.1000000238419</ele>
        <time>2010-11-14T07:21:41Z</time>
      </trkpt>
      <trkpt lat="43.69326" lon="7.254">
        <ele>1.1000000238419</ele>
        <time>2010-11-14T07:21:46Z</time>
      </trkpt>
      <trkpt lat="43.69322" lon="7.25384">
        <ele>0.62000000476837</ele>
        <time>2010-11-14T07:21:49Z</time>
      </trkpt>
      <trkpt lat="43.69309" lon="7.25336">
        <ele>0.14000000059605</ele>
        <time>2010-11-14T07:21:57Z</time>
      </trkpt>
      <trkpt lat="43.69303" lon="7.25309">
        <ele>-0.81999999284744</ele>
        <time>2010-11-14T07:22:00Z</time>
      </trkpt>
      <trkpt lat="43.69295" lon="7.25286">
        <ele>-0.81999999284744</ele>
        <time>2010-11-14T07:22:04Z</time>
      </trkpt>
      <trkpt lat="43.69291" lon="7.25264">
        <ele>0.14000000059605</ele>
        <time>2010-11-14T07:22:08Z</time>
      </trkpt>
      <trkpt lat="43.69286" lon="7.25241">
        <ele>1.5800000429153</ele>
        <time>2010-11-14T07:22:12Z</time>
      </trkpt>
      <trkpt lat="43.69284" lon="7.2523">
        <ele>3.0199999809265</ele>
        <time>2010-11-14T07:22:14Z</time>
      </trkpt>
      <trkpt lat="43.69279" lon="7.25208">
        <ele>-0.81999999284744</ele>
        <time>2010-11-14T07:22:18Z</time>
      </trkpt>
      <trkpt lat="43.69273" lon="7.25179">
        <ele>-1.2999999523163</ele>
        <time>2010-11-14T07:22:24Z</time>
      </trkpt>
      <trkpt lat="43.69272" lon="7.25173">
        <ele>1.1000000238419</ele>
        <time>2010-11-14T07:22:25Z</time>
      </trkpt>
      <trkpt lat="43.69263" lon="7.25142">
        <ele>0.14000000059605</ele>
        <time>2010-11-14T07:22:31Z</time>
      </trkpt>
      <trkpt lat="43.6926" lon="7.25133">
        <ele>-0.81999999284744</ele>
        <time>2010-11-14T07:22:33Z</time>
      </trkpt>
      <trkpt lat="43.69257" lon="7.25124">
        <ele>0.14000000059605</ele>
        <time>2010-11-14T07:22:35Z</time>
      </trkpt>
      <trkpt lat="43.69247" lon="7.25097">
        <ele>-3.710000038147</ele>
        <time>2010-11-14T07:22:41Z</time>
      </trkpt>
      <trkpt lat="43.69245" lon="7.25092">
        <ele>0.62000000476837</ele>
        <time>2010-11-14T07:22:42Z</time>
      </trkpt>
      <trkpt lat="43.6923" lon="7.25055">
        <ele>0.14000000059605</ele>
        <time>2010-11-14T07:22:50Z</time>
      </trkpt>
      <trkpt lat="43.69224" lon="7.25036">
        <ele>0.62000000476837</ele>
        <time>2010-11-14T07:22:54Z</time>
      </trkpt>
      <trkpt lat="43.69215" lon="7.25009">
        <ele>1.5800000429153</ele>
        <time>2010-11-14T07:23:00Z</time>
      </trkpt>
      <trkpt lat="43.69212" lon="7.25">
        <ele>-0.81999999284744</ele>
        <time>2010-11-14T07:23:02Z</time>
      </trkpt>
      <trkpt lat="43.69201" lon="7.24969">
        <ele>-0.34000000357628</ele>
        <time>2010-11-14T07:23:09Z</time>
      </trkpt>
      <trkpt lat="43.69191" lon="7.24935">
        <ele>-0.34000000357628</ele>
        <time>2010-11-14T07:23:16Z</time>
      </trkpt>
      <trkpt lat="43.69189" lon="7.2493">
        <ele>-0.34000000357628</ele>
        <time>2010-11-14T07:23:17Z</time>
      </trkpt>
      <trkpt lat="43.69178" lon="7.24897">
        <ele>0.14000000059605</ele>
        <time>2010-11-14T07:23:24Z</time>
      </trkpt>
      <trkpt lat="43.69173" lon="7.24878">
        <ele>-0.34000000357628</ele>
        <time>2010-11-14T07:23:28Z</time>
      </trkpt>
      <trkpt lat="43.6916" lon="7.24838">
        <ele>0.62000000476837</ele>
        <time>2010-11-14T07:23:36Z</time>
      </trkpt>
      <trkpt lat="43.69159" lon="7.24834">
        <ele>0.62000000476837</ele>
        <time>2010-11-14T07:23:37Z</time>
      </trkpt>
      <trkpt lat="43.69153" lon="7.24816">
        <ele>-1.2999999523163</ele>
        <time>2010-11-14T07:23:41Z</time>
      </trkpt>
      <trkpt lat="43.69138" lon="7.24783">
        <ele>0.14000000059605</ele>
        <time>2010-11-14T07:23:49Z</time>
      </trkpt>
      <trkpt lat="43.69131" lon="7.24761">
        <ele>0.14000000059605</ele>
        <time>2010-11-14T07:23:54Z</time>
      </trkpt>
      <trkpt lat="43.69124" lon="7.24742">
        <ele>-0.81999999284744</ele>
        <time>2010-11-14T07:23:58Z</time>
      </trkpt>
      <trkpt lat="43.69105" lon="7.24691">
        <ele>2.0599999427795</ele>
        <time>2010-11-14T07:24:09Z</time>
      </trkpt>
      <trkpt lat="43.69091" lon="7.24649">
        <ele>-0.34000000357628</ele>
        <time>2010-11-14T07:24:18Z</time>
      </trkpt>
      <trkpt lat="43.69081" lon="7.24618">
        <ele>2.0599999427795</ele>
        <time>2010-11-14T07:24:25Z</time>
      </trkpt>
      <trkpt lat="43.69071" lon="7.24592">
        <ele>0.14000000059605</ele>
        <time>2010-11-14T07:24:31Z</time>
      </trkpt>
      <trkpt lat="43.69069" lon="7.24588">
        <ele>5.9099998474121</ele>
        <time>2010-11-14T07:24:32Z</time>
      </trkpt>
      <trkpt lat="43.69067" lon="7.24583">
        <ele>3.9800000190735</ele>
        <time>2010-11-14T07:24:33Z</time>
      </trkpt>
      <trkpt lat="43.69061" lon="7.24563">
        <ele>1.5800000429153</ele>
        <time>2010-11-14T07:24:37Z</time>
      </trkpt>
      <trkpt lat="43.69045" lon="7.24522">
        <ele>1.1000000238419</ele>
        <time>2010-11-14T07:24:46Z</time>
      </trkpt>
      <trkpt lat="43.69035" lon="7.24495">
        <ele>1.1000000238419</ele>
        <time>2010-11-14T07:24:52Z</time>
      </trkpt>
      <trkpt lat="43.69032" lon="7.2449">
        <ele>1.1000000238419</ele>
        <time>2010-11-14T07:24:53Z</time>
      </trkpt>
      <trkpt lat="43.69015" lon="7.24449">
        <ele>2.0599999427795</ele>
        <time>2010-11-14T07:25:02Z</time>
      </trkpt>
      <trkpt lat="43.69013" lon="7.24445">
        <ele>3.0199999809265</ele>
        <time>2010-11-14T07:25:03Z</time>
      </trkpt>
      <trkpt lat="43.69007" lon="7.24427">
        <ele>2.0599999427795</ele>
        <time>2010-11-14T07:25:07Z</time>
      </trkpt>
      <trkpt lat="43.68999" lon="7.24409">
        <ele>1.5800000429153</ele>
        <time>2010-11-14T07:25:11Z</time>
      </trkpt>
      <trkpt lat="43.68989" lon="7.24386">
        <ele>-0.81999999284744</ele>
        <time>2010-11-14T07:25:16Z</time>
      </trkpt>
      <trkpt lat="43.68987" lon="7.24381">
        <ele>0.62000000476837</ele>
        <time>2010-11-14T07:25:17Z</time>
      </trkpt>
      <trkpt lat="43.68982" lon="7.24372">
        <ele>3.5</ele>
        <time>2010-11-14T07:25:19Z</time>
      </trkpt>
      <trkpt lat="43.6898" lon="7.24367">
        <ele>-1.789999961853</ele>
        <time>2010-11-14T07:25:20Z</time>
      </trkpt>
      <trkpt lat="43.68975" lon="7.24358">
        <ele>2.0599999427795</ele>
        <time>2010-11-14T07:25:22Z</time>
      </trkpt>
      <trkpt lat="43.68972" lon="7.24354">
        <ele>0.62000000476837</ele>
        <time>2010-11-14T07:25:23Z</time>
      </trkpt>
      <trkpt lat="43.68969" lon="7.2435">
        <ele>-2.2699999809265</ele>
        <time>2010-11-14T07:25:24Z</time>
      </trkpt>
      <trkpt lat="43.68967" lon="7.24346">
        <ele>-0.81999999284744</ele>
        <time>2010-11-14T07:25:25Z</time>
      </trkpt>
      <trkpt lat="43.68961" lon="7.24334">
        <ele>0.14000000059605</ele>
        <time>2010-11-14T07:25:28Z</time>
      </trkpt>
      <trkpt lat="43.68956" lon="7.24326">
        <ele>-2.75</ele>
        <time>2010-11-14T07:25:30Z</time>
      </trkpt>
      <trkpt lat="43.68952" lon="7.24318">
        <ele>1.1000000238419</ele>
        <time>2010-11-14T07:25:32Z</time>
      </trkpt>
      <trkpt lat="43.68946" lon="7.24305">
        <ele>0.14000000059605</ele>
        <time>2010-11-14T07:25:35Z</time>
      </trkpt>
      <trkpt lat="43.68944" lon="7.24301">
        <ele>-0.34000000357628</ele>
        <time>2010-11-14T07:25:36Z</time>
      </trkpt>
      <trkpt lat="43.6893" lon="7.24277">
        <ele>-1.2999999523163</ele>
        <time>2010-11-14T07:25:42Z</time>
      </trkpt>
      <trkpt lat="43.68918" lon="7.24258">
        <ele>1.5800000429153</ele>
        <time>2010-11-14T07:25:47Z</time>
      </trkpt>
      <trkpt lat="43.68913" lon="7.24246">
        <ele>-2.75</ele>
        <time>2010-11-14T07:25:50Z</time>
      </trkpt>
      <trkpt lat="43.68911" lon="7.24242">
        <ele>-0.81999999284744</ele>
        <time>2010-11-14T07:25:51Z</time>
      </trkpt>
      <trkpt lat="43.68891" lon="7.24207">
        <ele>-0.81999999284744</ele>
        <time>2010-11-14T07:26:00Z</time>
      </trkpt>
      <trkpt lat="43.68887" lon="7.24198">
        <ele>1.5800000429153</ele>
        <time>2010-11-14T07:26:02Z</time>
      </trkpt>
      <trkpt lat="43.68881" lon="7.24186">
        <ele>-0.34000000357628</ele>
        <time>2010-11-14T07:26:05Z</time>
      </trkpt>
      <trkpt lat="43.68876" lon="7.24178">
        <ele>-0.34000000357628</ele>
        <time>2010-11-14T07:26:07Z</time>
      </trkpt>
      <trkpt lat="43.68867" lon="7.2416">
        <ele>-1.789999961853</ele>
        <time>2010-11-14T07:26:11Z</time>
      </trkpt>
      <trkpt lat="43.68855" lon="7.2413">
        <ele>1.1000000238419</ele>
        <time>2010-11-14T07:26:18Z</time>
      </trkpt>
      <trkpt lat="43.68846" lon="7.24114">
        <ele>-0.81999999284744</ele>
        <time>2010-11-14T07:26:22Z</time>
      </trkpt>
      <trkpt lat="43.68843" lon="7.2411">
        <ele>-0.81999999284744</ele>
        <time>2010-11-14T07:26:23Z</time>
      </trkpt>
      <trkpt lat="43.68832" lon="7.24088">
        <ele>-1.2999999523163</ele>
        <time>2010-11-14T07:26:28Z</time>
      </trkpt>
      <trkpt lat="43.68825" lon="7.24072">
        <ele>-0.34000000357628</ele>
        <time>2010-11-14T07:26:32Z</time>
      </trkpt>
      <trkpt lat="43.68819" lon="7.24061">
        <ele>2.539999961853</ele>
        <time>2010-11-14T07:26:35Z</time>
      </trkpt>
      <trkpt lat="43.68816" lon="7.24057">
        <ele>-1.789999961853</ele>
        <time>2010-11-14T07:26:36Z</time>
      </trkpt>
      <trkpt lat="43.68807" lon="7.24041">
        <ele>2.539999961853</ele>
        <time>2010-11-14T07:26:40Z</time>
      </trkpt>
      <trkpt lat="43.68803" lon="7.24032">
        <ele>-2.75</ele>
        <time>2010-11-14T07:26:42Z</time>
      </trkpt>
      <trkpt lat="43.68792" lon="7.24013">
        <ele>-0.34000000357628</ele>
        <time>2010-11-14T07:26:47Z</time>
      </trkpt>
      <trkpt lat="43.68776" lon="7.23985">
        <ele>-0.34000000357628</ele>
        <time>2010-11-14T07:26:54Z</time>
      </trkpt>
      <trkpt lat="43.68755" lon="7.2395">
        <ele>-0.34000000357628</ele>
        <time>2010-11-14T07:27:03Z</time>
      </trkpt>
      <trkpt lat="43.68736" lon="7.23926">
        <ele>0.62000000476837</ele>
        <time>2010-11-14T07:27:10Z</time>
      </trkpt>
      <trkpt lat="43.6872" lon="7.23899">
        <ele>0.14000000059605</ele>
        <time>2010-11-14T07:27:17Z</time>
      </trkpt>
      <trkpt lat="43.68695" lon="7.23862">
        <ele>-1.2999999523163</ele>
        <time>2010-11-14T07:27:27Z</time>
      </trkpt>
      <trkpt lat="43.68682" lon="7.23843">
        <ele>-0.34000000357628</ele>
        <time>2010-11-14T07:27:32Z</time>
      </trkpt>
      <trkpt lat="43.68667" lon="7.23824">
        <ele>1.5800000429153</ele>
        <time>2010-11-14T07:27:37Z</time>
      </trkpt>
      <trkpt lat="43.68657" lon="7.23808">
        <ele>0.62000000476837</ele>
        <time>2010-11-14T07:27:41Z</time>
      </trkpt>
      <trkpt lat="43.68653" lon="7.23802">
        <ele>-1.789999961853</ele>
        <time>2010-11-14T07:27:43Z</time>
      </trkpt>
      <trkpt lat="43.6865" lon="7.23798">
        <ele>-0.81999999284744</ele>
        <time>2010-11-14T07:27:44Z</time>
      </trkpt>
      <trkpt lat="43.68642" lon="7.23788">
        <ele>0.62000000476837</ele>
        <time>2010-11-14T07:27:47Z</time>
      </trkpt>
      <trkpt lat="43.68619" lon="7.23758">
        <ele>1.1000000238419</ele>
        <time>2010-11-14T07:27:55Z</time>
      </trkpt>
      <trkpt lat="43.68607" lon="7.23742">
        <ele>-0.81999999284744</ele>
        <time>2010-11-14T07:28:00Z</time>
      </trkpt>
      <trkpt lat="43.68594" lon="7.23726">
        <ele>-0.81999999284744</ele>
        <time>2010-11-14T07:28:05Z</time>
      </trkpt>
      <trkpt lat="43.68573" lon="7.23704">
        <ele>-0.81999999284744</ele>
        <time>2010-11-14T07:28:12Z</time>
      </trkpt>
      <trkpt lat="43.68568" lon="7.23697">
        <ele>2.539999961853</ele>
        <time>2010-11-14T07:28:14Z</time>
      </trkpt>
      <trkpt lat="43.68565" lon="7.23694">
        <ele>1.5800000429153</ele>
        <time>2010-11-14T07:28:15Z</time>
      </trkpt>
      <trkpt lat="43.6856" lon="7.23687">
        <ele>-2.2699999809265</ele>
        <time>2010-11-14T07:28:17Z</time>
      </trkpt>
      <trkpt lat="43.68557" lon="7.23684">
        <ele>-0.34000000357628</ele>
        <time>2010-11-14T07:28:18Z</time>
      </trkpt>
      <trkpt lat="43.68537" lon="7.23662">
        <ele>-0.34000000357628</ele>
        <time>2010-11-14T07:28:25Z</time>
      </trkpt>
      <trkpt lat="43.68514" lon="7.23639">
        <ele>-0.34000000357628</ele>
        <time>2010-11-14T07:28:32Z</time>
      </trkpt>
      <trkpt lat="43.68509" lon="7.23632">
        <ele>-0.34000000357628</ele>
        <time>2010-11-14T07:28:34Z</time>
      </trkpt>
      <trkpt lat="43.68488" lon="7.23608">
        <ele>0.14000000059605</ele>
        <time>2010-11-14T07:28:42Z</time>
      </trkpt>
      <trkpt lat="43.68467" lon="7.23585">
        <ele>0.62000000476837</ele>
        <time>2010-11-14T07:28:49Z</time>
      </trkpt>
      <trkpt lat="43.68461" lon="7.23578">
        <ele>-1.2999999523163</ele>
        <time>2010-11-14T07:28:51Z</time>
      </trkpt>
      <trkpt lat="43.68443" lon="7.23557">
        <ele>-1.2999999523163</ele>
        <time>2010-11-14T07:28:58Z</time>
      </trkpt>
      <trkpt lat="43.68436" lon="7.2355">
        <ele>-0.34000000357628</ele>
        <time>2010-11-14T07:29:00Z</time>
      </trkpt>
      <trkpt lat="43.68411" lon="7.23523">
        <ele>-0.34000000357628</ele>
        <time>2010-11-14T07:29:09Z</time>
      </trkpt>
      <trkpt lat="43.68408" lon="7.2352">
        <ele>0.14000000059605</ele>
        <time>2010-11-14T07:29:10Z</time>
      </trkpt>
      <trkpt lat="43.68383" lon="7.23489">
        <ele>-0.81999999284744</ele>
        <time>2010-11-14T07:29:19Z</time>
      </trkpt>
      <trkpt lat="43.68362" lon="7.23467">
        <ele>-2.2699999809265</ele>
        <time>2010-11-14T07:29:26Z</time>
      </trkpt>
      <trkpt lat="43.68352" lon="7.23455">
        <ele>0.14000000059605</ele>
        <time>2010-11-14T07:29:30Z</time>
      </trkpt>
      <trkpt lat="43.68331" lon="7.23431">
        <ele>0.62000000476837</ele>
        <time>2010-11-14T07:29:38Z</time>
      </trkpt>
      <trkpt lat="43.68311" lon="7.23408">
        <ele>0.62000000476837</ele>
        <time>2010-11-14T07:29:45Z</time>
      </trkpt>
      <trkpt lat="43.68289" lon="7.23384">
        <ele>0.62000000476837</ele>
        <time>2010-11-14T07:29:53Z</time>
      </trkpt>
      <trkpt lat="43.68272" lon="7.23367">
        <ele>-1.2999999523163</ele>
        <time>2010-11-14T07:29:59Z</time>
      </trkpt>
      <trkpt lat="43.68264" lon="7.23359">
        <ele>1.1000000238419</ele>
        <time>2010-11-14T07:30:02Z</time>
      </trkpt>
      <trkpt lat="43.68243" lon="7.23338">
        <ele>0.62000000476837</ele>
        <time>2010-11-14T07:30:09Z</time>
      </trkpt>
      <trkpt lat="43.68219" lon="7.23311">
        <ele>0.62000000476837</ele>
        <time>2010-11-14T07:30:18Z</time>
      </trkpt>
      <trkpt lat="43.68203" lon="7.23294">
        <ele>-0.34000000357628</ele>
        <time>2010-11-14T07:30:23Z</time>
      </trkpt>
      <trkpt lat="43.6818" lon="7.23269">
        <ele>0.14000000059605</ele>
        <time>2010-11-14T07:30:31Z</time>
      </trkpt>
      <trkpt lat="43.68163" lon="7.23251">
        <ele>-0.81999999284744</ele>
        <time>2010-11-14T07:30:37Z</time>
      </trkpt>
      <trkpt lat="43.6814" lon="7.23227">
        <ele>0.14000000059605</ele>
        <time>2010-11-14T07:30:45Z</time>
      </trkpt>
      <trkpt lat="43.6812" lon="7.23206">
        <ele>-0.34000000357628</ele>
        <time>2010-11-14T07:30:52Z</time>
      </trkpt>
      <trkpt lat="43.68109" lon="7.23197">
        <ele>-0.34000000357628</ele>
        <time>2010-11-14T07:30:55Z</time>
      </trkpt>
      <trkpt lat="43.68097" lon="7.23186">
        <ele>0.14000000059605</ele>
        <time>2010-11-14T07:30:59Z</time>
      </trkpt>
      <trkpt lat="43.68079" lon="7.23165">
        <ele>0.14000000059605</ele>
        <time>2010-11-14T07:31:06Z</time>
      </trkpt>
      <trkpt lat="43.68067" lon="7.23155">
        <ele>-1.2999999523163</ele>
        <time>2010-11-14T07:31:10Z</time>
      </trkpt>
      <trkpt lat="43.68042" lon="7.23134">
        <ele>-0.34000000357628</ele>
        <time>2010-11-14T07:31:18Z</time>
      </trkpt>
      <trkpt lat="43.68039" lon="7.23132">
        <ele>1.1000000238419</ele>
        <time>2010-11-14T07:31:19Z</time>
      </trkpt>
      <trkpt lat="43.68031" lon="7.23124">
        <ele>-0.34000000357628</ele>
        <time>2010-11-14T07:31:22Z</time>
      </trkpt>
      <trkpt lat="43.68013" lon="7.23111">
        <ele>-0.34000000357628</ele>
        <time>2010-11-14T07:31:28Z</time>
      </trkpt>
      <trkpt lat="43.67986" lon="7.23089">
        <ele>0.62000000476837</ele>
        <time>2010-11-14T07:31:36Z</time>
      </trkpt>
      <trkpt lat="43.67963" lon="7.23071">
        <ele>-0.81999999284744</ele>
        <time>2010-11-14T07:31:44Z</time>
      </trkpt>
      <trkpt lat="43.67956" lon="7.23067">
        <ele>0.62000000476837</ele>
        <time>2010-11-14T07:31:46Z</time>
      </trkpt>
      <trkpt lat="43.67932" lon="7.23052">
        <ele>0.62000000476837</ele>
        <time>2010-11-14T07:31:53Z</time>
      </trkpt>
      <trkpt lat="43.679" lon="7.23028">
        <ele>-0.34000000357628</ele>
        <time>2010-11-14T07:32:03Z</time>
      </trkpt>
      <trkpt lat="43.67894" lon="7.23022">
        <ele>0.62000000476837</ele>
        <time>2010-11-14T07:32:05Z</time>
      </trkpt>
      <trkpt lat="43.67879" lon="7.23009">
        <ele>-0.81999999284744</ele>
        <time>2010-11-14T07:32:10Z</time>
      </trkpt>
      <trkpt lat="43.67861" lon="7.22998">
        <ele>0.14000000059605</ele>
        <time>2010-11-14T07:32:15Z</time>
      </trkpt>
      <trkpt lat="43.67843" lon="7.22983">
        <ele>1.1000000238419</ele>
        <time>2010-11-14T07:32:21Z</time>
      </trkpt>
      <trkpt lat="43.67825" lon="7.22966">
        <ele>-0.81999999284744</ele>
        <time>2010-11-14T07:32:28Z</time>
      </trkpt>
      <trkpt lat="43.67812" lon="7.22957">
        <ele>0.14000000059605</ele>
        <time>2010-11-14T07:32:32Z</time>
      </trkpt>
      <trkpt lat="43.67799" lon="7.22948">
        <ele>0.14000000059605</ele>
        <time>2010-11-14T07:32:36Z</time>
      </trkpt>
      <trkpt lat="43.67775" lon="7.22934">
        <ele>-0.34000000357628</ele>
        <time>2010-11-14T07:32:43Z</time>
      </trkpt>
      <trkpt lat="43.67772" lon="7.22932">
        <ele>-0.34000000357628</ele>
        <time>2010-11-14T07:32:44Z</time>
      </trkpt>
      <trkpt lat="43.67753" lon="7.22919">
        <ele>-0.34000000357628</ele>
        <time>2010-11-14T07:32:50Z</time>
      </trkpt>
      <trkpt lat="43.67739" lon="7.22908">
        <ele>0.14000000059605</ele>
        <time>2010-11-14T07:32:55Z</time>
      </trkpt>
      <trkpt lat="43.67712" lon="7.22895">
        <ele>1.1000000238419</ele>
        <time>2010-11-14T07:33:03Z</time>
      </trkpt>
      <trkpt lat="43.67681" lon="7.22878">
        <ele>-0.34000000357628</ele>
        <time>2010-11-14T07:33:12Z</time>
      </trkpt>
      <trkpt lat="43.67667" lon="7.2287">
        <ele>-0.34000000357628</ele>
        <time>2010-11-14T07:33:16Z</time>
      </trkpt>
      <trkpt lat="43.67633" lon="7.22851">
        <ele>0.14000000059605</ele>
        <time>2010-11-14T07:33:26Z</time>
      </trkpt>
      <trkpt lat="43.67622" lon="7.22844">
        <ele>-0.34000000357628</ele>
        <time>2010-11-14T07:33:29Z</time>
      </trkpt>
      <trkpt lat="43.67609" lon="7.22837">
        <ele>0.62000000476837</ele>
        <time>2010-11-14T07:33:33Z</time>
      </trkpt>
      <trkpt lat="43.6758" lon="7.22822">
        <ele>0.14000000059605</ele>
        <time>2010-11-14T07:33:41Z</time>
      </trkpt>
      <trkpt lat="43.67552" lon="7.22803">
        <ele>-0.81999999284744</ele>
        <time>2010-11-14T07:33:50Z</time>
      </trkpt>
      <trkpt lat="43.67529" lon="7.22789">
        <ele>-0.34000000357628</ele>
        <time>2010-11-14T07:33:57Z</time>
      </trkpt>
      <trkpt lat="43.675" lon="7.22773">
        <ele>-0.34000000357628</ele>
        <time>2010-11-14T07:34:06Z</time>
      </trkpt>
      <trkpt lat="43.67476" lon="7.22757">
        <ele>-0.34000000357628</ele>
        <time>2010-11-14T07:34:14Z</time>
      </trkpt>
      <trkpt lat="43.67469" lon="7.22754">
        <ele>-0.34000000357628</ele>
        <time>2010-11-14T07:34:16Z</time>
      </trkpt>
      <trkpt lat="43.6744" lon="7.22734">
        <ele>0.14000000059605</ele>
        <time>2010-11-14T07:34:25Z</time>
      </trkpt>
      <trkpt lat="43.67422" lon="7.22726">
        <ele>0.14000000059605</ele>
        <time>2010-11-14T07:34:30Z</time>
      </trkpt>
      <trkpt lat="43.67392" lon="7.22701">
        <ele>0.14000000059605</ele>
        <time>2010-11-14T07:34:39Z</time>
      </trkpt>
      <trkpt lat="43.67357" lon="7.22683">
        <ele>0.14000000059605</ele>
        <time>2010-11-14T07:34:49Z</time>
      </trkpt>
      <trkpt lat="43.67343" lon="7.22674">
        <ele>0.14000000059605</ele>
        <time>2010-11-14T07:34:53Z</time>
      </trkpt>
      <trkpt lat="43.67331" lon="7.22666">
        <ele>0.14000000059605</ele>
        <time>2010-11-14T07:34:57Z</time>
      </trkpt>
      <trkpt lat="43.67325" lon="7.22661">
        <ele>0.14000000059605</ele>
        <time>2010-11-14T07:34:59Z</time>
      </trkpt>
      <trkpt lat="43.67303" lon="7.22642">
        <ele>0.14000000059605</ele>
        <time>2010-11-14T07:35:06Z</time>
      </trkpt>
      <trkpt lat="43.67282" lon="7.22623">
        <ele>-0.34000000357628</ele>
        <time>2010-11-14T07:35:13Z</time>
      </trkpt>
      <trkpt lat="43.6726" lon="7.22606">
        <ele>0.14000000059605</ele>
        <time>2010-11-14T07:35:20Z</time>
      </trkpt>
      <trkpt lat="43.67233" lon="7.22576">
        <ele>0.14000000059605</ele>
        <time>2010-11-14T07:35:29Z</time>
      </trkpt>
      <trkpt lat="43.67211" lon="7.22557">
        <ele>0.14000000059605</ele>
        <time>2010-11-14T07:35:36Z</time>
      </trkpt>
      <trkpt lat="43.6719" lon="7.22531">
        <ele>0.62000000476837</ele>
        <time>2010-11-14T07:35:44Z</time>
      </trkpt>
      <trkpt lat="43.67174" lon="7.22509">
        <ele>0.14000000059605</ele>
        <time>2010-11-14T07:35:50Z</time>
      </trkpt>
      <trkpt lat="43.6716" lon="7.22493">
        <ele>0.62000000476837</ele>
        <time>2010-11-14T07:35:55Z</time>
      </trkpt>
      <trkpt lat="43.67155" lon="7.22486">
        <ele>0.14000000059605</ele>
        <time>2010-11-14T07:35:57Z</time>
      </trkpt>
      <trkpt lat="43.67135" lon="7.22456">
        <ele>0.62000000476837</ele>
        <time>2010-11-14T07:36:05Z</time>
      </trkpt>
      <trkpt lat="43.67114" lon="7.22424">
        <ele>0.14000000059605</ele>
        <time>2010-11-14T07:36:14Z</time>
      </trkpt>
      <trkpt lat="43.67096" lon="7.22401">
        <ele>0.14000000059605</ele>
        <time>2010-11-14T07:36:21Z</time>
      </trkpt>
      <trkpt lat="43.6708" lon="7.22379">
        <ele>0.14000000059605</ele>
        <time>2010-11-14T07:36:27Z</time>
      </trkpt>
      <trkpt lat="43.67061" lon="7.22356">
        <ele>-0.34000000357628</ele>
        <time>2010-11-14T07:36:34Z</time>
      </trkpt>
      <trkpt lat="43.67045" lon="7.22332">
        <ele>0.14000000059605</ele>
        <time>2010-11-14T07:36:41Z</time>
      </trkpt>
      <trkpt lat="43.67029" lon="7.22309">
        <ele>0.14000000059605</ele>
        <time>2010-11-14T07:36:48Z</time>
      </trkpt>
      <trkpt lat="43.67009" lon="7.22284">
        <ele>-0.34000000357628</ele>
        <time>2010-11-14T07:36:55Z</time>
      </trkpt>
      <trkpt lat="43.66998" lon="7.22266">
        <ele>-0.34000000357628</ele>
        <time>2010-11-14T07:37:00Z</time>
      </trkpt>
      <trkpt lat="43.66987" lon="7.22253">
        <ele>-0.34000000357628</ele>
        <time>2010-11-14T07:37:04Z</time>
      </trkpt>
      <trkpt lat="43.66958" lon="7.22225">
        <ele>0.14000000059605</ele>
        <time>2010-11-14T07:37:14Z</time>
      </trkpt>
      <trkpt lat="43.66952" lon="7.22217">
        <ele>-0.81999999284744</ele>
        <time>2010-11-14T07:37:16Z</time>
      </trkpt>
      <trkpt lat="43.6694" lon="7.22199">
        <ele>-0.34000000357628</ele>
        <time>2010-11-14T07:37:20Z</time>
      </trkpt>
      <trkpt lat="43.66919" lon="7.22176">
        <ele>-0.81999999284744</ele>
        <time>2010-11-14T07:37:27Z</time>
      </trkpt>
      <trkpt lat="43.66907" lon="7.22159">
        <ele>0.62000000476837</ele>
        <time>2010-11-14T07:37:32Z</time>
      </trkpt>
      <trkpt lat="43.66885" lon="7.22125">
        <ele>-1.2999999523163</ele>
        <time>2010-11-14T07:37:41Z</time>
      </trkpt>
      <trkpt lat="43.66875" lon="7.2211">
        <ele>-0.34000000357628</ele>
        <time>2010-11-14T07:37:45Z</time>
      </trkpt>
      <trkpt lat="43.66866" lon="7.22096">
        <ele>0.14000000059605</ele>
        <time>2010-11-14T07:37:49Z</time>
      </trkpt>
      <trkpt lat="43.66855" lon="7.22081">
        <ele>-0.34000000357628</ele>
        <time>2010-11-14T07:37:53Z</time>
      </trkpt>
      <trkpt lat="43.66832" lon="7.22048">
        <ele>1.1000000238419</ele>
        <time>2010-11-14T07:38:02Z</time>
      </trkpt>
      <trkpt lat="43.66815" lon="7.22017">
        <ele>0.62000000476837</ele>
        <time>2010-11-14T07:38:10Z</time>
      </trkpt>
      <trkpt lat="43.66801" lon="7.21991">
        <ele>0.14000000059605</ele>
        <time>2010-11-14T07:38:16Z</time>
      </trkpt>
      <trkpt lat="43.66783" lon="7.21951">
        <ele>-0.34000000357628</ele>
        <time>2010-11-14T07:38:25Z</time>
      </trkpt>
      <trkpt lat="43.66776" lon="7.21934">
        <ele>0.14000000059605</ele>
        <time>2010-11-14T07:38:29Z</time>
      </trkpt>
      <trkpt lat="43.66756" lon="7.21887">
        <ele>0.14000000059605</ele>
        <time>2010-11-14T07:38:40Z</time>
      </trkpt>
      <trkpt lat="43.6675" lon="7.21869">
        <ele>0.14000000059605</ele>
        <time>2010-11-14T07:38:44Z</time>
      </trkpt>
      <trkpt lat="43.66736" lon="7.21831">
        <ele>-0.34000000357628</ele>
        <time>2010-11-14T07:38:52Z</time>
      </trkpt>
      <trkpt lat="43.6673" lon="7.21809">
        <ele>0.14000000059605</ele>
        <time>2010-11-14T07:38:57Z</time>
      </trkpt>
      <trkpt lat="43.66724" lon="7.21791">
        <ele>0.14000000059605</ele>
        <time>2010-11-14T07:39:01Z</time>
      </trkpt>
      <trkpt lat="43.66714" lon="7.21753">
        <ele>-0.34000000357628</ele>
        <time>2010-11-14T07:39:09Z</time>
      </trkpt>
      <trkpt lat="43.66711" lon="7.2174">
        <ele>0.14000000059605</ele>
        <time>2010-11-14T07:39:12Z</time>
      </trkpt>
      <trkpt lat="43.66702" lon="7.21707">
        <ele>0.14000000059605</ele>
        <time>2010-11-14T07:39:19Z</time>
      </trkpt>
      <trkpt lat="43.66699" lon="7.21679">
        <ele>-0.34000000357628</ele>
        <time>2010-11-14T07:39:25Z</time>
      </trkpt>
      <trkpt lat="43.66694" lon="7.21649">
        <ele>0.14000000059605</ele>
        <time>2010-11-14T07:39:31Z</time>
      </trkpt>
      <trkpt lat="43.66692" lon="7.21639">
        <ele>0.14000000059605</ele>
        <time>2010-11-14T07:39:33Z</time>
      </trkpt>
      <trkpt lat="43.6669" lon="7.21615">
        <ele>-0.34000000357628</ele>
        <time>2010-11-14T07:39:38Z</time>
      </trkpt>
      <trkpt lat="43.66685" lon="7.21592">
        <ele>0.62000000476837</ele>
        <time>2010-11-14T07:39:43Z</time>
      </trkpt>
      <trkpt lat="43.66681" lon="7.21544">
        <ele>0.14000000059605</ele>
        <time>2010-11-14T07:39:53Z</time>
      </trkpt>
      <trkpt lat="43.66677" lon="7.21519">
        <ele>0.62000000476837</ele>
        <time>2010-11-14T07:39:58Z</time>
      </trkpt>
      <trkpt lat="43.66676" lon="7.21479">
        <ele>0.14000000059605</ele>
        <time>2010-11-14T07:40:06Z</time>
      </trkpt>
      <trkpt lat="43.66675" lon="7.2147">
        <ele>0.14000000059605</ele>
        <time>2010-11-14T07:40:08Z</time>
      </trkpt>
      <trkpt lat="43.66668" lon="7.21427">
        <ele>0.62000000476837</ele>
        <time>2010-11-14T07:40:17Z</time>
      </trkpt>
      <trkpt lat="43.66665" lon="7.21402">
        <ele>1.1000000238419</ele>
        <time>2010-11-14T07:40:22Z</time>
      </trkpt>
      <trkpt lat="43.6666" lon="7.21348">
        <ele>2.0599999427795</ele>
        <time>2010-11-14T07:40:33Z</time>
      </trkpt>
      <trkpt lat="43.66655" lon="7.21315">
        <ele>1.1000000238419</ele>
        <time>2010-11-14T07:40:40Z</time>
      </trkpt>
      <trkpt lat="43.66652" lon="7.21281">
        <ele>1.5800000429153</ele>
        <time>2010-11-14T07:40:47Z</time>
      </trkpt>
      <trkpt lat="43.66645" lon="7.21243">
        <ele>2.539999961853</ele>
        <time>2010-11-14T07:40:55Z</time>
      </trkpt>
      <trkpt lat="43.66645" lon="7.21233">
        <ele>2.539999961853</ele>
        <time>2010-11-14T07:40:57Z</time>
      </trkpt>
      <trkpt lat="43.66643" lon="7.21204">
        <ele>3.0199999809265</ele>
        <time>2010-11-14T07:41:03Z</time>
      </trkpt>
      <trkpt lat="43.66638" lon="7.21179">
        <ele>2.539999961853</ele>
        <time>2010-11-14T07:41:08Z</time>
      </trkpt>
      <trkpt lat="43.66633" lon="7.21131">
        <ele>3.0199999809265</ele>
        <time>2010-11-14T07:41:18Z</time>
      </trkpt>
      <trkpt lat="43.6663" lon="7.21112">
        <ele>3.0199999809265</ele>
        <time>2010-11-14T07:41:22Z</time>
      </trkpt>
      <trkpt lat="43.66625" lon="7.21065">
        <ele>2.539999961853</ele>
        <time>2010-11-14T07:41:32Z</time>
      </trkpt>
      <trkpt lat="43.6662" lon="7.21035">
        <ele>2.539999961853</ele>
        <time>2010-11-14T07:41:38Z</time>
      </trkpt>
      <trkpt lat="43.66616" lon="7.21007">
        <ele>3.0199999809265</ele>
        <time>2010-11-14T07:41:44Z</time>
      </trkpt>
      <trkpt lat="43.66615" lon="7.20993">
        <ele>3.5</ele>
        <time>2010-11-14T07:41:47Z</time>
      </trkpt>
      <trkpt lat="43.6661" lon="7.20967">
        <ele>3.5</ele>
        <time>2010-11-14T07:41:52Z</time>
      </trkpt>
      <trkpt lat="43.66609" lon="7.20957">
        <ele>3.5</ele>
        <time>2010-11-14T07:41:54Z</time>
      </trkpt>
      <trkpt lat="43.66607" lon="7.20923">
        <ele>3.5</ele>
        <time>2010-11-14T07:42:01Z</time>
      </trkpt>
      <trkpt lat="43.66602" lon="7.20882">
        <ele>3.0199999809265</ele>
        <time>2010-11-14T07:42:09Z</time>
      </trkpt>
      <trkpt lat="43.66599" lon="7.20842">
        <ele>3.5</ele>
        <time>2010-11-14T07:42:17Z</time>
      </trkpt>
      <trkpt lat="43.66595" lon="7.20819">
        <ele>3.5</ele>
        <time>2010-11-14T07:42:22Z</time>
      </trkpt>
      <trkpt lat="43.66593" lon="7.20809">
        <ele>3.5</ele>
        <time>2010-11-14T07:42:24Z</time>
      </trkpt>
      <trkpt lat="43.66591" lon="7.2079">
        <ele>3.5</ele>
        <time>2010-11-14T07:42:28Z</time>
      </trkpt>
      <trkpt lat="43.66587" lon="7.20755">
        <ele>4.460000038147</ele>
        <time>2010-11-14T07:42:35Z</time>
      </trkpt>
      <trkpt lat="43.66578" lon="7.20712">
        <ele>4.460000038147</ele>
        <time>2010-11-14T07:42:44Z</time>
      </trkpt>
      <trkpt lat="43.66577" lon="7.20707">
        <ele>3.9800000190735</ele>
        <time>2010-11-14T07:42:45Z</time>
      </trkpt>
      <trkpt lat="43.66574" lon="7.20688">
        <ele>4.460000038147</ele>
        <time>2010-11-14T07:42:49Z</time>
      </trkpt>
      <trkpt lat="43.6657" lon="7.20665">
        <ele>3.9800000190735</ele>
        <time>2010-11-14T07:42:54Z</time>
      </trkpt>
      <trkpt lat="43.66564" lon="7.20626">
        <ele>4.460000038147</ele>
        <time>2010-11-14T07:43:02Z</time>
      </trkpt>
      <trkpt lat="43.66563" lon="7.20607">
        <ele>4.460000038147</ele>
        <time>2010-11-14T07:43:06Z</time>
      </trkpt>
      <trkpt lat="43.66563" lon="7.20597">
        <ele>5.4200000762939</ele>
        <time>2010-11-14T07:43:08Z</time>
      </trkpt>
      <trkpt lat="43.66561" lon="7.20577">
        <ele>4.9400000572205</ele>
        <time>2010-11-14T07:43:12Z</time>
      </trkpt>
      <trkpt lat="43.66555" lon="7.20543">
        <ele>5.4200000762939</ele>
        <time>2010-11-14T07:43:19Z</time>
      </trkpt>
      <trkpt lat="43.66555" lon="7.20538">
        <ele>5.4200000762939</ele>
        <time>2010-11-14T07:43:20Z</time>
      </trkpt>
      <trkpt lat="43.66553" lon="7.20523">
        <ele>4.9400000572205</ele>
        <time>2010-11-14T07:43:23Z</time>
      </trkpt>
      <trkpt lat="43.66552" lon="7.20504">
        <ele>5.9099998474121</ele>
        <time>2010-11-14T07:43:27Z</time>
      </trkpt>
      <trkpt lat="43.66548" lon="7.20471">
        <ele>5.9099998474121</ele>
        <time>2010-11-14T07:43:34Z</time>
      </trkpt>
      <trkpt lat="43.66545" lon="7.20426">
        <ele>5.9099998474121</ele>
        <time>2010-11-14T07:43:43Z</time>
      </trkpt>
      <trkpt lat="43.66539" lon="7.20386">
        <ele>6.3899998664856</ele>
        <time>2010-11-14T07:43:51Z</time>
      </trkpt>
      <trkpt lat="43.66536" lon="7.2035">
        <ele>6.8699998855591</ele>
        <time>2010-11-14T07:43:58Z</time>
      </trkpt>
      <trkpt lat="43.66534" lon="7.20336">
        <ele>6.8699998855591</ele>
        <time>2010-11-14T07:44:01Z</time>
      </trkpt>
      <trkpt lat="43.66529" lon="7.20308">
        <ele>7.3499999046326</ele>
        <time>2010-11-14T07:44:07Z</time>
      </trkpt>
      <trkpt lat="43.66516" lon="7.20261">
        <ele>7.8299999237061</ele>
        <time>2010-11-14T07:44:17Z</time>
      </trkpt>
      <trkpt lat="43.6651" lon="7.20238">
        <ele>6.8699998855591</ele>
        <time>2010-11-14T07:44:22Z</time>
      </trkpt>
      <trkpt lat="43.66499" lon="7.20202">
        <ele>7.3499999046326</ele>
        <time>2010-11-14T07:44:30Z</time>
      </trkpt>
      <trkpt lat="43.66494" lon="7.20189">
        <ele>7.8299999237061</ele>
        <time>2010-11-14T07:44:33Z</time>
      </trkpt>
      <trkpt lat="43.66486" lon="7.20172">
        <ele>7.3499999046326</ele>
        <time>2010-11-14T07:44:37Z</time>
      </trkpt>
      <trkpt lat="43.66473" lon="7.20131">
        <ele>8.3100004196167</ele>
        <time>2010-11-14T07:44:46Z</time>
      </trkpt>
      <trkpt lat="43.66467" lon="7.20113">
        <ele>7.3499999046326</ele>
        <time>2010-11-14T07:44:50Z</time>
      </trkpt>
      <trkpt lat="43.6646" lon="7.20094">
        <ele>8.789999961853</ele>
        <time>2010-11-14T07:44:54Z</time>
      </trkpt>
      <trkpt lat="43.66457" lon="7.20086">
        <ele>7.8299999237061</ele>
        <time>2010-11-14T07:44:56Z</time>
      </trkpt>
      <trkpt lat="43.66442" lon="7.2005">
        <ele>7.8299999237061</ele>
        <time>2010-11-14T07:45:04Z</time>
      </trkpt>
      <trkpt lat="43.66426" lon="7.20006">
        <ele>7.8299999237061</ele>
        <time>2010-11-14T07:45:14Z</time>
      </trkpt>
      <trkpt lat="43.66422" lon="7.19992">
        <ele>7.8299999237061</ele>
        <time>2010-11-14T07:45:17Z</time>
      </trkpt>
      <trkpt lat="43.66405" lon="7.19957">
        <ele>8.3100004196167</ele>
        <time>2010-11-14T07:45:25Z</time>
      </trkpt>
      <trkpt lat="43.66397" lon="7.19939">
        <ele>7.8299999237061</ele>
        <time>2010-11-14T07:45:29Z</time>
      </trkpt>
      <trkpt lat="43.66378" lon="7.19887">
        <ele>8.3100004196167</ele>
        <time>2010-11-14T07:45:40Z</time>
      </trkpt>
      <trkpt lat="43.66365" lon="7.19856">
        <ele>7.8299999237061</ele>
        <time>2010-11-14T07:45:47Z</time>
      </trkpt>
      <trkpt lat="43.66352" lon="7.1982">
        <ele>7.8299999237061</ele>
        <time>2010-11-14T07:45:55Z</time>
      </trkpt>
      <trkpt lat="43.66342" lon="7.19793">
        <ele>7.8299999237061</ele>
        <time>2010-11-14T07:46:01Z</time>
      </trkpt>
      <trkpt lat="43.6633" lon="7.1976">
        <ele>7.8299999237061</ele>
        <time>2010-11-14T07:46:08Z</time>
      </trkpt>
      <trkpt lat="43.66316" lon="7.19729">
        <ele>7.8299999237061</ele>
        <time>2010-11-14T07:46:15Z</time>
      </trkpt>
      <trkpt lat="43.66304" lon="7.19697">
        <ele>7.8299999237061</ele>
        <time>2010-11-14T07:46:22Z</time>
      </trkpt>
      <trkpt lat="43.66291" lon="7.19666">
        <ele>7.3499999046326</ele>
        <time>2010-11-14T07:46:29Z</time>
      </trkpt>
      <trkpt lat="43.66277" lon="7.19637">
        <ele>7.3499999046326</ele>
        <time>2010-11-14T07:46:36Z</time>
      </trkpt>
      <trkpt lat="43.66262" lon="7.19604">
        <ele>6.8699998855591</ele>
        <time>2010-11-14T07:46:44Z</time>
      </trkpt>
      <trkpt lat="43.66254" lon="7.19588">
        <ele>7.3499999046326</ele>
        <time>2010-11-14T07:46:48Z</time>
      </trkpt>
      <trkpt lat="43.66249" lon="7.19579">
        <ele>7.8299999237061</ele>
        <time>2010-11-14T07:46:50Z</time>
      </trkpt>
      <trkpt lat="43.66239" lon="7.19565">
        <ele>6.8699998855591</ele>
        <time>2010-11-14T07:46:54Z</time>
      </trkpt>
      <trkpt lat="43.66217" lon="7.19528">
        <ele>6.3899998664856</ele>
        <time>2010-11-14T07:47:03Z</time>
      </trkpt>
      <trkpt lat="43.66212" lon="7.1952">
        <ele>6.8699998855591</ele>
        <time>2010-11-14T07:47:05Z</time>
      </trkpt>
      <trkpt lat="43.66195" lon="7.19494">
        <ele>6.3899998664856</ele>
        <time>2010-11-14T07:47:12Z</time>
      </trkpt>
      <trkpt lat="43.66193" lon="7.1949">
        <ele>6.3899998664856</ele>
        <time>2010-11-14T07:47:13Z</time>
      </trkpt>
      <trkpt lat="43.66174" lon="7.19453">
        <ele>6.3899998664856</ele>
        <time>2010-11-14T07:47:22Z</time>
      </trkpt>
      <trkpt lat="43.66161" lon="7.19432">
        <ele>5.9099998474121</ele>
        <time>2010-11-14T07:47:27Z</time>
      </trkpt>
      <trkpt lat="43.66146" lon="7.19401">
        <ele>6.3899998664856</ele>
        <time>2010-11-14T07:47:35Z</time>
      </trkpt>
      <trkpt lat="43.66133" lon="7.19379">
        <ele>5.4200000762939</ele>
        <time>2010-11-14T07:47:41Z</time>
      </trkpt>
      <trkpt lat="43.66114" lon="7.19353">
        <ele>5.9099998474121</ele>
        <time>2010-11-14T07:47:48Z</time>
      </trkpt>
      <trkpt lat="43.66103" lon="7.19336">
        <ele>5.4200000762939</ele>
        <time>2010-11-14T07:47:52Z</time>
      </trkpt>
      <trkpt lat="43.66079" lon="7.19308">
        <ele>4.9400000572205</ele>
        <time>2010-11-14T07:48:00Z</time>
      </trkpt>
      <trkpt lat="43.66071" lon="7.19295">
        <ele>5.4200000762939</ele>
        <time>2010-11-14T07:48:03Z</time>
      </trkpt>
      <trkpt lat="43.66057" lon="7.19268">
        <ele>4.460000038147</ele>
        <time>2010-11-14T07:48:09Z</time>
      </trkpt>
      <trkpt lat="43.66044" lon="7.19244">
        <ele>4.460000038147</ele>
        <time>2010-11-14T07:48:15Z</time>
      </trkpt>
      <trkpt lat="43.66037" lon="7.19233">
        <ele>3.9800000190735</ele>
        <time>2010-11-14T07:48:18Z</time>
      </trkpt>
      <trkpt lat="43.66019" lon="7.19206">
        <ele>3.9800000190735</ele>
        <time>2010-11-14T07:48:25Z</time>
      </trkpt>
      <trkpt lat="43.66016" lon="7.19201">
        <ele>3.9800000190735</ele>
        <time>2010-11-14T07:48:26Z</time>
      </trkpt>
      <trkpt lat="43.66008" lon="7.19185">
        <ele>3.5</ele>
        <time>2010-11-14T07:48:30Z</time>
      </trkpt>
      <trkpt lat="43.6599" lon="7.19149">
        <ele>3.5</ele>
        <time>2010-11-14T07:48:39Z</time>
      </trkpt>
      <trkpt lat="43.65977" lon="7.19122">
        <ele>3.0199999809265</ele>
        <time>2010-11-14T07:48:45Z</time>
      </trkpt>
      <trkpt lat="43.65966" lon="7.19098">
        <ele>2.539999961853</ele>
        <time>2010-11-14T07:48:50Z</time>
      </trkpt>
      <trkpt lat="43.65958" lon="7.19069">
        <ele>2.539999961853</ele>
        <time>2010-11-14T07:48:56Z</time>
      </trkpt>
      <trkpt lat="43.65944" lon="7.19042">
        <ele>3.9800000190735</ele>
        <time>2010-11-14T07:49:03Z</time>
      </trkpt>
      <trkpt lat="43.65927" lon="7.19006">
        <ele>2.539999961853</ele>
        <time>2010-11-14T07:49:11Z</time>
      </trkpt>
      <trkpt lat="43.65919" lon="7.18987">
        <ele>2.539999961853</ele>
        <time>2010-11-14T07:49:15Z</time>
      </trkpt>
      <trkpt lat="43.65908" lon="7.1895">
        <ele>2.0599999427795</ele>
        <time>2010-11-14T07:49:23Z</time>
      </trkpt>
      <trkpt lat="43.65907" lon="7.18946">
        <ele>2.0599999427795</ele>
        <time>2010-11-14T07:49:24Z</time>
      </trkpt>
      <trkpt lat="43.659" lon="7.18928">
        <ele>1.5800000429153</ele>
        <time>2010-11-14T07:49:28Z</time>
      </trkpt>
      <trkpt lat="43.65899" lon="7.18919">
        <ele>2.0599999427795</ele>
        <time>2010-11-14T07:49:30Z</time>
      </trkpt>
      <trkpt lat="43.6589" lon="7.18895">
        <ele>2.0599999427795</ele>
        <time>2010-11-14T07:49:35Z</time>
      </trkpt>
      <trkpt lat="43.65883" lon="7.18877">
        <ele>1.1000000238419</ele>
        <time>2010-11-14T07:49:39Z</time>
      </trkpt>
      <trkpt lat="43.65874" lon="7.18849">
        <ele>2.0599999427795</ele>
        <time>2010-11-14T07:49:45Z</time>
      </trkpt>
      <trkpt lat="43.65868" lon="7.18806">
        <ele>2.0599999427795</ele>
        <time>2010-11-14T07:49:54Z</time>
      </trkpt>
      <trkpt lat="43.65856" lon="7.18758">
        <ele>0.62000000476837</ele>
        <time>2010-11-14T07:50:04Z</time>
      </trkpt>
      <trkpt lat="43.65849" lon="7.18721">
        <ele>1.1000000238419</ele>
        <time>2010-11-14T07:50:11Z</time>
      </trkpt>
      <trkpt lat="43.65841" lon="7.18686">
        <ele>0.14000000059605</ele>
        <time>2010-11-14T07:50:18Z</time>
      </trkpt>
      <trkpt lat="43.65832" lon="7.18653">
        <ele>0.62000000476837</ele>
        <time>2010-11-14T07:50:25Z</time>
      </trkpt>
      <trkpt lat="43.65821" lon="7.18605">
        <ele>0.62000000476837</ele>
        <time>2010-11-14T07:50:35Z</time>
      </trkpt>
      <trkpt lat="43.6581" lon="7.1857">
        <ele>0.14000000059605</ele>
        <time>2010-11-14T07:50:42Z</time>
      </trkpt>
      <trkpt lat="43.65807" lon="7.18556">
        <ele>0.14000000059605</ele>
        <time>2010-11-14T07:50:45Z</time>
      </trkpt>
      <trkpt lat="43.65804" lon="7.18537">
        <ele>-0.34000000357628</ele>
        <time>2010-11-14T07:50:49Z</time>
      </trkpt>
      <trkpt lat="43.65797" lon="7.18502">
        <ele>0.14000000059605</ele>
        <time>2010-11-14T07:50:56Z</time>
      </trkpt>
      <trkpt lat="43.65789" lon="7.18465">
        <ele>0.62000000476837</ele>
        <time>2010-11-14T07:51:04Z</time>
      </trkpt>
      <trkpt lat="43.65786" lon="7.18456">
        <ele>0.14000000059605</ele>
        <time>2010-11-14T07:51:06Z</time>
      </trkpt>
      <trkpt lat="43.65777" lon="7.18416">
        <ele>0.62000000476837</ele>
        <time>2010-11-14T07:51:14Z</time>
      </trkpt>
      <trkpt lat="43.65774" lon="7.18402">
        <ele>0.14000000059605</ele>
        <time>2010-11-14T07:51:17Z</time>
      </trkpt>
      <trkpt lat="43.65766" lon="7.18368">
        <ele>0.62000000476837</ele>
        <time>2010-11-14T07:51:24Z</time>
      </trkpt>
      <trkpt lat="43.65757" lon="7.18336">
        <ele>0.14000000059605</ele>
        <time>2010-11-14T07:51:31Z</time>
      </trkpt>
      <trkpt lat="43.65749" lon="7.18293">
        <ele>0.14000000059605</ele>
        <time>2010-11-14T07:51:40Z</time>
      </trkpt>
      <trkpt lat="43.65738" lon="7.1826">
        <ele>-0.81999999284744</ele>
        <time>2010-11-14T07:51:47Z</time>
      </trkpt>
      <trkpt lat="43.6573" lon="7.18226">
        <ele>-0.81999999284744</ele>
        <time>2010-11-14T07:51:54Z</time>
      </trkpt>
      <trkpt lat="43.65723" lon="7.18202">
        <ele>-0.81999999284744</ele>
        <time>2010-11-14T07:51:59Z</time>
      </trkpt>
      <trkpt lat="43.65712" lon="7.18159">
        <ele>-0.34000000357628</ele>
        <time>2010-11-14T07:52:08Z</time>
      </trkpt>
      <trkpt lat="43.65707" lon="7.18135">
        <ele>-0.34000000357628</ele>
        <time>2010-11-14T07:52:13Z</time>
      </trkpt>
      <trkpt lat="43.65696" lon="7.18097">
        <ele>-0.34000000357628</ele>
        <time>2010-11-14T07:52:21Z</time>
      </trkpt>
      <trkpt lat="43.65692" lon="7.18078">
        <ele>-0.34000000357628</ele>
        <time>2010-11-14T07:52:25Z</time>
      </trkpt>
      <trkpt lat="43.65689" lon="7.18058">
        <ele>-0.81999999284744</ele>
        <time>2010-11-14T07:52:29Z</time>
      </trkpt>
      <trkpt lat="43.65682" lon="7.18021">
        <ele>0.14000000059605</ele>
        <time>2010-11-14T07:52:37Z</time>
      </trkpt>
      <trkpt lat="43.65681" lon="7.18017">
        <ele>-0.34000000357628</ele>
        <time>2010-11-14T07:52:38Z</time>
      </trkpt>
      <trkpt lat="43.65677" lon="7.17988">
        <ele>-0.34000000357628</ele>
        <time>2010-11-14T07:52:44Z</time>
      </trkpt>
      <trkpt lat="43.65673" lon="7.17961">
        <ele>-0.81999999284744</ele>
        <time>2010-11-14T07:52:49Z</time>
      </trkpt>
      <trkpt lat="43.6567" lon="7.17941">
        <ele>-0.34000000357628</ele>
        <time>2010-11-14T07:52:53Z</time>
      </trkpt>
      <trkpt lat="43.65665" lon="7.17905">
        <ele>-0.34000000357628</ele>
        <time>2010-11-14T07:53:00Z</time>
      </trkpt>
      <trkpt lat="43.65663" lon="7.17864">
        <ele>0.14000000059605</ele>
        <time>2010-11-14T07:53:08Z</time>
      </trkpt>
      <trkpt lat="43.6566" lon="7.17828">
        <ele>0.14000000059605</ele>
        <time>2010-11-14T07:53:15Z</time>
      </trkpt>
      <trkpt lat="43.6566" lon="7.17823">
        <ele>-0.81999999284744</ele>
        <time>2010-11-14T07:53:16Z</time>
      </trkpt>
      <trkpt lat="43.65654" lon="7.17783">
        <ele>-0.81999999284744</ele>
        <time>2010-11-14T07:53:24Z</time>
      </trkpt>
      <trkpt lat="43.65651" lon="7.17745">
        <ele>-0.81999999284744</ele>
        <time>2010-11-14T07:53:32Z</time>
      </trkpt>
      <trkpt lat="43.65649" lon="7.17715">
        <ele>-0.81999999284744</ele>
        <time>2010-11-14T07:53:38Z</time>
      </trkpt>
      <trkpt lat="43.65647" lon="7.17681">
        <ele>-0.81999999284744</ele>
        <time>2010-11-14T07:53:45Z</time>
      </trkpt>
      <trkpt lat="43.65646" lon="7.17642">
        <ele>-0.81999999284744</ele>
        <time>2010-11-14T07:53:53Z</time>
      </trkpt>
      <trkpt lat="43.65647" lon="7.176">
        <ele>-0.81999999284744</ele>
        <time>2010-11-14T07:54:01Z</time>
      </trkpt>
      <trkpt lat="43.65648" lon="7.17576">
        <ele>-1.789999961853</ele>
        <time>2010-11-14T07:54:06Z</time>
      </trkpt>
      <trkpt lat="43.65651" lon="7.17533">
        <ele>-1.2999999523163</ele>
        <time>2010-11-14T07:54:14Z</time>
      </trkpt>
      <trkpt lat="43.65652" lon="7.17528">
        <ele>-1.2999999523163</ele>
        <time>2010-11-14T07:54:15Z</time>
      </trkpt>
      <trkpt lat="43.65657" lon="7.17508">
        <ele>-0.81999999284744</ele>
        <time>2010-11-14T07:54:19Z</time>
      </trkpt>
      <trkpt lat="43.65659" lon="7.17488">
        <ele>0.14000000059605</ele>
        <time>2010-11-14T07:54:23Z</time>
      </trkpt>
      <trkpt lat="43.65667" lon="7.17445">
        <ele>-0.34000000357628</ele>
        <time>2010-11-14T07:54:32Z</time>
      </trkpt>
      <trkpt lat="43.65674" lon="7.17417">
        <ele>-0.34000000357628</ele>
        <time>2010-11-14T07:54:38Z</time>
      </trkpt>
      <trkpt lat="43.65686" lon="7.17371">
        <ele>-0.34000000357628</ele>
        <time>2010-11-14T07:54:48Z</time>
      </trkpt>
      <trkpt lat="43.65694" lon="7.17342">
        <ele>0.14000000059605</ele>
        <time>2010-11-14T07:54:54Z</time>
      </trkpt>
      <trkpt lat="43.65698" lon="7.17328">
        <ele>0.14000000059605</ele>
        <time>2010-11-14T07:54:57Z</time>
      </trkpt>
      <trkpt lat="43.65709" lon="7.17305">
        <ele>-0.34000000357628</ele>
        <time>2010-11-14T07:55:02Z</time>
      </trkpt>
      <trkpt lat="43.65714" lon="7.17288">
        <ele>0.14000000059605</ele>
        <time>2010-11-14T07:55:06Z</time>
      </trkpt>
      <trkpt lat="43.6572" lon="7.17271">
        <ele>0.62000000476837</ele>
        <time>2010-11-14T07:55:10Z</time>
      </trkpt>
      <trkpt lat="43.65731" lon="7.17239">
        <ele>0.62000000476837</ele>
        <time>2010-11-14T07:55:17Z</time>
      </trkpt>
      <trkpt lat="43.65732" lon="7.17235">
        <ele>-0.81999999284744</ele>
        <time>2010-11-14T07:55:18Z</time>
      </trkpt>
      <trkpt lat="43.6574" lon="7.17202">
        <ele>0.14000000059605</ele>
        <time>2010-11-14T07:55:25Z</time>
      </trkpt>
      <trkpt lat="43.65741" lon="7.17197">
        <ele>0.14000000059605</ele>
        <time>2010-11-14T07:55:26Z</time>
      </trkpt>
      <trkpt lat="43.65757" lon="7.17147">
        <ele>0.14000000059605</ele>
        <time>2010-11-14T07:55:37Z</time>
      </trkpt>
      <trkpt lat="43.65762" lon="7.17128">
        <ele>0.14000000059605</ele>
        <time>2010-11-14T07:55:41Z</time>
      </trkpt>
      <trkpt lat="43.65767" lon="7.17092">
        <ele>-0.34000000357628</ele>
        <time>2010-11-14T07:55:48Z</time>
      </trkpt>
      <trkpt lat="43.65773" lon="7.17046">
        <ele>0.14000000059605</ele>
        <time>2010-11-14T07:55:57Z</time>
      </trkpt>
      <trkpt lat="43.65777" lon="7.17007">
        <ele>0.14000000059605</ele>
        <time>2010-11-14T07:56:05Z</time>
      </trkpt>
      <trkpt lat="43.65779" lon="7.16971">
        <ele>0.14000000059605</ele>
        <time>2010-11-14T07:56:12Z</time>
      </trkpt>
      <trkpt lat="43.65779" lon="7.16933">
        <ele>-0.34000000357628</ele>
        <time>2010-11-14T07:56:20Z</time>
      </trkpt>
      <trkpt lat="43.65777" lon="7.16901">
        <ele>0.14000000059605</ele>
        <time>2010-11-14T07:56:26Z</time>
      </trkpt>
      <trkpt lat="43.65778" lon="7.16876">
        <ele>-0.81999999284744</ele>
        <time>2010-11-14T07:56:31Z</time>
      </trkpt>
      <trkpt lat="43.65776" lon="7.16841">
        <ele>-0.34000000357628</ele>
        <time>2010-11-14T07:56:38Z</time>
      </trkpt>
      <trkpt lat="43.65776" lon="7.16831">
        <ele>-0.34000000357628</ele>
        <time>2010-11-14T07:56:40Z</time>
      </trkpt>
      <trkpt lat="43.65774" lon="7.16811">
        <ele>-0.34000000357628</ele>
        <time>2010-11-14T07:56:44Z</time>
      </trkpt>
      <trkpt lat="43.65769" lon="7.16781">
        <ele>-0.34000000357628</ele>
        <time>2010-11-14T07:56:50Z</time>
      </trkpt>
      <trkpt lat="43.65763" lon="7.16749">
        <ele>-1.2999999523163</ele>
        <time>2010-11-14T07:56:57Z</time>
      </trkpt>
      <trkpt lat="43.6576" lon="7.16729">
        <ele>-0.81999999284744</ele>
        <time>2010-11-14T07:57:01Z</time>
      </trkpt>
      <trkpt lat="43.65752" lon="7.16687">
        <ele>0.14000000059605</ele>
        <time>2010-11-14T07:57:10Z</time>
      </trkpt>
      <trkpt lat="43.65742" lon="7.16651">
        <ele>-0.34000000357628</ele>
        <time>2010-11-14T07:57:18Z</time>
      </trkpt>
      <trkpt lat="43.65735" lon="7.16628">
        <ele>0.14000000059605</ele>
        <time>2010-11-14T07:57:23Z</time>
      </trkpt>
      <trkpt lat="43.65722" lon="7.16576">
        <ele>-0.34000000357628</ele>
        <time>2010-11-14T07:57:34Z</time>
      </trkpt>
      <trkpt lat="43.65714" lon="7.16548">
        <ele>0.14000000059605</ele>
        <time>2010-11-14T07:57:40Z</time>
      </trkpt>
      <trkpt lat="43.65712" lon="7.16543">
        <ele>0.14000000059605</ele>
        <time>2010-11-14T07:57:41Z</time>
      </trkpt>
      <trkpt lat="43.65699" lon="7.1651">
        <ele>0.14000000059605</ele>
        <time>2010-11-14T07:57:48Z</time>
      </trkpt>
      <trkpt lat="43.65695" lon="7.16496">
        <ele>-0.34000000357628</ele>
        <time>2010-11-14T07:57:51Z</time>
      </trkpt>
      <trkpt lat="43.65678" lon="7.16456">
        <ele>0.14000000059605</ele>
        <time>2010-11-14T07:58:00Z</time>
      </trkpt>
      <trkpt lat="43.65665" lon="7.16417">
        <ele>0.14000000059605</ele>
        <time>2010-11-14T07:58:08Z</time>
      </trkpt>
      <trkpt lat="43.65655" lon="7.16384">
        <ele>-0.81999999284744</ele>
        <time>2010-11-14T07:58:15Z</time>
      </trkpt>
      <trkpt lat="43.65645" lon="7.16355">
        <ele>0.14000000059605</ele>
        <time>2010-11-14T07:58:21Z</time>
      </trkpt>
      <trkpt lat="43.65636" lon="7.16329">
        <ele>-0.34000000357628</ele>
        <time>2010-11-14T07:58:27Z</time>
      </trkpt>
      <trkpt lat="43.6563" lon="7.16311">
        <ele>-0.34000000357628</ele>
        <time>2010-11-14T07:58:31Z</time>
      </trkpt>
      <trkpt lat="43.65617" lon="7.1627">
        <ele>-0.81999999284744</ele>
        <time>2010-11-14T07:58:40Z</time>
      </trkpt>
      <trkpt lat="43.65607" lon="7.16243">
        <ele>0.14000000059605</ele>
        <time>2010-11-14T07:58:46Z</time>
      </trkpt>
      <trkpt lat="43.65597" lon="7.16212">
        <ele>-0.81999999284744</ele>
        <time>2010-11-14T07:58:53Z</time>
      </trkpt>
      <trkpt lat="43.65582" lon="7.16177">
        <ele>0.14000000059605</ele>
        <time>2010-11-14T07:59:01Z</time>
      </trkpt>
      <trkpt lat="43.65579" lon="7.16173">
        <ele>-0.34000000357628</ele>
        <time>2010-11-14T07:59:02Z</time>
      </trkpt>
      <trkpt lat="43.65568" lon="7.16137">
        <ele>-0.81999999284744</ele>
        <time>2010-11-14T07:59:10Z</time>
      </trkpt>
      <trkpt lat="43.65564" lon="7.16128">
        <ele>-0.81999999284744</ele>
        <time>2010-11-14T07:59:12Z</time>
      </trkpt>
      <trkpt lat="43.65548" lon="7.16089">
        <ele>-0.34000000357628</ele>
        <time>2010-11-14T07:59:21Z</time>
      </trkpt>
      <trkpt lat="43.65537" lon="7.16063">
        <ele>-0.81999999284744</ele>
        <time>2010-11-14T07:59:27Z</time>
      </trkpt>
      <trkpt lat="43.65525" lon="7.16031">
        <ele>-0.34000000357628</ele>
        <time>2010-11-14T07:59:34Z</time>
      </trkpt>
      <trkpt lat="43.65513" lon="7.16001">
        <ele>-0.81999999284744</ele>
        <time>2010-11-14T07:59:41Z</time>
      </trkpt>
      <trkpt lat="43.65511" lon="7.15996">
        <ele>-0.81999999284744</ele>
        <time>2010-11-14T07:59:42Z</time>
      </trkpt>
      <trkpt lat="43.65501" lon="7.15975">
        <ele>-0.34000000357628</ele>
        <time>2010-11-14T07:59:47Z</time>
      </trkpt>
      <trkpt lat="43.65496" lon="7.15957">
        <ele>-0.34000000357628</ele>
        <time>2010-11-14T07:59:51Z</time>
      </trkpt>
      <trkpt lat="43.65485" lon="7.15927">
        <ele>-0.81999999284744</ele>
        <time>2010-11-14T07:59:58Z</time>
      </trkpt>
      <trkpt lat="43.65471" lon="7.15896">
        <ele>0.62000000476837</ele>
        <time>2010-11-14T08:00:05Z</time>
      </trkpt>
      <trkpt lat="43.6546" lon="7.15865">
        <ele>-0.81999999284744</ele>
        <time>2010-11-14T08:00:12Z</time>
      </trkpt>
      <trkpt lat="43.65448" lon="7.15836">
        <ele>-0.34000000357628</ele>
        <time>2010-11-14T08:00:19Z</time>
      </trkpt>
      <trkpt lat="43.65434" lon="7.15804">
        <ele>-0.81999999284744</ele>
        <time>2010-11-14T08:00:26Z</time>
      </trkpt>
      <trkpt lat="43.65426" lon="7.15782">
        <ele>-2.2699999809265</ele>
        <time>2010-11-14T08:00:31Z</time>
      </trkpt>
      <trkpt lat="43.6541" lon="7.15749">
        <ele>-0.81999999284744</ele>
        <time>2010-11-14T08:00:39Z</time>
      </trkpt>
      <trkpt lat="43.6539" lon="7.15707">
        <ele>-0.81999999284744</ele>
        <time>2010-11-14T08:00:49Z</time>
      </trkpt>
      <trkpt lat="43.65378" lon="7.15682">
        <ele>-0.34000000357628</ele>
        <time>2010-11-14T08:00:55Z</time>
      </trkpt>
      <trkpt lat="43.65371" lon="7.15669">
        <ele>-0.81999999284744</ele>
        <time>2010-11-14T08:00:58Z</time>
      </trkpt>
      <trkpt lat="43.65353" lon="7.15628">
        <ele>-0.34000000357628</ele>
        <time>2010-11-14T08:01:08Z</time>
      </trkpt>
      <trkpt lat="43.65337" lon="7.15603">
        <ele>-0.81999999284744</ele>
        <time>2010-11-14T08:01:15Z</time>
      </trkpt>
      <trkpt lat="43.65321" lon="7.15578">
        <ele>-0.34000000357628</ele>
        <time>2010-11-14T08:01:22Z</time>
      </trkpt>
      <trkpt lat="43.65318" lon="7.15575">
        <ele>-0.34000000357628</ele>
        <time>2010-11-14T08:01:23Z</time>
      </trkpt>
      <trkpt lat="43.65295" lon="7.15536">
        <ele>0.14000000059605</ele>
        <time>2010-11-14T08:01:33Z</time>
      </trkpt>
      <trkpt lat="43.65281" lon="7.15513">
        <ele>0.14000000059605</ele>
        <time>2010-11-14T08:01:39Z</time>
      </trkpt>
      <trkpt lat="43.65266" lon="7.15491">
        <ele>0.14000000059605</ele>
        <time>2010-11-14T08:01:45Z</time>
      </trkpt>
      <trkpt lat="43.65245" lon="7.15461">
        <ele>0.14000000059605</ele>
        <time>2010-11-14T08:01:53Z</time>
      </trkpt>
      <trkpt lat="43.65231" lon="7.15439">
        <ele>-0.81999999284744</ele>
        <time>2010-11-14T08:01:59Z</time>
      </trkpt>
      <trkpt lat="43.65226" lon="7.15433">
        <ele>-0.81999999284744</ele>
        <time>2010-11-14T08:02:01Z</time>
      </trkpt>
      <trkpt lat="43.65203" lon="7.154">
        <ele>-0.81999999284744</ele>
        <time>2010-11-14T08:02:10Z</time>
      </trkpt>
      <trkpt lat="43.65187" lon="7.15379">
        <ele>-1.789999961853</ele>
        <time>2010-11-14T08:02:16Z</time>
      </trkpt>
      <trkpt lat="43.65169" lon="7.15353">
        <ele>-1.2999999523163</ele>
        <time>2010-11-14T08:02:23Z</time>
      </trkpt>
      <trkpt lat="43.65163" lon="7.15346">
        <ele>-1.789999961853</ele>
        <time>2010-11-14T08:02:25Z</time>
      </trkpt>
      <trkpt lat="43.65145" lon="7.15322">
        <ele>-1.789999961853</ele>
        <time>2010-11-14T08:02:32Z</time>
      </trkpt>
      <trkpt lat="43.65136" lon="7.15311">
        <ele>-1.789999961853</ele>
        <time>2010-11-14T08:02:35Z</time>
      </trkpt>
      <trkpt lat="43.65125" lon="7.15299">
        <ele>-1.2999999523163</ele>
        <time>2010-11-14T08:02:39Z</time>
      </trkpt>
      <trkpt lat="43.65105" lon="7.15276">
        <ele>-2.2699999809265</ele>
        <time>2010-11-14T08:02:46Z</time>
      </trkpt>
      <trkpt lat="43.65085" lon="7.15246">
        <ele>-2.2699999809265</ele>
        <time>2010-11-14T08:02:54Z</time>
      </trkpt>
      <trkpt lat="43.65083" lon="7.15243">
        <ele>-1.2999999523163</ele>
        <time>2010-11-14T08:02:55Z</time>
      </trkpt>
      <trkpt lat="43.65071" lon="7.15217">
        <ele>-1.2999999523163</ele>
        <time>2010-11-14T08:03:01Z</time>
      </trkpt>
      <trkpt lat="43.65052" lon="7.15174">
        <ele>-1.2999999523163</ele>
        <time>2010-11-14T08:03:11Z</time>
      </trkpt>
      <trkpt lat="43.65038" lon="7.1515">
        <ele>-1.2999999523163</ele>
        <time>2010-11-14T08:03:17Z</time>
      </trkpt>
      <trkpt lat="43.65021" lon="7.15131">
        <ele>-1.789999961853</ele>
        <time>2010-11-14T08:03:23Z</time>
      </trkpt>
      <trkpt lat="43.65009" lon="7.1512">
        <ele>-1.789999961853</ele>
        <time>2010-11-14T08:03:27Z</time>
      </trkpt>
      <trkpt lat="43.64979" lon="7.15092">
        <ele>-1.789999961853</ele>
        <time>2010-11-14T08:03:37Z</time>
      </trkpt>
      <trkpt lat="43.64976" lon="7.15089">
        <ele>-1.789999961853</ele>
        <time>2010-11-14T08:03:38Z</time>
      </trkpt>
      <trkpt lat="43.64956" lon="7.15066">
        <ele>-1.789999961853</ele>
        <time>2010-11-14T08:03:45Z</time>
      </trkpt>
      <trkpt lat="43.64934" lon="7.1504">
        <ele>-2.2699999809265</ele>
        <time>2010-11-14T08:03:53Z</time>
      </trkpt>
      <trkpt lat="43.64908" lon="7.15012">
        <ele>-1.2999999523163</ele>
        <time>2010-11-14T08:04:02Z</time>
      </trkpt>
      <trkpt lat="43.64897" lon="7.14999">
        <ele>-1.789999961853</ele>
        <time>2010-11-14T08:04:06Z</time>
      </trkpt>
      <trkpt lat="43.64886" lon="7.14984">
        <ele>-1.789999961853</ele>
        <time>2010-11-14T08:04:10Z</time>
      </trkpt>
      <trkpt lat="43.64864" lon="7.14964">
        <ele>-2.2699999809265</ele>
        <time>2010-11-14T08:04:17Z</time>
      </trkpt>
      <trkpt lat="43.64845" lon="7.14941">
        <ele>-1.789999961853</ele>
        <time>2010-11-14T08:04:24Z</time>
      </trkpt>
      <trkpt lat="43.64822" lon="7.14922">
        <ele>-2.2699999809265</ele>
        <time>2010-11-14T08:04:31Z</time>
      </trkpt>
      <trkpt lat="43.648" lon="7.1489">
        <ele>-2.2699999809265</ele>
        <time>2010-11-14T08:04:40Z</time>
      </trkpt>
      <trkpt lat="43.64782" lon="7.14872">
        <ele>-2.2699999809265</ele>
        <time>2010-11-14T08:04:46Z</time>
      </trkpt>
      <trkpt lat="43.64762" lon="7.14849">
        <ele>-2.75</ele>
        <time>2010-11-14T08:04:53Z</time>
      </trkpt>
      <trkpt lat="43.6475" lon="7.14839">
        <ele>-2.75</ele>
        <time>2010-11-14T08:04:57Z</time>
      </trkpt>
      <trkpt lat="43.64744" lon="7.14833">
        <ele>-2.75</ele>
        <time>2010-11-14T08:04:59Z</time>
      </trkpt>
      <trkpt lat="43.64716" lon="7.14807">
        <ele>-2.75</ele>
        <time>2010-11-14T08:05:08Z</time>
      </trkpt>
      <trkpt lat="43.64711" lon="7.14802">
        <ele>-2.2699999809265</ele>
        <time>2010-11-14T08:05:10Z</time>
      </trkpt>
      <trkpt lat="43.64688" lon="7.14784">
        <ele>-2.75</ele>
        <time>2010-11-14T08:05:17Z</time>
      </trkpt>
      <trkpt lat="43.64669" lon="7.14766">
        <ele>-2.2699999809265</ele>
        <time>2010-11-14T08:05:23Z</time>
      </trkpt>
      <trkpt lat="43.64655" lon="7.1475">
        <ele>-2.75</ele>
        <time>2010-11-14T08:05:28Z</time>
      </trkpt>
      <trkpt lat="43.64633" lon="7.14726">
        <ele>-2.75</ele>
        <time>2010-11-14T08:05:36Z</time>
      </trkpt>
      <trkpt lat="43.64611" lon="7.14701">
        <ele>-2.75</ele>
        <time>2010-11-14T08:05:44Z</time>
      </trkpt>
      <trkpt lat="43.64592" lon="7.14685">
        <ele>-2.75</ele>
        <time>2010-11-14T08:05:50Z</time>
      </trkpt>
      <trkpt lat="43.64568" lon="7.14661">
        <ele>-2.2699999809265</ele>
        <time>2010-11-14T08:05:58Z</time>
      </trkpt>
      <trkpt lat="43.64554" lon="7.14647">
        <ele>-2.75</ele>
        <time>2010-11-14T08:06:03Z</time>
      </trkpt>
      <trkpt lat="43.64532" lon="7.14627">
        <ele>-2.2699999809265</ele>
        <time>2010-11-14T08:06:10Z</time>
      </trkpt>
      <trkpt lat="43.6452" lon="7.14615">
        <ele>-2.75</ele>
        <time>2010-11-14T08:06:14Z</time>
      </trkpt>
      <trkpt lat="43.64509" lon="7.14603">
        <ele>-2.75</ele>
        <time>2010-11-14T08:06:18Z</time>
      </trkpt>
      <trkpt lat="43.64488" lon="7.14568">
        <ele>-2.2699999809265</ele>
        <time>2010-11-14T08:06:27Z</time>
      </trkpt>
      <trkpt lat="43.64476" lon="7.14542">
        <ele>-2.2699999809265</ele>
        <time>2010-11-14T08:06:33Z</time>
      </trkpt>
      <trkpt lat="43.64462" lon="7.14513">
        <ele>-2.75</ele>
        <time>2010-11-14T08:06:40Z</time>
      </trkpt>
      <trkpt lat="43.64441" lon="7.14483">
        <ele>-2.2699999809265</ele>
        <time>2010-11-14T08:06:48Z</time>
      </trkpt>
      <trkpt lat="43.64428" lon="7.14473">
        <ele>-3.2300000190735</ele>
        <time>2010-11-14T08:06:52Z</time>
      </trkpt>
      <trkpt lat="43.64407" lon="7.14464">
        <ele>-2.75</ele>
        <time>2010-11-14T08:06:58Z</time>
      </trkpt>
      <trkpt lat="43.64385" lon="7.14457">
        <ele>-2.75</ele>
        <time>2010-11-14T08:07:04Z</time>
      </trkpt>
      <trkpt lat="43.64369" lon="7.14453">
        <ele>-2.75</ele>
        <time>2010-11-14T08:07:08Z</time>
      </trkpt>
      <trkpt lat="43.64362" lon="7.14449">
        <ele>-2.75</ele>
        <time>2010-11-14T08:07:10Z</time>
      </trkpt>
      <trkpt lat="43.6435" lon="7.14438">
        <ele>-2.2699999809265</ele>
        <time>2010-11-14T08:07:14Z</time>
      </trkpt>
      <trkpt lat="43.64331" lon="7.14415">
        <ele>-2.2699999809265</ele>
        <time>2010-11-14T08:07:21Z</time>
      </trkpt>
      <trkpt lat="43.64305" lon="7.14386">
        <ele>-2.75</ele>
        <time>2010-11-14T08:07:30Z</time>
      </trkpt>
      <trkpt lat="43.64297" lon="7.14375">
        <ele>-2.75</ele>
        <time>2010-11-14T08:07:33Z</time>
      </trkpt>
      <trkpt lat="43.64301" lon="7.14343">
        <ele>-3.710000038147</ele>
        <time>2010-11-14T08:07:40Z</time>
      </trkpt>
      <trkpt lat="43.64309" lon="7.14333">
        <ele>-4.1900000572205</ele>
        <time>2010-11-14T08:07:43Z</time>
      </trkpt>
      <trkpt lat="43.64315" lon="7.14323">
        <ele>-4.6700000762939</ele>
        <time>2010-11-14T08:07:45Z</time>
      </trkpt>
      <trkpt lat="43.64326" lon="7.143">
        <ele>-4.1900000572205</ele>
        <time>2010-11-14T08:07:52Z</time>
      </trkpt>
      <trkpt lat="43.64339" lon="7.14273">
        <ele>-4.1900000572205</ele>
        <time>2010-11-14T08:07:59Z</time>
      </trkpt>
      <trkpt lat="43.64358" lon="7.14234">
        <ele>-3.710000038147</ele>
        <time>2010-11-14T08:08:09Z</time>
      </trkpt>
      <trkpt lat="43.64374" lon="7.14208">
        <ele>-3.710000038147</ele>
        <time>2010-11-14T08:08:16Z</time>
      </trkpt>
      <trkpt lat="43.64376" lon="7.14204">
        <ele>-3.710000038147</ele>
        <time>2010-11-14T08:08:17Z</time>
      </trkpt>
      <trkpt lat="43.64385" lon="7.14195">
        <ele>-4.1900000572205</ele>
        <time>2010-11-14T08:08:20Z</time>
      </trkpt>
      <trkpt lat="43.64392" lon="7.14188">
        <ele>-3.710000038147</ele>
        <time>2010-11-14T08:08:23Z</time>
      </trkpt>
      <trkpt lat="43.64406" lon="7.1417">
        <ele>-3.2300000190735</ele>
        <time>2010-11-14T08:08:27Z</time>
      </trkpt>
      <trkpt lat="43.64418" lon="7.14139">
        <ele>-3.710000038147</ele>
        <time>2010-11-14T08:08:33Z</time>
      </trkpt>
      <trkpt lat="43.64424" lon="7.14133">
        <ele>-3.710000038147</ele>
        <time>2010-11-14T08:08:35Z</time>
      </trkpt>
      <trkpt lat="43.64438" lon="7.14126">
        <ele>-3.2300000190735</ele>
        <time>2010-11-14T08:08:39Z</time>
      </trkpt>
      <trkpt lat="43.64466" lon="7.14111">
        <ele>-3.2300000190735</ele>
        <time>2010-11-14T08:08:48Z</time>
      </trkpt>
      <trkpt lat="43.64495" lon="7.14095">
        <ele>-3.710000038147</ele>
        <time>2010-11-14T08:08:56Z</time>
      </trkpt>
      <trkpt lat="43.64513" lon="7.14085">
        <ele>-2.75</ele>
        <time>2010-11-14T08:09:01Z</time>
      </trkpt>
      <trkpt lat="43.64545" lon="7.14064">
        <ele>-2.75</ele>
        <time>2010-11-14T08:09:10Z</time>
      </trkpt>
      <trkpt lat="43.64558" lon="7.14056">
        <ele>-2.75</ele>
        <time>2010-11-14T08:09:14Z</time>
      </trkpt>
      <trkpt lat="43.64578" lon="7.14041">
        <ele>-2.75</ele>
        <time>2010-11-14T08:09:20Z</time>
      </trkpt>
      <trkpt lat="43.64591" lon="7.14031">
        <ele>-2.2699999809265</ele>
        <time>2010-11-14T08:09:24Z</time>
      </trkpt>
      <trkpt lat="43.64611" lon="7.14016">
        <ele>-1.789999961853</ele>
        <time>2010-11-14T08:09:30Z</time>
      </trkpt>
      <trkpt lat="43.64632" lon="7.13994">
        <ele>-2.2699999809265</ele>
        <time>2010-11-14T08:09:37Z</time>
      </trkpt>
      <trkpt lat="43.64646" lon="7.13978">
        <ele>-2.2699999809265</ele>
        <time>2010-11-14T08:09:42Z</time>
      </trkpt>
      <trkpt lat="43.64672" lon="7.1395">
        <ele>-2.2699999809265</ele>
        <time>2010-11-14T08:09:51Z</time>
      </trkpt>
      <trkpt lat="43.64687" lon="7.13926">
        <ele>-2.2699999809265</ele>
        <time>2010-11-14T08:09:57Z</time>
      </trkpt>
      <trkpt lat="43.64693" lon="7.13913">
        <ele>-1.789999961853</ele>
        <time>2010-11-14T08:10:01Z</time>
      </trkpt>
      <trkpt lat="43.64696" lon="7.13906">
        <ele>-2.2699999809265</ele>
        <time>2010-11-14T08:10:03Z</time>
      </trkpt>
      <trkpt lat="43.64701" lon="7.13895">
        <ele>-2.2699999809265</ele>
        <time>2010-11-14T08:10:05Z</time>
      </trkpt>
      <trkpt lat="43.64688" lon="7.13867">
        <ele>-1.789999961853</ele>
        <time>2010-11-14T08:10:12Z</time>
      </trkpt>
      <trkpt lat="43.64676" lon="7.13845">
        <ele>-1.2999999523163</ele>
        <time>2010-11-14T08:10:18Z</time>
      </trkpt>
      <trkpt lat="43.6466" lon="7.13843">
        <ele>-1.2999999523163</ele>
        <time>2010-11-14T08:10:23Z</time>
      </trkpt>
      <trkpt lat="43.6464" lon="7.13873">
        <ele>-1.789999961853</ele>
        <time>2010-11-14T08:10:31Z</time>
      </trkpt>
      <trkpt lat="43.64626" lon="7.13891">
        <ele>-1.789999961853</ele>
        <time>2010-11-14T08:10:36Z</time>
      </trkpt>
      <trkpt lat="43.64603" lon="7.13927">
        <ele>-2.2699999809265</ele>
        <time>2010-11-14T08:10:46Z</time>
      </trkpt>
      <trkpt lat="43.64591" lon="7.13941">
        <ele>-2.75</ele>
        <time>2010-11-14T08:10:50Z</time>
      </trkpt>
      <trkpt lat="43.64566" lon="7.13962">
        <ele>-2.75</ele>
        <time>2010-11-14T08:10:58Z</time>
      </trkpt>
      <trkpt lat="43.64537" lon="7.13984">
        <ele>-2.2699999809265</ele>
        <time>2010-11-14T08:11:07Z</time>
      </trkpt>
      <trkpt lat="43.6451" lon="7.14002">
        <ele>-2.75</ele>
        <time>2010-11-14T08:11:15Z</time>
      </trkpt>
      <trkpt lat="43.64476" lon="7.14028">
        <ele>-2.75</ele>
        <time>2010-11-14T08:11:26Z</time>
      </trkpt>
      <trkpt lat="43.64457" lon="7.14042">
        <ele>-3.2300000190735</ele>
        <time>2010-11-14T08:11:32Z</time>
      </trkpt>
      <trkpt lat="43.64436" lon="7.14054">
        <ele>-3.2300000190735</ele>
        <time>2010-11-14T08:11:38Z</time>
      </trkpt>
      <trkpt lat="43.64407" lon="7.14078">
        <ele>-3.2300000190735</ele>
        <time>2010-11-14T08:11:47Z</time>
      </trkpt>
      <trkpt lat="43.64366" lon="7.14107">
        <ele>-3.2300000190735</ele>
        <time>2010-11-14T08:12:00Z</time>
      </trkpt>
      <trkpt lat="43.64344" lon="7.14127">
        <ele>-3.2300000190735</ele>
        <time>2010-11-14T08:12:07Z</time>
      </trkpt>
      <trkpt lat="43.64325" lon="7.14157">
        <ele>-2.75</ele>
        <time>2010-11-14T08:12:15Z</time>
      </trkpt>
      <trkpt lat="43.64306" lon="7.14191">
        <ele>-3.2300000190735</ele>
        <time>2010-11-14T08:12:24Z</time>
      </trkpt>
      <trkpt lat="43.64289" lon="7.14218">
        <ele>-3.710000038147</ele>
        <time>2010-11-14T08:12:31Z</time>
      </trkpt>
      <trkpt lat="43.64273" lon="7.14249">
        <ele>-3.710000038147</ele>
        <time>2010-11-14T08:12:39Z</time>
      </trkpt>
      <trkpt lat="43.64267" lon="7.14266">
        <ele>-3.710000038147</ele>
        <time>2010-11-14T08:12:43Z</time>
      </trkpt>
      <trkpt lat="43.64257" lon="7.14282">
        <ele>-4.1900000572205</ele>
        <time>2010-11-14T08:12:47Z</time>
      </trkpt>
      <trkpt lat="43.64249" lon="7.14298">
        <ele>-3.710000038147</ele>
        <time>2010-11-14T08:12:51Z</time>
      </trkpt>
      <trkpt lat="43.6424" lon="7.14301">
        <ele>-2.75</ele>
        <time>2010-11-14T08:12:55Z</time>
      </trkpt>
      <trkpt lat="43.64211" lon="7.14279">
        <ele>-2.75</ele>
        <time>2010-11-14T08:13:03Z</time>
      </trkpt>
      <trkpt lat="43.64185" lon="7.14251">
        <ele>-2.75</ele>
        <time>2010-11-14T08:13:12Z</time>
      </trkpt>
      <trkpt lat="43.64172" lon="7.1424">
        <ele>-2.75</ele>
        <time>2010-11-14T08:13:16Z</time>
      </trkpt>
      <trkpt lat="43.64156" lon="7.14227">
        <ele>-2.75</ele>
        <time>2010-11-14T08:13:21Z</time>
      </trkpt>
      <trkpt lat="43.64132" lon="7.142">
        <ele>-3.2300000190735</ele>
        <time>2010-11-14T08:13:30Z</time>
      </trkpt>
      <trkpt lat="43.64114" lon="7.14176">
        <ele>-3.2300000190735</ele>
        <time>2010-11-14T08:13:37Z</time>
      </trkpt>
      <trkpt lat="43.64105" lon="7.1416">
        <ele>-2.2699999809265</ele>
        <time>2010-11-14T08:13:41Z</time>
      </trkpt>
      <trkpt lat="43.64096" lon="7.14143">
        <ele>-2.75</ele>
        <time>2010-11-14T08:13:45Z</time>
      </trkpt>
      <trkpt lat="43.64087" lon="7.14128">
        <ele>-2.75</ele>
        <time>2010-11-14T08:13:49Z</time>
      </trkpt>
      <trkpt lat="43.64063" lon="7.14087">
        <ele>-3.2300000190735</ele>
        <time>2010-11-14T08:14:00Z</time>
      </trkpt>
      <trkpt lat="43.64054" lon="7.1407">
        <ele>-3.2300000190735</ele>
        <time>2010-11-14T08:14:04Z</time>
      </trkpt>
      <trkpt lat="43.64045" lon="7.14054">
        <ele>-3.2300000190735</ele>
        <time>2010-11-14T08:14:08Z</time>
      </trkpt>
      <trkpt lat="43.64036" lon="7.14032">
        <ele>-3.2300000190735</ele>
        <time>2010-11-14T08:14:13Z</time>
      </trkpt>
      <trkpt lat="43.64025" lon="7.14007">
        <ele>-2.75</ele>
        <time>2010-11-14T08:14:19Z</time>
      </trkpt>
      <trkpt lat="43.64009" lon="7.13979">
        <ele>-2.2699999809265</ele>
        <time>2010-11-14T08:14:26Z</time>
      </trkpt>
      <trkpt lat="43.64007" lon="7.13975">
        <ele>-2.75</ele>
        <time>2010-11-14T08:14:27Z</time>
      </trkpt>
      <trkpt lat="43.63998" lon="7.1396">
        <ele>-2.75</ele>
        <time>2010-11-14T08:14:31Z</time>
      </trkpt>
      <trkpt lat="43.63981" lon="7.13929">
        <ele>-2.75</ele>
        <time>2010-11-14T08:14:39Z</time>
      </trkpt>
      <trkpt lat="43.63962" lon="7.13892">
        <ele>-2.75</ele>
        <time>2010-11-14T08:14:48Z</time>
      </trkpt>
      <trkpt lat="43.63946" lon="7.13864">
        <ele>-2.75</ele>
        <time>2010-11-14T08:14:55Z</time>
      </trkpt>
      <trkpt lat="43.63922" lon="7.13829">
        <ele>-2.75</ele>
        <time>2010-11-14T08:15:05Z</time>
      </trkpt>
      <trkpt lat="43.6391" lon="7.13812">
        <ele>-2.2699999809265</ele>
        <time>2010-11-14T08:15:10Z</time>
      </trkpt>
      <trkpt lat="43.63903" lon="7.138">
        <ele>-2.2699999809265</ele>
        <time>2010-11-14T08:15:13Z</time>
      </trkpt>
      <trkpt lat="43.63899" lon="7.13792">
        <ele>-2.75</ele>
        <time>2010-11-14T08:15:15Z</time>
      </trkpt>
      <trkpt lat="43.63892" lon="7.13774">
        <ele>-2.75</ele>
        <time>2010-11-14T08:15:19Z</time>
      </trkpt>
      <trkpt lat="43.63884" lon="7.13758">
        <ele>-2.2699999809265</ele>
        <time>2010-11-14T08:15:23Z</time>
      </trkpt>
      <trkpt lat="43.63869" lon="7.1373">
        <ele>-2.2699999809265</ele>
        <time>2010-11-14T08:15:30Z</time>
      </trkpt>
      <trkpt lat="43.63862" lon="7.13713">
        <ele>-1.789999961853</ele>
        <time>2010-11-14T08:15:34Z</time>
      </trkpt>
      <trkpt lat="43.63847" lon="7.13676">
        <ele>-1.2999999523163</ele>
        <time>2010-11-14T08:15:43Z</time>
      </trkpt>
      <trkpt lat="43.63832" lon="7.13647">
        <ele>-0.34000000357628</ele>
        <time>2010-11-14T08:15:50Z</time>
      </trkpt>
      <trkpt lat="43.63829" lon="7.13643">
        <ele>-0.34000000357628</ele>
        <time>2010-11-14T08:15:51Z</time>
      </trkpt>
      <trkpt lat="43.63826" lon="7.13635">
        <ele>0.14000000059605</ele>
        <time>2010-11-14T08:15:53Z</time>
      </trkpt>
      <trkpt lat="43.63814" lon="7.13608">
        <ele>0.62000000476837</ele>
        <time>2010-11-14T08:16:00Z</time>
      </trkpt>
      <trkpt lat="43.63806" lon="7.13593">
        <ele>1.5800000429153</ele>
        <time>2010-11-14T08:16:04Z</time>
      </trkpt>
      <trkpt lat="43.63805" lon="7.13585">
        <ele>1.1000000238419</ele>
        <time>2010-11-14T08:16:06Z</time>
      </trkpt>
      <trkpt lat="43.63786" lon="7.13561">
        <ele>2.539999961853</ele>
        <time>2010-11-14T08:16:14Z</time>
      </trkpt>
      <trkpt lat="43.63764" lon="7.1354">
        <ele>3.0199999809265</ele>
        <time>2010-11-14T08:16:21Z</time>
      </trkpt>
      <trkpt lat="43.63757" lon="7.13535">
        <ele>2.539999961853</ele>
        <time>2010-11-14T08:16:23Z</time>
      </trkpt>
      <trkpt lat="43.63723" lon="7.1351">
        <ele>3.0199999809265</ele>
        <time>2010-11-14T08:16:34Z</time>
      </trkpt>
      <trkpt lat="43.63696" lon="7.13501">
        <ele>1.5800000429153</ele>
        <time>2010-11-14T08:16:41Z</time>
      </trkpt>
      <trkpt lat="43.63668" lon="7.13493">
        <ele>1.1000000238419</ele>
        <time>2010-11-14T08:16:49Z</time>
      </trkpt>
      <trkpt lat="43.63635" lon="7.13493">
        <ele>-0.34000000357628</ele>
        <time>2010-11-14T08:16:58Z</time>
      </trkpt>
      <trkpt lat="43.63632" lon="7.13493">
        <ele>-0.34000000357628</ele>
        <time>2010-11-14T08:16:59Z</time>
      </trkpt>
      <trkpt lat="43.63603" lon="7.13492">
        <ele>-0.34000000357628</ele>
        <time>2010-11-14T08:17:07Z</time>
      </trkpt>
      <trkpt lat="43.63599" lon="7.13492">
        <ele>-0.81999999284744</ele>
        <time>2010-11-14T08:17:08Z</time>
      </trkpt>
      <trkpt lat="43.63565" lon="7.13502">
        <ele>-0.81999999284744</ele>
        <time>2010-11-14T08:17:19Z</time>
      </trkpt>
      <trkpt lat="43.63531" lon="7.13505">
        <ele>-0.34000000357628</ele>
        <time>2010-11-14T08:17:27Z</time>
      </trkpt>
      <trkpt lat="43.63521" lon="7.13509">
        <ele>-0.81999999284744</ele>
        <time>2010-11-14T08:17:31Z</time>
      </trkpt>
      <trkpt lat="43.63483" lon="7.1351">
        <ele>-0.81999999284744</ele>
        <time>2010-11-14T08:17:41Z</time>
      </trkpt>
      <trkpt lat="43.6344" lon="7.1351">
        <ele>-0.34000000357628</ele>
        <time>2010-11-14T08:17:51Z</time>
      </trkpt>
      <trkpt lat="43.63427" lon="7.13509">
        <ele>-0.81999999284744</ele>
        <time>2010-11-14T08:17:54Z</time>
      </trkpt>
      <trkpt lat="43.63408" lon="7.13507">
        <ele>-0.34000000357628</ele>
        <time>2010-11-14T08:17:59Z</time>
      </trkpt>
      <trkpt lat="43.6338" lon="7.13509">
        <ele>-0.81999999284744</ele>
        <time>2010-11-14T08:18:08Z</time>
      </trkpt>
      <trkpt lat="43.6336" lon="7.13507">
        <ele>-0.34000000357628</ele>
        <time>2010-11-14T08:18:15Z</time>
      </trkpt>
      <trkpt lat="43.63334" lon="7.13506">
        <ele>-0.34000000357628</ele>
        <time>2010-11-14T08:18:24Z</time>
      </trkpt>
      <trkpt lat="43.63327" lon="7.13507">
        <ele>-0.34000000357628</ele>
        <time>2010-11-14T08:18:26Z</time>
      </trkpt>
      <trkpt lat="43.63321" lon="7.13508">
        <ele>-0.34000000357628</ele>
        <time>2010-11-14T08:18:28Z</time>
      </trkpt>
      <trkpt lat="43.63293" lon="7.13507">
        <ele>-0.81999999284744</ele>
        <time>2010-11-14T08:18:35Z</time>
      </trkpt>
      <trkpt lat="43.63248" lon="7.13507">
        <ele>-0.34000000357628</ele>
        <time>2010-11-14T08:18:44Z</time>
      </trkpt>
      <trkpt lat="43.63222" lon="7.13509">
        <ele>-0.81999999284744</ele>
        <time>2010-11-14T08:18:51Z</time>
      </trkpt>
      <trkpt lat="43.63197" lon="7.13508">
        <ele>-0.34000000357628</ele>
        <time>2010-11-14T08:18:57Z</time>
      </trkpt>
      <trkpt lat="43.63178" lon="7.13507">
        <ele>-0.81999999284744</ele>
        <time>2010-11-14T08:19:02Z</time>
      </trkpt>
      <trkpt lat="43.63142" lon="7.13501">
        <ele>-0.34000000357628</ele>
        <time>2010-11-14T08:19:12Z</time>
      </trkpt>
      <trkpt lat="43.63118" lon="7.13498">
        <ele>-1.2999999523163</ele>
        <time>2010-11-14T08:19:19Z</time>
      </trkpt>
      <trkpt lat="43.63114" lon="7.13497">
        <ele>-1.2999999523163</ele>
        <time>2010-11-14T08:19:20Z</time>
      </trkpt>
      <trkpt lat="43.63094" lon="7.13495">
        <ele>-0.81999999284744</ele>
        <time>2010-11-14T08:19:25Z</time>
      </trkpt>
      <trkpt lat="43.63066" lon="7.13488">
        <ele>-1.2999999523163</ele>
        <time>2010-11-14T08:19:33Z</time>
      </trkpt>
      <trkpt lat="43.63034" lon="7.13477">
        <ele>-0.81999999284744</ele>
        <time>2010-11-14T08:19:42Z</time>
      </trkpt>
      <trkpt lat="43.63027" lon="7.13475">
        <ele>-1.2999999523163</ele>
        <time>2010-11-14T08:19:44Z</time>
      </trkpt>
      <trkpt lat="43.63032" lon="7.13481">
        <ele>-0.81999999284744</ele>
        <time>2010-11-14T08:19:49Z</time>
      </trkpt>
      <trkpt lat="43.63065" lon="7.13487">
        <ele>-0.34000000357628</ele>
        <time>2010-11-14T08:19:58Z</time>
      </trkpt>
      <trkpt lat="43.63069" lon="7.13487">
        <ele>0.14000000059605</ele>
        <time>2010-11-14T08:19:59Z</time>
      </trkpt>
      <trkpt lat="43.63108" lon="7.13497">
        <ele>-0.34000000357628</ele>
        <time>2010-11-14T08:20:10Z</time>
      </trkpt>
      <trkpt lat="43.63115" lon="7.13498">
        <ele>-0.81999999284744</ele>
        <time>2010-11-14T08:20:12Z</time>
      </trkpt>
      <trkpt lat="43.6314" lon="7.13501">
        <ele>-0.81999999284744</ele>
        <time>2010-11-14T08:20:19Z</time>
      </trkpt>
      <trkpt lat="43.63154" lon="7.13499">
        <ele>-0.34000000357628</ele>
        <time>2010-11-14T08:20:23Z</time>
      </trkpt>
      <trkpt lat="43.63178" lon="7.13501">
        <ele>0.14000000059605</ele>
        <time>2010-11-14T08:20:30Z</time>
      </trkpt>
      <trkpt lat="43.63212" lon="7.13504">
        <ele>-0.34000000357628</ele>
        <time>2010-11-14T08:20:39Z</time>
      </trkpt>
      <trkpt lat="43.63232" lon="7.13504">
        <ele>-0.34000000357628</ele>
        <time>2010-11-14T08:20:44Z</time>
      </trkpt>
      <trkpt lat="43.63244" lon="7.13504">
        <ele>-0.34000000357628</ele>
        <time>2010-11-14T08:20:47Z</time>
      </trkpt>
      <trkpt lat="43.63279" lon="7.13505">
        <ele>-0.81999999284744</ele>
        <time>2010-11-14T08:20:56Z</time>
      </trkpt>
      <trkpt lat="43.63321" lon="7.13505">
        <ele>0.62000000476837</ele>
        <time>2010-11-14T08:21:08Z</time>
      </trkpt>
      <trkpt lat="43.6335" lon="7.13509">
        <ele>-0.81999999284744</ele>
        <time>2010-11-14T08:21:17Z</time>
      </trkpt>
      <trkpt lat="43.63368" lon="7.13505">
        <ele>0.14000000059605</ele>
        <time>2010-11-14T08:21:24Z</time>
      </trkpt>
      <trkpt lat="43.6338" lon="7.13503">
        <ele>-0.34000000357628</ele>
        <time>2010-11-14T08:21:27Z</time>
      </trkpt>
      <trkpt lat="43.63389" lon="7.13502">
        <ele>-0.34000000357628</ele>
        <time>2010-11-14T08:21:29Z</time>
      </trkpt>
      <trkpt lat="43.63409" lon="7.13501">
        <ele>-0.34000000357628</ele>
        <time>2010-11-14T08:21:34Z</time>
      </trkpt>
      <trkpt lat="43.6342" lon="7.13499">
        <ele>0.14000000059605</ele>
        <time>2010-11-14T08:21:37Z</time>
      </trkpt>
      <trkpt lat="43.63427" lon="7.135">
        <ele>-0.34000000357628</ele>
        <time>2010-11-14T08:21:39Z</time>
      </trkpt>
      <trkpt lat="43.63449" lon="7.13514">
        <ele>0.14000000059605</ele>
        <time>2010-11-14T08:21:45Z</time>
      </trkpt>
      <trkpt lat="43.63479" lon="7.13515">
        <ele>-0.34000000357628</ele>
        <time>2010-11-14T08:21:52Z</time>
      </trkpt>
      <trkpt lat="43.63504" lon="7.13517">
        <ele>0.14000000059605</ele>
        <time>2010-11-14T08:21:59Z</time>
      </trkpt>
      <trkpt lat="43.63526" lon="7.13514">
        <ele>-0.34000000357628</ele>
        <time>2010-11-14T08:22:05Z</time>
      </trkpt>
      <trkpt lat="43.63542" lon="7.13516">
        <ele>-0.34000000357628</ele>
        <time>2010-11-14T08:22:09Z</time>
      </trkpt>
      <trkpt lat="43.6356" lon="7.13514">
        <ele>0.14000000059605</ele>
        <time>2010-11-14T08:22:15Z</time>
      </trkpt>
      <trkpt lat="43.63587" lon="7.13513">
        <ele>0.62000000476837</ele>
        <time>2010-11-14T08:22:23Z</time>
      </trkpt>
      <trkpt lat="43.63622" lon="7.13524">
        <ele>1.5800000429153</ele>
        <time>2010-11-14T08:22:32Z</time>
      </trkpt>
      <trkpt lat="43.63642" lon="7.13525">
        <ele>1.5800000429153</ele>
        <time>2010-11-14T08:22:38Z</time>
      </trkpt>
      <trkpt lat="43.63668" lon="7.13529">
        <ele>2.0599999427795</ele>
        <time>2010-11-14T08:22:45Z</time>
      </trkpt>
      <trkpt lat="43.63678" lon="7.1353">
        <ele>1.5800000429153</ele>
        <time>2010-11-14T08:22:48Z</time>
      </trkpt>
      <trkpt lat="43.63691" lon="7.13531">
        <ele>2.0599999427795</ele>
        <time>2010-11-14T08:22:52Z</time>
      </trkpt>
      <trkpt lat="43.63718" lon="7.1355">
        <ele>1.5800000429153</ele>
        <time>2010-11-14T08:23:00Z</time>
      </trkpt>
      <trkpt lat="43.63736" lon="7.13581">
        <ele>0.62000000476837</ele>
        <time>2010-11-14T08:23:07Z</time>
      </trkpt>
      <trkpt lat="43.63751" lon="7.13611">
        <ele>0.14000000059605</ele>
        <time>2010-11-14T08:23:14Z</time>
      </trkpt>
      <trkpt lat="43.6376" lon="7.13632">
        <ele>0.14000000059605</ele>
        <time>2010-11-14T08:23:19Z</time>
      </trkpt>
      <trkpt lat="43.63767" lon="7.13664">
        <ele>0.14000000059605</ele>
        <time>2010-11-14T08:23:25Z</time>
      </trkpt>
      <trkpt lat="43.63763" lon="7.13699">
        <ele>-0.34000000357628</ele>
        <time>2010-11-14T08:23:32Z</time>
      </trkpt>
      <trkpt lat="43.6376" lon="7.13714">
        <ele>-0.81999999284744</ele>
        <time>2010-11-14T08:23:35Z</time>
      </trkpt>
      <trkpt lat="43.63754" lon="7.13735">
        <ele>-0.81999999284744</ele>
        <time>2010-11-14T08:23:39Z</time>
      </trkpt>
      <trkpt lat="43.63741" lon="7.13775">
        <ele>-1.2999999523163</ele>
        <time>2010-11-14T08:23:47Z</time>
      </trkpt>
      <trkpt lat="43.63731" lon="7.13804">
        <ele>-0.34000000357628</ele>
        <time>2010-11-14T08:23:53Z</time>
      </trkpt>
      <trkpt lat="43.63715" lon="7.13854">
        <ele>-1.789999961853</ele>
        <time>2010-11-14T08:24:04Z</time>
      </trkpt>
      <trkpt lat="43.63697" lon="7.13894">
        <ele>-2.2699999809265</ele>
        <time>2010-11-14T08:24:13Z</time>
      </trkpt>
      <trkpt lat="43.63694" lon="7.13903">
        <ele>-1.789999961853</ele>
        <time>2010-11-14T08:24:15Z</time>
      </trkpt>
      <trkpt lat="43.6367" lon="7.13899">
        <ele>-2.75</ele>
        <time>2010-11-14T08:24:22Z</time>
      </trkpt>
      <trkpt lat="43.63667" lon="7.13896">
        <ele>-2.75</ele>
        <time>2010-11-14T08:24:23Z</time>
      </trkpt>
      <trkpt lat="43.63664" lon="7.13894">
        <ele>-2.2699999809265</ele>
        <time>2010-11-14T08:24:25Z</time>
      </trkpt>
      <trkpt lat="43.63656" lon="7.13891">
        <ele>-2.2699999809265</ele>
        <time>2010-11-14T08:24:29Z</time>
      </trkpt>
      <trkpt lat="43.63631" lon="7.13875">
        <ele>-2.75</ele>
        <time>2010-11-14T08:24:35Z</time>
      </trkpt>
      <trkpt lat="43.63625" lon="7.13867">
        <ele>-3.2300000190735</ele>
        <time>2010-11-14T08:24:37Z</time>
      </trkpt>
      <trkpt lat="43.63622" lon="7.13857">
        <ele>-3.710000038147</ele>
        <time>2010-11-14T08:24:39Z</time>
      </trkpt>
      <trkpt lat="43.63623" lon="7.13836">
        <ele>-3.2300000190735</ele>
        <time>2010-11-14T08:24:43Z</time>
      </trkpt>
      <trkpt lat="43.63623" lon="7.13806">
        <ele>-3.2300000190735</ele>
        <time>2010-11-14T08:24:49Z</time>
      </trkpt>
      <trkpt lat="43.63629" lon="7.13774">
        <ele>-2.75</ele>
        <time>2010-11-14T08:24:56Z</time>
      </trkpt>
      <trkpt lat="43.63637" lon="7.13751">
        <ele>-2.75</ele>
        <time>2010-11-14T08:25:02Z</time>
      </trkpt>
      <trkpt lat="43.63644" lon="7.13724">
        <ele>-3.2300000190735</ele>
        <time>2010-11-14T08:25:07Z</time>
      </trkpt>
      <trkpt lat="43.63651" lon="7.13686">
        <ele>-2.75</ele>
        <time>2010-11-14T08:25:16Z</time>
      </trkpt>
      <trkpt lat="43.6365" lon="7.13682">
        <ele>-2.75</ele>
        <time>2010-11-14T08:25:17Z</time>
      </trkpt>
      <trkpt lat="43.6364" lon="7.13665">
        <ele>-2.2699999809265</ele>
        <time>2010-11-14T08:25:22Z</time>
      </trkpt>
      <trkpt lat="43.63625" lon="7.13648">
        <ele>-2.2699999809265</ele>
        <time>2010-11-14T08:25:27Z</time>
      </trkpt>
      <trkpt lat="43.63601" lon="7.13634">
        <ele>-3.2300000190735</ele>
        <time>2010-11-14T08:25:35Z</time>
      </trkpt>
      <trkpt lat="43.63582" lon="7.13635">
        <ele>-3.2300000190735</ele>
        <time>2010-11-14T08:25:41Z</time>
      </trkpt>
      <trkpt lat="43.63577" lon="7.13636">
        <ele>-3.2300000190735</ele>
        <time>2010-11-14T08:25:43Z</time>
      </trkpt>
      <trkpt lat="43.63563" lon="7.13641">
        <ele>-3.2300000190735</ele>
        <time>2010-11-14T08:25:47Z</time>
      </trkpt>
      <trkpt lat="43.63545" lon="7.1365">
        <ele>-2.2699999809265</ele>
        <time>2010-11-14T08:25:53Z</time>
      </trkpt>
      <trkpt lat="43.63535" lon="7.13656">
        <ele>-3.2300000190735</ele>
        <time>2010-11-14T08:25:57Z</time>
      </trkpt>
      <trkpt lat="43.63507" lon="7.13672">
        <ele>-2.75</ele>
        <time>2010-11-14T08:26:06Z</time>
      </trkpt>
      <trkpt lat="43.63481" lon="7.13685">
        <ele>-2.2699999809265</ele>
        <time>2010-11-14T08:26:14Z</time>
      </trkpt>
      <trkpt lat="43.63456" lon="7.13666">
        <ele>-2.75</ele>
        <time>2010-11-14T08:26:22Z</time>
      </trkpt>
      <trkpt lat="43.63449" lon="7.13626">
        <ele>-2.75</ele>
        <time>2010-11-14T08:26:30Z</time>
      </trkpt>
      <trkpt lat="43.63443" lon="7.13576">
        <ele>-2.2699999809265</ele>
        <time>2010-11-14T08:26:42Z</time>
      </trkpt>
      <trkpt lat="43.63438" lon="7.13564">
        <ele>-2.2699999809265</ele>
        <time>2010-11-14T08:26:44Z</time>
      </trkpt>
      <trkpt lat="43.63435" lon="7.13554">
        <ele>-1.2999999523163</ele>
        <time>2010-11-14T08:26:46Z</time>
      </trkpt>
      <trkpt lat="43.63429" lon="7.13535">
        <ele>-0.34000000357628</ele>
        <time>2010-11-14T08:26:51Z</time>
      </trkpt>
      <trkpt lat="43.63405" lon="7.13527">
        <ele>0.14000000059605</ele>
        <time>2010-11-14T08:27:02Z</time>
      </trkpt>
      <trkpt lat="43.63393" lon="7.13527">
        <ele>0.14000000059605</ele>
        <time>2010-11-14T08:27:05Z</time>
      </trkpt>
      <trkpt lat="43.63354" lon="7.13531">
        <ele>0.14000000059605</ele>
        <time>2010-11-14T08:27:15Z</time>
      </trkpt>
      <trkpt lat="43.63322" lon="7.13552">
        <ele>-0.34000000357628</ele>
        <time>2010-11-14T08:27:24Z</time>
      </trkpt>
      <trkpt lat="43.63294" lon="7.13559">
        <ele>-1.2999999523163</ele>
        <time>2010-11-14T08:27:32Z</time>
      </trkpt>
      <trkpt lat="43.63264" lon="7.13545">
        <ele>-0.81999999284744</ele>
        <time>2010-11-14T08:27:39Z</time>
      </trkpt>
      <trkpt lat="43.63239" lon="7.13557">
        <ele>-0.81999999284744</ele>
        <time>2010-11-14T08:27:47Z</time>
      </trkpt>
      <trkpt lat="43.6323" lon="7.13579">
        <ele>-1.2999999523163</ele>
        <time>2010-11-14T08:27:53Z</time>
      </trkpt>
      <trkpt lat="43.63224" lon="7.13602">
        <ele>-1.789999961853</ele>
        <time>2010-11-14T08:27:58Z</time>
      </trkpt>
      <trkpt lat="43.63209" lon="7.13611">
        <ele>-2.2699999809265</ele>
        <time>2010-11-14T08:28:04Z</time>
      </trkpt>
      <trkpt lat="43.63198" lon="7.13605">
        <ele>-1.789999961853</ele>
        <time>2010-11-14T08:28:06Z</time>
      </trkpt>
      <trkpt lat="43.63154" lon="7.13586">
        <ele>-2.75</ele>
        <time>2010-11-14T08:28:16Z</time>
      </trkpt>
      <trkpt lat="43.63125" lon="7.1357">
        <ele>-1.789999961853</ele>
        <time>2010-11-14T08:28:24Z</time>
      </trkpt>
      <trkpt lat="43.63106" lon="7.13563">
        <ele>-1.789999961853</ele>
        <time>2010-11-14T08:28:29Z</time>
      </trkpt>
      <trkpt lat="43.63099" lon="7.1356">
        <ele>-2.2699999809265</ele>
        <time>2010-11-14T08:28:31Z</time>
      </trkpt>
      <trkpt lat="43.63067" lon="7.13552">
        <ele>-2.2699999809265</ele>
        <time>2010-11-14T08:28:39Z</time>
      </trkpt>
      <trkpt lat="43.63037" lon="7.13524">
        <ele>-2.75</ele>
        <time>2010-11-14T08:28:49Z</time>
      </trkpt>
      <trkpt lat="43.63026" lon="7.13512">
        <ele>-1.789999961853</ele>
        <time>2010-11-14T08:28:53Z</time>
      </trkpt>
      <trkpt lat="43.63002" lon="7.13489">
        <ele>-1.789999961853</ele>
        <time>2010-11-14T08:29:01Z</time>
      </trkpt>
      <trkpt lat="43.62984" lon="7.1347">
        <ele>-1.2999999523163</ele>
        <time>2010-11-14T08:29:07Z</time>
      </trkpt>
      <trkpt lat="43.62957" lon="7.13455">
        <ele>-1.789999961853</ele>
        <time>2010-11-14T08:29:15Z</time>
      </trkpt>
      <trkpt lat="43.62927" lon="7.1344">
        <ele>-1.2999999523163</ele>
        <time>2010-11-14T08:29:24Z</time>
      </trkpt>
      <trkpt lat="43.62904" lon="7.13428">
        <ele>-2.2699999809265</ele>
        <time>2010-11-14T08:29:31Z</time>
      </trkpt>
      <trkpt lat="43.62893" lon="7.13422">
        <ele>-2.75</ele>
        <time>2010-11-14T08:29:34Z</time>
      </trkpt>
      <trkpt lat="43.62873" lon="7.13409">
        <ele>-2.75</ele>
        <time>2010-11-14T08:29:40Z</time>
      </trkpt>
      <trkpt lat="43.62849" lon="7.13397">
        <ele>-2.75</ele>
        <time>2010-11-14T08:29:47Z</time>
      </trkpt>
      <trkpt lat="43.62824" lon="7.13388">
        <ele>-2.75</ele>
        <time>2010-11-14T08:29:54Z</time>
      </trkpt>
      <trkpt lat="43.628" lon="7.13378">
        <ele>-3.2300000190735</ele>
        <time>2010-11-14T08:30:01Z</time>
      </trkpt>
      <trkpt lat="43.62778" lon="7.13372">
        <ele>-3.2300000190735</ele>
        <time>2010-11-14T08:30:07Z</time>
      </trkpt>
      <trkpt lat="43.62756" lon="7.13365">
        <ele>-2.75</ele>
        <time>2010-11-14T08:30:13Z</time>
      </trkpt>
      <trkpt lat="43.62732" lon="7.13355">
        <ele>-2.75</ele>
        <time>2010-11-14T08:30:20Z</time>
      </trkpt>
      <trkpt lat="43.627" lon="7.13343">
        <ele>-3.2300000190735</ele>
        <time>2010-11-14T08:30:29Z</time>
      </trkpt>
      <trkpt lat="43.62668" lon="7.13331">
        <ele>-3.2300000190735</ele>
        <time>2010-11-14T08:30:38Z</time>
      </trkpt>
      <trkpt lat="43.62641" lon="7.13318">
        <ele>-3.2300000190735</ele>
        <time>2010-11-14T08:30:46Z</time>
      </trkpt>
      <trkpt lat="43.62613" lon="7.13307">
        <ele>-3.2300000190735</ele>
        <time>2010-11-14T08:30:54Z</time>
      </trkpt>
      <trkpt lat="43.62589" lon="7.13299">
        <ele>-3.2300000190735</ele>
        <time>2010-11-14T08:31:01Z</time>
      </trkpt>
      <trkpt lat="43.62565" lon="7.13287">
        <ele>-3.710000038147</ele>
        <time>2010-11-14T08:31:08Z</time>
      </trkpt>
      <trkpt lat="43.62544" lon="7.13279">
        <ele>-3.710000038147</ele>
        <time>2010-11-14T08:31:14Z</time>
      </trkpt>
      <trkpt lat="43.62524" lon="7.13269">
        <ele>-3.710000038147</ele>
        <time>2010-11-14T08:31:20Z</time>
      </trkpt>
      <trkpt lat="43.62489" lon="7.13253">
        <ele>-3.710000038147</ele>
        <time>2010-11-14T08:31:30Z</time>
      </trkpt>
      <trkpt lat="43.62457" lon="7.1324">
        <ele>-3.2300000190735</ele>
        <time>2010-11-14T08:31:39Z</time>
      </trkpt>
      <trkpt lat="43.62434" lon="7.13231">
        <ele>-2.75</ele>
        <time>2010-11-14T08:31:46Z</time>
      </trkpt>
      <trkpt lat="43.6243" lon="7.1323">
        <ele>-4.1900000572205</ele>
        <time>2010-11-14T08:31:47Z</time>
      </trkpt>
      <trkpt lat="43.62398" lon="7.13219">
        <ele>-2.2699999809265</ele>
        <time>2010-11-14T08:31:56Z</time>
      </trkpt>
      <trkpt lat="43.62374" lon="7.13208">
        <ele>-2.75</ele>
        <time>2010-11-14T08:32:03Z</time>
      </trkpt>
      <trkpt lat="43.62354" lon="7.13199">
        <ele>-3.2300000190735</ele>
        <time>2010-11-14T08:32:09Z</time>
      </trkpt>
      <trkpt lat="43.62334" lon="7.1319">
        <ele>-3.2300000190735</ele>
        <time>2010-11-14T08:32:15Z</time>
      </trkpt>
      <trkpt lat="43.623" lon="7.13174">
        <ele>-3.2300000190735</ele>
        <time>2010-11-14T08:32:25Z</time>
      </trkpt>
      <trkpt lat="43.62269" lon="7.1316">
        <ele>-3.2300000190735</ele>
        <time>2010-11-14T08:32:34Z</time>
      </trkpt>
      <trkpt lat="43.62227" lon="7.13144">
        <ele>-3.2300000190735</ele>
        <time>2010-11-14T08:32:46Z</time>
      </trkpt>
      <trkpt lat="43.62185" lon="7.13126">
        <ele>-3.2300000190735</ele>
        <time>2010-11-14T08:32:58Z</time>
      </trkpt>
      <trkpt lat="43.62142" lon="7.13103">
        <ele>-3.2300000190735</ele>
        <time>2010-11-14T08:33:11Z</time>
      </trkpt>
      <trkpt lat="43.62104" lon="7.13089">
        <ele>-2.75</ele>
        <time>2010-11-14T08:33:22Z</time>
      </trkpt>
      <trkpt lat="43.62067" lon="7.13073">
        <ele>-3.710000038147</ele>
        <time>2010-11-14T08:33:33Z</time>
      </trkpt>
      <trkpt lat="43.62032" lon="7.13055">
        <ele>-4.1900000572205</ele>
        <time>2010-11-14T08:33:43Z</time>
      </trkpt>
      <trkpt lat="43.62009" lon="7.13046">
        <ele>-3.2300000190735</ele>
        <time>2010-11-14T08:33:50Z</time>
      </trkpt>
      <trkpt lat="43.61984" lon="7.13036">
        <ele>-4.1900000572205</ele>
        <time>2010-11-14T08:33:57Z</time>
      </trkpt>
      <trkpt lat="43.61961" lon="7.13026">
        <ele>-3.2300000190735</ele>
        <time>2010-11-14T08:34:04Z</time>
      </trkpt>
      <trkpt lat="43.61942" lon="7.13016">
        <ele>-3.710000038147</ele>
        <time>2010-11-14T08:34:10Z</time>
      </trkpt>
      <trkpt lat="43.61921" lon="7.13007">
        <ele>-3.2300000190735</ele>
        <time>2010-11-14T08:34:16Z</time>
      </trkpt>
      <trkpt lat="43.61897" lon="7.12995">
        <ele>-3.710000038147</ele>
        <time>2010-11-14T08:34:23Z</time>
      </trkpt>
      <trkpt lat="43.61893" lon="7.12994">
        <ele>-4.1900000572205</ele>
        <time>2010-11-14T08:34:24Z</time>
      </trkpt>
      <trkpt lat="43.61872" lon="7.12986">
        <ele>-4.1900000572205</ele>
        <time>2010-11-14T08:34:30Z</time>
      </trkpt>
      <trkpt lat="43.61847" lon="7.12978">
        <ele>-4.1900000572205</ele>
        <time>2010-11-14T08:34:37Z</time>
      </trkpt>
      <trkpt lat="43.61829" lon="7.12971">
        <ele>-3.710000038147</ele>
        <time>2010-11-14T08:34:42Z</time>
      </trkpt>
      <trkpt lat="43.618" lon="7.12962">
        <ele>-3.2300000190735</ele>
        <time>2010-11-14T08:34:50Z</time>
      </trkpt>
      <trkpt lat="43.61786" lon="7.12958">
        <ele>-3.710000038147</ele>
        <time>2010-11-14T08:34:54Z</time>
      </trkpt>
      <trkpt lat="43.61771" lon="7.12953">
        <ele>-4.1900000572205</ele>
        <time>2010-11-14T08:34:58Z</time>
      </trkpt>
      <trkpt lat="43.61754" lon="7.12945">
        <ele>-4.1900000572205</ele>
        <time>2010-11-14T08:35:03Z</time>
      </trkpt>
      <trkpt lat="43.61744" lon="7.12941">
        <ele>-4.1900000572205</ele>
        <time>2010-11-14T08:35:06Z</time>
      </trkpt>
      <trkpt lat="43.6172" lon="7.12932">
        <ele>-3.710000038147</ele>
        <time>2010-11-14T08:35:13Z</time>
      </trkpt>
      <trkpt lat="43.617" lon="7.1292">
        <ele>-3.710000038147</ele>
        <time>2010-11-14T08:35:19Z</time>
      </trkpt>
      <trkpt lat="43.61696" lon="7.12919">
        <ele>-4.6700000762939</ele>
        <time>2010-11-14T08:35:20Z</time>
      </trkpt>
      <trkpt lat="43.61667" lon="7.12908">
        <ele>-3.710000038147</ele>
        <time>2010-11-14T08:35:28Z</time>
      </trkpt>
      <trkpt lat="43.61643" lon="7.12898">
        <ele>-4.1900000572205</ele>
        <time>2010-11-14T08:35:35Z</time>
      </trkpt>
      <trkpt lat="43.61607" lon="7.12878">
        <ele>-4.1900000572205</ele>
        <time>2010-11-14T08:35:46Z</time>
      </trkpt>
      <trkpt lat="43.61584" lon="7.12867">
        <ele>-3.710000038147</ele>
        <time>2010-11-14T08:35:53Z</time>
      </trkpt>
      <trkpt lat="43.6156" lon="7.12856">
        <ele>-4.1900000572205</ele>
        <time>2010-11-14T08:36:00Z</time>
      </trkpt>
      <trkpt lat="43.61543" lon="7.12848">
        <ele>-4.1900000572205</ele>
        <time>2010-11-14T08:36:05Z</time>
      </trkpt>
      <trkpt lat="43.61523" lon="7.12841">
        <ele>-3.2300000190735</ele>
        <time>2010-11-14T08:36:11Z</time>
      </trkpt>
      <trkpt lat="43.61499" lon="7.1283">
        <ele>-4.6700000762939</ele>
        <time>2010-11-14T08:36:18Z</time>
      </trkpt>
      <trkpt lat="43.61478" lon="7.12821">
        <ele>-4.6700000762939</ele>
        <time>2010-11-14T08:36:24Z</time>
      </trkpt>
      <trkpt lat="43.61456" lon="7.12812">
        <ele>-4.1900000572205</ele>
        <time>2010-11-14T08:36:30Z</time>
      </trkpt>
      <trkpt lat="43.61435" lon="7.12803">
        <ele>-4.6700000762939</ele>
        <time>2010-11-14T08:36:36Z</time>
      </trkpt>
      <trkpt lat="43.61411" lon="7.12793">
        <ele>-4.1900000572205</ele>
        <time>2010-11-14T08:36:43Z</time>
      </trkpt>
      <trkpt lat="43.61375" lon="7.12776">
        <ele>-4.1900000572205</ele>
        <time>2010-11-14T08:36:54Z</time>
      </trkpt>
      <trkpt lat="43.61369" lon="7.12772">
        <ele>-4.1900000572205</ele>
        <time>2010-11-14T08:36:56Z</time>
      </trkpt>
      <trkpt lat="43.61356" lon="7.12768">
        <ele>-4.6700000762939</ele>
        <time>2010-11-14T08:37:00Z</time>
      </trkpt>
      <trkpt lat="43.61329" lon="7.12757">
        <ele>-3.710000038147</ele>
        <time>2010-11-14T08:37:08Z</time>
      </trkpt>
      <trkpt lat="43.61322" lon="7.12754">
        <ele>-4.1900000572205</ele>
        <time>2010-11-14T08:37:10Z</time>
      </trkpt>
      <trkpt lat="43.61303" lon="7.1275">
        <ele>-4.1900000572205</ele>
        <time>2010-11-14T08:37:15Z</time>
      </trkpt>
      <trkpt lat="43.61286" lon="7.12745">
        <ele>-4.6700000762939</ele>
        <time>2010-11-14T08:37:20Z</time>
      </trkpt>
      <trkpt lat="43.61279" lon="7.12743">
        <ele>-4.6700000762939</ele>
        <time>2010-11-14T08:37:22Z</time>
      </trkpt>
      <trkpt lat="43.61258" lon="7.12734">
        <ele>-5.1500000953674</ele>
        <time>2010-11-14T08:37:28Z</time>
      </trkpt>
      <trkpt lat="43.61232" lon="7.12726">
        <ele>-5.1500000953674</ele>
        <time>2010-11-14T08:37:35Z</time>
      </trkpt>
      <trkpt lat="43.61197" lon="7.12713">
        <ele>-5.1500000953674</ele>
        <time>2010-11-14T08:37:45Z</time>
      </trkpt>
      <trkpt lat="43.61155" lon="7.127">
        <ele>-4.6700000762939</ele>
        <time>2010-11-14T08:37:57Z</time>
      </trkpt>
      <trkpt lat="43.61122" lon="7.1269">
        <ele>-4.6700000762939</ele>
        <time>2010-11-14T08:38:07Z</time>
      </trkpt>
      <trkpt lat="43.61118" lon="7.12689">
        <ele>-4.6700000762939</ele>
        <time>2010-11-14T08:38:08Z</time>
      </trkpt>
      <trkpt lat="43.61089" lon="7.12677">
        <ele>-5.1500000953674</ele>
        <time>2010-11-14T08:38:17Z</time>
      </trkpt>
      <trkpt lat="43.61057" lon="7.12661">
        <ele>-4.1900000572205</ele>
        <time>2010-11-14T08:38:26Z</time>
      </trkpt>
      <trkpt lat="43.61032" lon="7.12646">
        <ele>-4.1900000572205</ele>
        <time>2010-11-14T08:38:34Z</time>
      </trkpt>
      <trkpt lat="43.61008" lon="7.12641">
        <ele>-3.710000038147</ele>
        <time>2010-11-14T08:38:41Z</time>
      </trkpt>
      <trkpt lat="43.6097" lon="7.12626">
        <ele>-3.710000038147</ele>
        <time>2010-11-14T08:38:52Z</time>
      </trkpt>
      <trkpt lat="43.60946" lon="7.12616">
        <ele>-2.75</ele>
        <time>2010-11-14T08:38:59Z</time>
      </trkpt>
      <trkpt lat="43.60929" lon="7.12609">
        <ele>-3.2300000190735</ele>
        <time>2010-11-14T08:39:04Z</time>
      </trkpt>
      <trkpt lat="43.60915" lon="7.12604">
        <ele>-2.2699999809265</ele>
        <time>2010-11-14T08:39:08Z</time>
      </trkpt>
      <trkpt lat="43.60883" lon="7.12598">
        <ele>-1.789999961853</ele>
        <time>2010-11-14T08:39:17Z</time>
      </trkpt>
      <trkpt lat="43.60854" lon="7.12591">
        <ele>-2.75</ele>
        <time>2010-11-14T08:39:25Z</time>
      </trkpt>
      <trkpt lat="43.60841" lon="7.12588">
        <ele>-1.789999961853</ele>
        <time>2010-11-14T08:39:29Z</time>
      </trkpt>
      <trkpt lat="43.60816" lon="7.12583">
        <ele>-1.789999961853</ele>
        <time>2010-11-14T08:39:36Z</time>
      </trkpt>
      <trkpt lat="43.60794" lon="7.12577">
        <ele>-2.2699999809265</ele>
        <time>2010-11-14T08:39:42Z</time>
      </trkpt>
      <trkpt lat="43.60762" lon="7.12571">
        <ele>-3.2300000190735</ele>
        <time>2010-11-14T08:39:51Z</time>
      </trkpt>
      <trkpt lat="43.60727" lon="7.12566">
        <ele>-2.75</ele>
        <time>2010-11-14T08:40:01Z</time>
      </trkpt>
      <trkpt lat="43.60716" lon="7.12565">
        <ele>-3.2300000190735</ele>
        <time>2010-11-14T08:40:04Z</time>
      </trkpt>
      <trkpt lat="43.60686" lon="7.1256">
        <ele>-3.710000038147</ele>
        <time>2010-11-14T08:40:12Z</time>
      </trkpt>
      <trkpt lat="43.60661" lon="7.12558">
        <ele>-3.2300000190735</ele>
        <time>2010-11-14T08:40:19Z</time>
      </trkpt>
      <trkpt lat="43.60637" lon="7.12553">
        <ele>-3.2300000190735</ele>
        <time>2010-11-14T08:40:26Z</time>
      </trkpt>
      <trkpt lat="43.60615" lon="7.12553">
        <ele>-3.710000038147</ele>
        <time>2010-11-14T08:40:32Z</time>
      </trkpt>
      <trkpt lat="43.60582" lon="7.12553">
        <ele>-4.1900000572205</ele>
        <time>2010-11-14T08:40:41Z</time>
      </trkpt>
      <trkpt lat="43.60546" lon="7.1255">
        <ele>-3.710000038147</ele>
        <time>2010-11-14T08:40:51Z</time>
      </trkpt>
      <trkpt lat="43.60523" lon="7.12551">
        <ele>-4.1900000572205</ele>
        <time>2010-11-14T08:40:58Z</time>
      </trkpt>
      <trkpt lat="43.60508" lon="7.12551">
        <ele>-3.710000038147</ele>
        <time>2010-11-14T08:41:02Z</time>
      </trkpt>
      <trkpt lat="43.60487" lon="7.1255">
        <ele>-3.710000038147</ele>
        <time>2010-11-14T08:41:08Z</time>
      </trkpt>
      <trkpt lat="43.60442" lon="7.12548">
        <ele>-3.710000038147</ele>
        <time>2010-11-14T08:41:20Z</time>
      </trkpt>
      <trkpt lat="43.60421" lon="7.12547">
        <ele>-3.2300000190735</ele>
        <time>2010-11-14T08:41:26Z</time>
      </trkpt>
      <trkpt lat="43.60394" lon="7.12549">
        <ele>-4.1900000572205</ele>
        <time>2010-11-14T08:41:34Z</time>
      </trkpt>
      <trkpt lat="43.60371" lon="7.12551">
        <ele>-4.1900000572205</ele>
        <time>2010-11-14T08:41:40Z</time>
      </trkpt>
      <trkpt lat="43.60348" lon="7.12552">
        <ele>-4.1900000572205</ele>
        <time>2010-11-14T08:41:46Z</time>
      </trkpt>
      <trkpt lat="43.6032" lon="7.1255">
        <ele>-3.710000038147</ele>
        <time>2010-11-14T08:41:54Z</time>
      </trkpt>
      <trkpt lat="43.60297" lon="7.1255">
        <ele>-4.6700000762939</ele>
        <time>2010-11-14T08:42:00Z</time>
      </trkpt>
      <trkpt lat="43.60263" lon="7.1255">
        <ele>-4.1900000572205</ele>
        <time>2010-11-14T08:42:10Z</time>
      </trkpt>
      <trkpt lat="43.60236" lon="7.12548">
        <ele>-4.1900000572205</ele>
        <time>2010-11-14T08:42:18Z</time>
      </trkpt>
      <trkpt lat="43.60215" lon="7.12547">
        <ele>-3.710000038147</ele>
        <time>2010-11-14T08:42:24Z</time>
      </trkpt>
      <trkpt lat="43.60193" lon="7.12546">
        <ele>-3.710000038147</ele>
        <time>2010-11-14T08:42:30Z</time>
      </trkpt>
      <trkpt lat="43.60167" lon="7.12547">
        <ele>-4.1900000572205</ele>
        <time>2010-11-14T08:42:37Z</time>
      </trkpt>
      <trkpt lat="43.60131" lon="7.12547">
        <ele>-3.2300000190735</ele>
        <time>2010-11-14T08:42:47Z</time>
      </trkpt>
      <trkpt lat="43.60128" lon="7.12548">
        <ele>-4.6700000762939</ele>
        <time>2010-11-14T08:42:48Z</time>
      </trkpt>
      <trkpt lat="43.6011" lon="7.12548">
        <ele>-4.1900000572205</ele>
        <time>2010-11-14T08:42:53Z</time>
      </trkpt>
      <trkpt lat="43.60078" lon="7.12545">
        <ele>-4.1900000572205</ele>
        <time>2010-11-14T08:43:02Z</time>
      </trkpt>
      <trkpt lat="43.60056" lon="7.12544">
        <ele>-4.1900000572205</ele>
        <time>2010-11-14T08:43:08Z</time>
      </trkpt>
      <trkpt lat="43.60034" lon="7.12545">
        <ele>-3.710000038147</ele>
        <time>2010-11-14T08:43:14Z</time>
      </trkpt>
      <trkpt lat="43.60008" lon="7.12546">
        <ele>-4.1900000572205</ele>
        <time>2010-11-14T08:43:21Z</time>
      </trkpt>
      <trkpt lat="43.5997" lon="7.12548">
        <ele>-3.710000038147</ele>
        <time>2010-11-14T08:43:32Z</time>
      </trkpt>
      <trkpt lat="43.59945" lon="7.12546">
        <ele>-3.710000038147</ele>
        <time>2010-11-14T08:43:39Z</time>
      </trkpt>
      <trkpt lat="43.59922" lon="7.12544">
        <ele>-3.710000038147</ele>
        <time>2010-11-14T08:43:45Z</time>
      </trkpt>
      <trkpt lat="43.59899" lon="7.12543">
        <ele>-5.1500000953674</ele>
        <time>2010-11-14T08:43:51Z</time>
      </trkpt>
      <trkpt lat="43.59858" lon="7.12539">
        <ele>-5.6300001144409</ele>
        <time>2010-11-14T08:44:02Z</time>
      </trkpt>
      <trkpt lat="43.59831" lon="7.12539">
        <ele>-4.6700000762939</ele>
        <time>2010-11-14T08:44:10Z</time>
      </trkpt>
      <trkpt lat="43.59831" lon="7.12539">
        <ele>-4.6700000762939</ele>
        <time>2010-11-14T08:44:10Z</time>
      </trkpt>
      <trkpt lat="43.59809" lon="7.1254">
        <ele>-5.1500000953674</ele>
        <time>2010-11-14T08:44:16Z</time>
      </trkpt>
      <trkpt lat="43.59787" lon="7.12541">
        <ele>-5.1500000953674</ele>
        <time>2010-11-14T08:44:22Z</time>
      </trkpt>
      <trkpt lat="43.59755" lon="7.12542">
        <ele>-4.6700000762939</ele>
        <time>2010-11-14T08:44:31Z</time>
      </trkpt>
      <trkpt lat="43.59717" lon="7.12537">
        <ele>-4.6700000762939</ele>
        <time>2010-11-14T08:44:42Z</time>
      </trkpt>
      <trkpt lat="43.59677" lon="7.12538">
        <ele>-4.6700000762939</ele>
        <time>2010-11-14T08:44:53Z</time>
      </trkpt>
      <trkpt lat="43.59638" lon="7.12537">
        <ele>-5.6300001144409</ele>
        <time>2010-11-14T08:45:04Z</time>
      </trkpt>
      <trkpt lat="43.5958" lon="7.12538">
        <ele>-5.1500000953674</ele>
        <time>2010-11-14T08:45:20Z</time>
      </trkpt>
      <trkpt lat="43.59551" lon="7.1254">
        <ele>-5.1500000953674</ele>
        <time>2010-11-14T08:45:28Z</time>
      </trkpt>
      <trkpt lat="43.59533" lon="7.12541">
        <ele>-5.1500000953674</ele>
        <time>2010-11-14T08:45:33Z</time>
      </trkpt>
      <trkpt lat="43.59509" lon="7.12541">
        <ele>-5.6300001144409</ele>
        <time>2010-11-14T08:45:40Z</time>
      </trkpt>
      <trkpt lat="43.59489" lon="7.12541">
        <ele>-5.6300001144409</ele>
        <time>2010-11-14T08:45:46Z</time>
      </trkpt>
      <trkpt lat="43.59467" lon="7.12539">
        <ele>-4.6700000762939</ele>
        <time>2010-11-14T08:45:52Z</time>
      </trkpt>
      <trkpt lat="43.59443" lon="7.12537">
        <ele>-5.1500000953674</ele>
        <time>2010-11-14T08:45:59Z</time>
      </trkpt>
      <trkpt lat="43.59419" lon="7.12534">
        <ele>-4.1900000572205</ele>
        <time>2010-11-14T08:46:06Z</time>
      </trkpt>
      <trkpt lat="43.5939" lon="7.12531">
        <ele>-5.1500000953674</ele>
        <time>2010-11-14T08:46:14Z</time>
      </trkpt>
      <trkpt lat="43.59367" lon="7.12533">
        <ele>-4.6700000762939</ele>
        <time>2010-11-14T08:46:21Z</time>
      </trkpt>
      <trkpt lat="43.59346" lon="7.12529">
        <ele>-5.1500000953674</ele>
        <time>2010-11-14T08:46:27Z</time>
      </trkpt>
      <trkpt lat="43.59324" lon="7.12527">
        <ele>-4.1900000572205</ele>
        <time>2010-11-14T08:46:33Z</time>
      </trkpt>
      <trkpt lat="43.59302" lon="7.12526">
        <ele>-4.1900000572205</ele>
        <time>2010-11-14T08:46:39Z</time>
      </trkpt>
      <trkpt lat="43.5928" lon="7.12524">
        <ele>-3.710000038147</ele>
        <time>2010-11-14T08:46:45Z</time>
      </trkpt>
      <trkpt lat="43.59256" lon="7.12519">
        <ele>-3.710000038147</ele>
        <time>2010-11-14T08:46:52Z</time>
      </trkpt>
      <trkpt lat="43.59243" lon="7.12513">
        <ele>-4.1900000572205</ele>
        <time>2010-11-14T08:46:56Z</time>
      </trkpt>
      <trkpt lat="43.59211" lon="7.12494">
        <ele>-3.710000038147</ele>
        <time>2010-11-14T08:47:06Z</time>
      </trkpt>
      <trkpt lat="43.59179" lon="7.12471">
        <ele>-3.710000038147</ele>
        <time>2010-11-14T08:47:17Z</time>
      </trkpt>
      <trkpt lat="43.59174" lon="7.12468">
        <ele>-3.710000038147</ele>
        <time>2010-11-14T08:47:19Z</time>
      </trkpt>
      <trkpt lat="43.59154" lon="7.12456">
        <ele>-4.1900000572205</ele>
        <time>2010-11-14T08:47:25Z</time>
      </trkpt>
      <trkpt lat="43.5913" lon="7.12443">
        <ele>-4.1900000572205</ele>
        <time>2010-11-14T08:47:32Z</time>
      </trkpt>
      <trkpt lat="43.59103" lon="7.12435">
        <ele>-4.1900000572205</ele>
        <time>2010-11-14T08:47:40Z</time>
      </trkpt>
      <trkpt lat="43.59073" lon="7.12437">
        <ele>-4.1900000572205</ele>
        <time>2010-11-14T08:47:48Z</time>
      </trkpt>
      <trkpt lat="43.59069" lon="7.12438">
        <ele>-4.1900000572205</ele>
        <time>2010-11-14T08:47:49Z</time>
      </trkpt>
      <trkpt lat="43.59035" lon="7.12443">
        <ele>-5.1500000953674</ele>
        <time>2010-11-14T08:47:58Z</time>
      </trkpt>
      <trkpt lat="43.5901" lon="7.12442">
        <ele>-5.6300001144409</ele>
        <time>2010-11-14T08:48:06Z</time>
      </trkpt>
      <trkpt lat="43.58986" lon="7.1243">
        <ele>-6.1100001335144</ele>
        <time>2010-11-14T08:48:14Z</time>
      </trkpt>
      <trkpt lat="43.58957" lon="7.12396">
        <ele>-6.5900001525879</ele>
        <time>2010-11-14T08:48:23Z</time>
      </trkpt>
      <trkpt lat="43.58931" lon="7.12365">
        <ele>-6.5900001525879</ele>
        <time>2010-11-14T08:48:32Z</time>
      </trkpt>
      <trkpt lat="43.58911" lon="7.12328">
        <ele>-6.1100001335144</ele>
        <time>2010-11-14T08:48:41Z</time>
      </trkpt>
      <trkpt lat="43.58893" lon="7.12283">
        <ele>-7.0700001716614</ele>
        <time>2010-11-14T08:48:51Z</time>
      </trkpt>
      <trkpt lat="43.58873" lon="7.12244">
        <ele>-6.5900001525879</ele>
        <time>2010-11-14T08:49:01Z</time>
      </trkpt>
      <trkpt lat="43.58863" lon="7.1223">
        <ele>-6.5900001525879</ele>
        <time>2010-11-14T08:49:05Z</time>
      </trkpt>
      <trkpt lat="43.58841" lon="7.12206">
        <ele>-7.0700001716614</ele>
        <time>2010-11-14T08:49:13Z</time>
      </trkpt>
      <trkpt lat="43.58818" lon="7.12182">
        <ele>-6.1100001335144</ele>
        <time>2010-11-14T08:49:21Z</time>
      </trkpt>
      <trkpt lat="43.58812" lon="7.12176">
        <ele>-6.5900001525879</ele>
        <time>2010-11-14T08:49:23Z</time>
      </trkpt>
      <trkpt lat="43.58794" lon="7.1216">
        <ele>-6.1100001335144</ele>
        <time>2010-11-14T08:49:29Z</time>
      </trkpt>
      <trkpt lat="43.58771" lon="7.12142">
        <ele>-6.1100001335144</ele>
        <time>2010-11-14T08:49:37Z</time>
      </trkpt>
      <trkpt lat="43.58735" lon="7.12121">
        <ele>-5.6300001144409</ele>
        <time>2010-11-14T08:49:48Z</time>
      </trkpt>
      <trkpt lat="43.58722" lon="7.12116">
        <ele>-5.6300001144409</ele>
        <time>2010-11-14T08:49:52Z</time>
      </trkpt>
      <trkpt lat="43.58696" lon="7.12107">
        <ele>-5.1500000953674</ele>
        <time>2010-11-14T08:50:00Z</time>
      </trkpt>
      <trkpt lat="43.58672" lon="7.12099">
        <ele>-5.6300001144409</ele>
        <time>2010-11-14T08:50:07Z</time>
      </trkpt>
      <trkpt lat="43.58646" lon="7.12093">
        <ele>-5.6300001144409</ele>
        <time>2010-11-14T08:50:15Z</time>
      </trkpt>
      <trkpt lat="43.58619" lon="7.12093">
        <ele>-5.1500000953674</ele>
        <time>2010-11-14T08:50:22Z</time>
      </trkpt>
      <trkpt lat="43.58593" lon="7.12096">
        <ele>-5.1500000953674</ele>
        <time>2010-11-14T08:50:29Z</time>
      </trkpt>
      <trkpt lat="43.58567" lon="7.12103">
        <ele>-5.6300001144409</ele>
        <time>2010-11-14T08:50:36Z</time>
      </trkpt>
      <trkpt lat="43.58538" lon="7.12114">
        <ele>-5.6300001144409</ele>
        <time>2010-11-14T08:50:44Z</time>
      </trkpt>
      <trkpt lat="43.58514" lon="7.12129">
        <ele>-5.1500000953674</ele>
        <time>2010-11-14T08:50:51Z</time>
      </trkpt>
      <trkpt lat="43.58477" lon="7.12151">
        <ele>-5.6300001144409</ele>
        <time>2010-11-14T08:51:02Z</time>
      </trkpt>
      <trkpt lat="43.5847" lon="7.12158">
        <ele>-5.6300001144409</ele>
        <time>2010-11-14T08:51:05Z</time>
      </trkpt>
      <trkpt lat="43.58457" lon="7.12192">
        <ele>-5.6300001144409</ele>
        <time>2010-11-14T08:51:13Z</time>
      </trkpt>
      <trkpt lat="43.58438" lon="7.12227">
        <ele>-5.6300001144409</ele>
        <time>2010-11-14T08:51:22Z</time>
      </trkpt>
      <trkpt lat="43.58426" lon="7.12251">
        <ele>-6.5900001525879</ele>
        <time>2010-11-14T08:51:28Z</time>
      </trkpt>
      <trkpt lat="43.58418" lon="7.1228">
        <ele>-6.5900001525879</ele>
        <time>2010-11-14T08:51:34Z</time>
      </trkpt>
      <trkpt lat="43.58418" lon="7.12302">
        <ele>-7.0700001716614</ele>
        <time>2010-11-14T08:51:39Z</time>
      </trkpt>
      <trkpt lat="43.58416" lon="7.12317">
        <ele>-6.5900001525879</ele>
        <time>2010-11-14T08:51:42Z</time>
      </trkpt>
      <trkpt lat="43.58415" lon="7.12359">
        <ele>-6.5900001525879</ele>
        <time>2010-11-14T08:51:51Z</time>
      </trkpt>
      <trkpt lat="43.58413" lon="7.12398">
        <ele>-7.0700001716614</ele>
        <time>2010-11-14T08:51:59Z</time>
      </trkpt>
      <trkpt lat="43.5841" lon="7.12448">
        <ele>-6.5900001525879</ele>
        <time>2010-11-14T08:52:09Z</time>
      </trkpt>
      <trkpt lat="43.5841" lon="7.12472">
        <ele>-6.5900001525879</ele>
        <time>2010-11-14T08:52:14Z</time>
      </trkpt>
      <trkpt lat="43.58406" lon="7.12492">
        <ele>-6.5900001525879</ele>
        <time>2010-11-14T08:52:18Z</time>
      </trkpt>
      <trkpt lat="43.58402" lon="7.12532">
        <ele>-7.0700001716614</ele>
        <time>2010-11-14T08:52:26Z</time>
      </trkpt>
      <trkpt lat="43.58399" lon="7.12553">
        <ele>-7.0700001716614</ele>
        <time>2010-11-14T08:52:30Z</time>
      </trkpt>
      <trkpt lat="43.58387" lon="7.12609">
        <ele>-7.0700001716614</ele>
        <time>2010-11-14T08:52:42Z</time>
      </trkpt>
      <trkpt lat="43.58385" lon="7.12618">
        <ele>-6.5900001525879</ele>
        <time>2010-11-14T08:52:44Z</time>
      </trkpt>
      <trkpt lat="43.58382" lon="7.12651">
        <ele>-6.1100001335144</ele>
        <time>2010-11-14T08:52:51Z</time>
      </trkpt>
      <trkpt lat="43.58381" lon="7.12665">
        <ele>-7.0700001716614</ele>
        <time>2010-11-14T08:52:54Z</time>
      </trkpt>
      <trkpt lat="43.58377" lon="7.12685">
        <ele>-6.1100001335144</ele>
        <time>2010-11-14T08:52:58Z</time>
      </trkpt>
      <trkpt lat="43.5836" lon="7.12724">
        <ele>-6.5900001525879</ele>
        <time>2010-11-14T08:53:07Z</time>
      </trkpt>
      <trkpt lat="43.58345" lon="7.12744">
        <ele>-7.0700001716614</ele>
        <time>2010-11-14T08:53:13Z</time>
      </trkpt>
      <trkpt lat="43.58327" lon="7.12775">
        <ele>-6.5900001525879</ele>
        <time>2010-11-14T08:53:21Z</time>
      </trkpt>
      <trkpt lat="43.58317" lon="7.12788">
        <ele>-7.0700001716614</ele>
        <time>2010-11-14T08:53:25Z</time>
      </trkpt>
      <trkpt lat="43.58302" lon="7.12785">
        <ele>-6.5900001525879</ele>
        <time>2010-11-14T08:53:31Z</time>
      </trkpt>
      <trkpt lat="43.58291" lon="7.12781">
        <ele>-6.1100001335144</ele>
        <time>2010-11-14T08:53:35Z</time>
      </trkpt>
      <trkpt lat="43.58277" lon="7.12781">
        <ele>-6.1100001335144</ele>
        <time>2010-11-14T08:53:39Z</time>
      </trkpt>
      <trkpt lat="43.58263" lon="7.12793">
        <ele>-4.6700000762939</ele>
        <time>2010-11-14T08:53:44Z</time>
      </trkpt>
      <trkpt lat="43.58259" lon="7.1281">
        <ele>-2.75</ele>
        <time>2010-11-14T08:53:49Z</time>
      </trkpt>
      <trkpt lat="43.58255" lon="7.12824">
        <ele>-1.789999961853</ele>
        <time>2010-11-14T08:53:53Z</time>
      </trkpt>
      <trkpt lat="43.58244" lon="7.12834">
        <ele>-0.81999999284744</ele>
        <time>2010-11-14T08:53:56Z</time>
      </trkpt>
      <trkpt lat="43.58223" lon="7.12871">
        <ele>0.14000000059605</ele>
        <time>2010-11-14T08:54:06Z</time>
      </trkpt>
      <trkpt lat="43.58208" lon="7.12881">
        <ele>0.14000000059605</ele>
        <time>2010-11-14T08:54:11Z</time>
      </trkpt>
      <trkpt lat="43.58183" lon="7.12889">
        <ele>0.14000000059605</ele>
        <time>2010-11-14T08:54:20Z</time>
      </trkpt>
      <trkpt lat="43.58155" lon="7.12881">
        <ele>2.0599999427795</ele>
        <time>2010-11-14T08:54:28Z</time>
      </trkpt>
      <trkpt lat="43.5813" lon="7.12881">
        <ele>3.5</ele>
        <time>2010-11-14T08:54:36Z</time>
      </trkpt>
      <trkpt lat="43.58123" lon="7.12883">
        <ele>3.0199999809265</ele>
        <time>2010-11-14T08:54:38Z</time>
      </trkpt>
      <trkpt lat="43.58098" lon="7.12871">
        <ele>3.9800000190735</ele>
        <time>2010-11-14T08:54:46Z</time>
      </trkpt>
      <trkpt lat="43.58084" lon="7.12859">
        <ele>3.9800000190735</ele>
        <time>2010-11-14T08:54:51Z</time>
      </trkpt>
      <trkpt lat="43.58068" lon="7.12839">
        <ele>3.5</ele>
        <time>2010-11-14T08:54:57Z</time>
      </trkpt>
      <trkpt lat="43.58041" lon="7.12817">
        <ele>3.5</ele>
        <time>2010-11-14T08:55:06Z</time>
      </trkpt>
      <trkpt lat="43.58035" lon="7.12814">
        <ele>3.5</ele>
        <time>2010-11-14T08:55:08Z</time>
      </trkpt>
      <trkpt lat="43.58012" lon="7.12804">
        <ele>3.5</ele>
        <time>2010-11-14T08:55:15Z</time>
      </trkpt>
      <trkpt lat="43.57979" lon="7.12792">
        <ele>3.5</ele>
        <time>2010-11-14T08:55:24Z</time>
      </trkpt>
      <trkpt lat="43.57976" lon="7.1279">
        <ele>3.5</ele>
        <time>2010-11-14T08:55:25Z</time>
      </trkpt>
      <trkpt lat="43.57959" lon="7.12769">
        <ele>2.0599999427795</ele>
        <time>2010-11-14T08:55:32Z</time>
      </trkpt>
      <trkpt lat="43.57959" lon="7.1274">
        <ele>2.0599999427795</ele>
        <time>2010-11-14T08:55:38Z</time>
      </trkpt>
      <trkpt lat="43.57957" lon="7.12736">
        <ele>2.0599999427795</ele>
        <time>2010-11-14T08:55:39Z</time>
      </trkpt>
      <trkpt lat="43.57933" lon="7.12716">
        <ele>0.62000000476837</ele>
        <time>2010-11-14T08:55:46Z</time>
      </trkpt>
      <trkpt lat="43.57921" lon="7.12705">
        <ele>1.1000000238419</ele>
        <time>2010-11-14T08:55:50Z</time>
      </trkpt>
      <trkpt lat="43.57899" lon="7.12685">
        <ele>-0.34000000357628</ele>
        <time>2010-11-14T08:55:57Z</time>
      </trkpt>
      <trkpt lat="43.57874" lon="7.12663">
        <ele>-0.34000000357628</ele>
        <time>2010-11-14T08:56:05Z</time>
      </trkpt>
      <trkpt lat="43.57854" lon="7.12652">
        <ele>-0.34000000357628</ele>
        <time>2010-11-14T08:56:11Z</time>
      </trkpt>
      <trkpt lat="43.5784" lon="7.12645">
        <ele>-0.34000000357628</ele>
        <time>2010-11-14T08:56:15Z</time>
      </trkpt>
      <trkpt lat="43.57833" lon="7.12644">
        <ele>-0.34000000357628</ele>
        <time>2010-11-14T08:56:17Z</time>
      </trkpt>
      <trkpt lat="43.57813" lon="7.12632">
        <ele>-0.34000000357628</ele>
        <time>2010-11-14T08:56:23Z</time>
      </trkpt>
      <trkpt lat="43.57784" lon="7.12619">
        <ele>-1.789999961853</ele>
        <time>2010-11-14T08:56:31Z</time>
      </trkpt>
      <trkpt lat="43.57776" lon="7.1261">
        <ele>-2.2699999809265</ele>
        <time>2010-11-14T08:56:34Z</time>
      </trkpt>
      <trkpt lat="43.57764" lon="7.12554">
        <ele>-2.2699999809265</ele>
        <time>2010-11-14T08:56:45Z</time>
      </trkpt>
      <trkpt lat="43.57757" lon="7.12531">
        <ele>-3.2300000190735</ele>
        <time>2010-11-14T08:56:50Z</time>
      </trkpt>
      <trkpt lat="43.57743" lon="7.12535">
        <ele>-3.2300000190735</ele>
        <time>2010-11-14T08:56:55Z</time>
      </trkpt>
      <trkpt lat="43.57725" lon="7.12546">
        <ele>-3.710000038147</ele>
        <time>2010-11-14T08:57:00Z</time>
      </trkpt>
      <trkpt lat="43.57713" lon="7.12553">
        <ele>-4.1900000572205</ele>
        <time>2010-11-14T08:57:03Z</time>
      </trkpt>
      <trkpt lat="43.57685" lon="7.12564">
        <ele>-4.6700000762939</ele>
        <time>2010-11-14T08:57:11Z</time>
      </trkpt>
      <trkpt lat="43.57663" lon="7.12545">
        <ele>-4.6700000762939</ele>
        <time>2010-11-14T08:57:19Z</time>
      </trkpt>
      <trkpt lat="43.57657" lon="7.12527">
        <ele>-5.1500000953674</ele>
        <time>2010-11-14T08:57:23Z</time>
      </trkpt>
      <trkpt lat="43.57653" lon="7.12518">
        <ele>-5.6300001144409</ele>
        <time>2010-11-14T08:57:25Z</time>
      </trkpt>
      <trkpt lat="43.57638" lon="7.12501">
        <ele>-5.1500000953674</ele>
        <time>2010-11-14T08:57:30Z</time>
      </trkpt>
      <trkpt lat="43.57614" lon="7.12473">
        <ele>-5.1500000953674</ele>
        <time>2010-11-14T08:57:39Z</time>
      </trkpt>
      <trkpt lat="43.57583" lon="7.12444">
        <ele>-5.6300001144409</ele>
        <time>2010-11-14T08:57:49Z</time>
      </trkpt>
      <trkpt lat="43.57558" lon="7.1243">
        <ele>-6.5900001525879</ele>
        <time>2010-11-14T08:57:56Z</time>
      </trkpt>
      <trkpt lat="43.57531" lon="7.12418">
        <ele>-6.5900001525879</ele>
        <time>2010-11-14T08:58:04Z</time>
      </trkpt>
      <trkpt lat="43.57503" lon="7.12415">
        <ele>-8.0299997329712</ele>
        <time>2010-11-14T08:58:11Z</time>
      </trkpt>
      <trkpt lat="43.57482" lon="7.12412">
        <ele>-7.5500001907349</ele>
        <time>2010-11-14T08:58:17Z</time>
      </trkpt>
      <trkpt lat="43.57465" lon="7.12405">
        <ele>-7.5500001907349</ele>
        <time>2010-11-14T08:58:22Z</time>
      </trkpt>
      <trkpt lat="43.57451" lon="7.12399">
        <ele>-7.5500001907349</ele>
        <time>2010-11-14T08:58:26Z</time>
      </trkpt>
      <trkpt lat="43.57413" lon="7.12397">
        <ele>-7.5500001907349</ele>
        <time>2010-11-14T08:58:37Z</time>
      </trkpt>
      <trkpt lat="43.57386" lon="7.12403">
        <ele>-7.0700001716614</ele>
        <time>2010-11-14T08:58:47Z</time>
      </trkpt>
      <trkpt lat="43.5737" lon="7.12424">
        <ele>-8.0299997329712</ele>
        <time>2010-11-14T08:58:52Z</time>
      </trkpt>
      <trkpt lat="43.57357" lon="7.12449">
        <ele>-7.0700001716614</ele>
        <time>2010-11-14T08:58:57Z</time>
      </trkpt>
      <trkpt lat="43.57332" lon="7.12464">
        <ele>-7.0700001716614</ele>
        <time>2010-11-14T08:59:04Z</time>
      </trkpt>
      <trkpt lat="43.57302" lon="7.12485">
        <ele>-7.0700001716614</ele>
        <time>2010-11-14T08:59:13Z</time>
      </trkpt>
      <trkpt lat="43.57282" lon="7.12504">
        <ele>-8.0299997329712</ele>
        <time>2010-11-14T08:59:20Z</time>
      </trkpt>
      <trkpt lat="43.5727" lon="7.12516">
        <ele>-7.5500001907349</ele>
        <time>2010-11-14T08:59:24Z</time>
      </trkpt>
      <trkpt lat="43.57256" lon="7.1254">
        <ele>-8.0299997329712</ele>
        <time>2010-11-14T08:59:30Z</time>
      </trkpt>
      <trkpt lat="43.57243" lon="7.12578">
        <ele>-7.5500001907349</ele>
        <time>2010-11-14T08:59:39Z</time>
      </trkpt>
      <trkpt lat="43.57239" lon="7.1261">
        <ele>-7.5500001907349</ele>
        <time>2010-11-14T08:59:46Z</time>
      </trkpt>
      <trkpt lat="43.57237" lon="7.12647">
        <ele>-7.0700001716614</ele>
        <time>2010-11-14T08:59:54Z</time>
      </trkpt>
      <trkpt lat="43.57223" lon="7.1268">
        <ele>-6.1100001335144</ele>
        <time>2010-11-14T09:00:02Z</time>
      </trkpt>
      <trkpt lat="43.57215" lon="7.12693">
        <ele>-6.5900001525879</ele>
        <time>2010-11-14T09:00:06Z</time>
      </trkpt>
      <trkpt lat="43.57198" lon="7.1271">
        <ele>-7.0700001716614</ele>
        <time>2010-11-14T09:00:12Z</time>
      </trkpt>
      <trkpt lat="43.57167" lon="7.12737">
        <ele>-7.0700001716614</ele>
        <time>2010-11-14T09:00:22Z</time>
      </trkpt>
      <trkpt lat="43.57139" lon="7.12762">
        <ele>-7.0700001716614</ele>
        <time>2010-11-14T09:00:31Z</time>
      </trkpt>
      <trkpt lat="43.57117" lon="7.12779">
        <ele>-7.5500001907349</ele>
        <time>2010-11-14T09:00:38Z</time>
      </trkpt>
      <trkpt lat="43.57101" lon="7.12791">
        <ele>-7.0700001716614</ele>
        <time>2010-11-14T09:00:43Z</time>
      </trkpt>
      <trkpt lat="43.57077" lon="7.12814">
        <ele>-8.5100002288818</ele>
        <time>2010-11-14T09:00:51Z</time>
      </trkpt>
      <trkpt lat="43.57067" lon="7.12828">
        <ele>-8.0299997329712</ele>
        <time>2010-11-14T09:00:55Z</time>
      </trkpt>
      <trkpt lat="43.57041" lon="7.12855">
        <ele>-8.0299997329712</ele>
        <time>2010-11-14T09:01:04Z</time>
      </trkpt>
      <trkpt lat="43.57018" lon="7.12877">
        <ele>-8.0299997329712</ele>
        <time>2010-11-14T09:01:12Z</time>
      </trkpt>
      <trkpt lat="43.56987" lon="7.12908">
        <ele>-7.0700001716614</ele>
        <time>2010-11-14T09:01:23Z</time>
      </trkpt>
      <trkpt lat="43.56968" lon="7.12935">
        <ele>-7.5500001907349</ele>
        <time>2010-11-14T09:01:31Z</time>
      </trkpt>
      <trkpt lat="43.56961" lon="7.12947">
        <ele>-8.0299997329712</ele>
        <time>2010-11-14T09:01:34Z</time>
      </trkpt>
      <trkpt lat="43.56944" lon="7.12975">
        <ele>-8.0299997329712</ele>
        <time>2010-11-14T09:01:41Z</time>
      </trkpt>
      <trkpt lat="43.56931" lon="7.13004">
        <ele>-8.0299997329712</ele>
        <time>2010-11-14T09:01:48Z</time>
      </trkpt>
      <trkpt lat="43.56923" lon="7.1302">
        <ele>-7.0700001716614</ele>
        <time>2010-11-14T09:01:52Z</time>
      </trkpt>
      <trkpt lat="43.56903" lon="7.13076">
        <ele>-8.0299997329712</ele>
        <time>2010-11-14T09:02:04Z</time>
      </trkpt>
      <trkpt lat="43.56896" lon="7.13119">
        <ele>-7.5500001907349</ele>
        <time>2010-11-14T09:02:13Z</time>
      </trkpt>
      <trkpt lat="43.56897" lon="7.13139">
        <ele>-7.5500001907349</ele>
        <time>2010-11-14T09:02:17Z</time>
      </trkpt>
      <trkpt lat="43.5691" lon="7.13174">
        <ele>-6.5900001525879</ele>
        <time>2010-11-14T09:02:26Z</time>
      </trkpt>
      <trkpt lat="43.56927" lon="7.13202">
        <ele>-5.6300001144409</ele>
        <time>2010-11-14T09:02:35Z</time>
      </trkpt>
      <trkpt lat="43.56933" lon="7.13213">
        <ele>-5.1500000953674</ele>
        <time>2010-11-14T09:02:38Z</time>
      </trkpt>
      <trkpt lat="43.56953" lon="7.1325">
        <ele>-3.710000038147</ele>
        <time>2010-11-14T09:02:48Z</time>
      </trkpt>
      <trkpt lat="43.5696" lon="7.13265">
        <ele>-3.2300000190735</ele>
        <time>2010-11-14T09:02:52Z</time>
      </trkpt>
      <trkpt lat="43.56968" lon="7.13279">
        <ele>-2.75</ele>
        <time>2010-11-14T09:02:56Z</time>
      </trkpt>
      <trkpt lat="43.56988" lon="7.13312">
        <ele>-3.2300000190735</ele>
        <time>2010-11-14T09:03:05Z</time>
      </trkpt>
      <trkpt lat="43.57001" lon="7.13329">
        <ele>-3.2300000190735</ele>
        <time>2010-11-14T09:03:09Z</time>
      </trkpt>
      <trkpt lat="43.57" lon="7.1337">
        <ele>-4.1900000572205</ele>
        <time>2010-11-14T09:03:16Z</time>
      </trkpt>
      <trkpt lat="43.56997" lon="7.13387">
        <ele>-3.710000038147</ele>
        <time>2010-11-14T09:03:19Z</time>
      </trkpt>
      <trkpt lat="43.56992" lon="7.13407">
        <ele>-3.710000038147</ele>
        <time>2010-11-14T09:03:23Z</time>
      </trkpt>
      <trkpt lat="43.56984" lon="7.13449">
        <ele>-4.1900000572205</ele>
        <time>2010-11-14T09:03:32Z</time>
      </trkpt>
      <trkpt lat="43.56981" lon="7.13476">
        <ele>-5.1500000953674</ele>
        <time>2010-11-14T09:03:38Z</time>
      </trkpt>
      <trkpt lat="43.56982" lon="7.13504">
        <ele>-5.1500000953674</ele>
        <time>2010-11-14T09:03:44Z</time>
      </trkpt>
      <trkpt lat="43.56985" lon="7.13534">
        <ele>-5.6300001144409</ele>
        <time>2010-11-14T09:03:50Z</time>
      </trkpt>
      <trkpt lat="43.56987" lon="7.13554">
        <ele>-4.1900000572205</ele>
        <time>2010-11-14T09:03:54Z</time>
      </trkpt>
      <trkpt lat="43.56989" lon="7.13574">
        <ele>-3.2300000190735</ele>
        <time>2010-11-14T09:03:58Z</time>
      </trkpt>
      <trkpt lat="43.56995" lon="7.13614">
        <ele>-3.2300000190735</ele>
        <time>2010-11-14T09:04:07Z</time>
      </trkpt>
      <trkpt lat="43.56993" lon="7.13631">
        <ele>-1.789999961853</ele>
        <time>2010-11-14T09:04:11Z</time>
      </trkpt>
      <trkpt lat="43.56991" lon="7.13645">
        <ele>-1.2999999523163</ele>
        <time>2010-11-14T09:04:14Z</time>
      </trkpt>
      <trkpt lat="43.56988" lon="7.13655">
        <ele>-1.2999999523163</ele>
        <time>2010-11-14T09:04:16Z</time>
      </trkpt>
      <trkpt lat="43.56984" lon="7.13675">
        <ele>-1.2999999523163</ele>
        <time>2010-11-14T09:04:20Z</time>
      </trkpt>
      <trkpt lat="43.56981" lon="7.13718">
        <ele>-0.81999999284744</ele>
        <time>2010-11-14T09:04:29Z</time>
      </trkpt>
      <trkpt lat="43.5698" lon="7.13722">
        <ele>-1.789999961853</ele>
        <time>2010-11-14T09:04:30Z</time>
      </trkpt>
      <trkpt lat="43.56969" lon="7.13764">
        <ele>-2.2699999809265</ele>
        <time>2010-11-14T09:04:39Z</time>
      </trkpt>
      <trkpt lat="43.56974" lon="7.13791">
        <ele>-2.75</ele>
        <time>2010-11-14T09:04:45Z</time>
      </trkpt>
      <trkpt lat="43.5698" lon="7.13823">
        <ele>-3.710000038147</ele>
        <time>2010-11-14T09:04:51Z</time>
      </trkpt>
      <trkpt lat="43.56985" lon="7.13853">
        <ele>-3.2300000190735</ele>
        <time>2010-11-14T09:04:57Z</time>
      </trkpt>
      <trkpt lat="43.56988" lon="7.13863">
        <ele>-3.2300000190735</ele>
        <time>2010-11-14T09:04:59Z</time>
      </trkpt>
      <trkpt lat="43.56992" lon="7.13883">
        <ele>-3.710000038147</ele>
        <time>2010-11-14T09:05:03Z</time>
      </trkpt>
      <trkpt lat="43.5699" lon="7.13909">
        <ele>-3.2300000190735</ele>
        <time>2010-11-14T09:05:08Z</time>
      </trkpt>
      <trkpt lat="43.56976" lon="7.1396">
        <ele>-3.2300000190735</ele>
        <time>2010-11-14T09:05:19Z</time>
      </trkpt>
      <trkpt lat="43.56941" lon="7.13997">
        <ele>-1.789999961853</ele>
        <time>2010-11-14T09:05:31Z</time>
      </trkpt>
      <trkpt lat="43.56907" lon="7.13996">
        <ele>-1.2999999523163</ele>
        <time>2010-11-14T09:05:41Z</time>
      </trkpt>
      <trkpt lat="43.56892" lon="7.13981">
        <ele>-0.81999999284744</ele>
        <time>2010-11-14T09:05:46Z</time>
      </trkpt>
      <trkpt lat="43.56882" lon="7.13968">
        <ele>0.14000000059605</ele>
        <time>2010-11-14T09:05:50Z</time>
      </trkpt>
      <trkpt lat="43.56868" lon="7.1394">
        <ele>0.14000000059605</ele>
        <time>2010-11-14T09:05:57Z</time>
      </trkpt>
      <trkpt lat="43.56864" lon="7.13928">
        <ele>0.62000000476837</ele>
        <time>2010-11-14T09:06:00Z</time>
      </trkpt>
      <trkpt lat="43.56855" lon="7.13906">
        <ele>0.14000000059605</ele>
        <time>2010-11-14T09:06:05Z</time>
      </trkpt>
      <trkpt lat="43.5685" lon="7.13893">
        <ele>1.1000000238419</ele>
        <time>2010-11-14T09:06:08Z</time>
      </trkpt>
      <trkpt lat="43.56833" lon="7.13862">
        <ele>1.1000000238419</ele>
        <time>2010-11-14T09:06:16Z</time>
      </trkpt>
      <trkpt lat="43.56816" lon="7.13839">
        <ele>1.1000000238419</ele>
        <time>2010-11-14T09:06:23Z</time>
      </trkpt>
      <trkpt lat="43.56805" lon="7.13828">
        <ele>2.0599999427795</ele>
        <time>2010-11-14T09:06:27Z</time>
      </trkpt>
      <trkpt lat="43.56784" lon="7.13805">
        <ele>2.0599999427795</ele>
        <time>2010-11-14T09:06:35Z</time>
      </trkpt>
      <trkpt lat="43.56767" lon="7.13788">
        <ele>1.5800000429153</ele>
        <time>2010-11-14T09:06:41Z</time>
      </trkpt>
      <trkpt lat="43.56747" lon="7.13767">
        <ele>2.0599999427795</ele>
        <time>2010-11-14T09:06:48Z</time>
      </trkpt>
      <trkpt lat="43.56712" lon="7.13748">
        <ele>2.539999961853</ele>
        <time>2010-11-14T09:06:59Z</time>
      </trkpt>
      <trkpt lat="43.56685" lon="7.13741">
        <ele>3.0199999809265</ele>
        <time>2010-11-14T09:07:07Z</time>
      </trkpt>
      <trkpt lat="43.56664" lon="7.13737">
        <ele>2.539999961853</ele>
        <time>2010-11-14T09:07:13Z</time>
      </trkpt>
      <trkpt lat="43.56636" lon="7.13728">
        <ele>2.539999961853</ele>
        <time>2010-11-14T09:07:21Z</time>
      </trkpt>
      <trkpt lat="43.56609" lon="7.13722">
        <ele>2.0599999427795</ele>
        <time>2010-11-14T09:07:29Z</time>
      </trkpt>
      <trkpt lat="43.56577" lon="7.13715">
        <ele>1.5800000429153</ele>
        <time>2010-11-14T09:07:37Z</time>
      </trkpt>
      <trkpt lat="43.56549" lon="7.13716">
        <ele>1.1000000238419</ele>
        <time>2010-11-14T09:07:45Z</time>
      </trkpt>
      <trkpt lat="43.56534" lon="7.13722">
        <ele>-0.34000000357628</ele>
        <time>2010-11-14T09:07:50Z</time>
      </trkpt>
      <trkpt lat="43.56513" lon="7.13733">
        <ele>-0.34000000357628</ele>
        <time>2010-11-14T09:07:56Z</time>
      </trkpt>
      <trkpt lat="43.56487" lon="7.13751">
        <ele>-0.34000000357628</ele>
        <time>2010-11-14T09:08:04Z</time>
      </trkpt>
      <trkpt lat="43.56462" lon="7.13767">
        <ele>-0.81999999284744</ele>
        <time>2010-11-14T09:08:11Z</time>
      </trkpt>
      <trkpt lat="43.56434" lon="7.13786">
        <ele>-1.789999961853</ele>
        <time>2010-11-14T09:08:20Z</time>
      </trkpt>
      <trkpt lat="43.56418" lon="7.13798">
        <ele>-1.2999999523163</ele>
        <time>2010-11-14T09:08:25Z</time>
      </trkpt>
      <trkpt lat="43.56404" lon="7.1381">
        <ele>-1.789999961853</ele>
        <time>2010-11-14T09:08:29Z</time>
      </trkpt>
      <trkpt lat="43.56368" lon="7.13829">
        <ele>-2.2699999809265</ele>
        <time>2010-11-14T09:08:40Z</time>
      </trkpt>
      <trkpt lat="43.56342" lon="7.13844">
        <ele>-2.2699999809265</ele>
        <time>2010-11-14T09:08:48Z</time>
      </trkpt>
      <trkpt lat="43.56322" lon="7.13857">
        <ele>-1.789999961853</ele>
        <time>2010-11-14T09:08:54Z</time>
      </trkpt>
      <trkpt lat="43.56308" lon="7.13865">
        <ele>-1.2999999523163</ele>
        <time>2010-11-14T09:08:58Z</time>
      </trkpt>
      <trkpt lat="43.56276" lon="7.13859">
        <ele>-1.2999999523163</ele>
        <time>2010-11-14T09:09:07Z</time>
      </trkpt>
      <trkpt lat="43.56244" lon="7.13835">
        <ele>-1.2999999523163</ele>
        <time>2010-11-14T09:09:17Z</time>
      </trkpt>
      <trkpt lat="43.56221" lon="7.13818">
        <ele>-1.2999999523163</ele>
        <time>2010-11-14T09:09:24Z</time>
      </trkpt>
      <trkpt lat="43.56217" lon="7.13815">
        <ele>-1.789999961853</ele>
        <time>2010-11-14T09:09:25Z</time>
      </trkpt>
      <trkpt lat="43.56196" lon="7.13799">
        <ele>-2.2699999809265</ele>
        <time>2010-11-14T09:09:32Z</time>
      </trkpt>
      <trkpt lat="43.56173" lon="7.13783">
        <ele>-1.789999961853</ele>
        <time>2010-11-14T09:09:39Z</time>
      </trkpt>
      <trkpt lat="43.5615" lon="7.13766">
        <ele>-1.2999999523163</ele>
        <time>2010-11-14T09:09:46Z</time>
      </trkpt>
      <trkpt lat="43.56131" lon="7.13742">
        <ele>-1.789999961853</ele>
        <time>2010-11-14T09:09:53Z</time>
      </trkpt>
      <trkpt lat="43.56119" lon="7.13725">
        <ele>-1.789999961853</ele>
        <time>2010-11-14T09:09:58Z</time>
      </trkpt>
      <trkpt lat="43.56107" lon="7.1371">
        <ele>-1.2999999523163</ele>
        <time>2010-11-14T09:10:02Z</time>
      </trkpt>
      <trkpt lat="43.56091" lon="7.13686">
        <ele>-2.2699999809265</ele>
        <time>2010-11-14T09:10:09Z</time>
      </trkpt>
      <trkpt lat="43.56079" lon="7.13673">
        <ele>-1.789999961853</ele>
        <time>2010-11-14T09:10:13Z</time>
      </trkpt>
      <trkpt lat="43.56058" lon="7.13655">
        <ele>-2.75</ele>
        <time>2010-11-14T09:10:20Z</time>
      </trkpt>
      <trkpt lat="43.56045" lon="7.13644">
        <ele>-2.75</ele>
        <time>2010-11-14T09:10:24Z</time>
      </trkpt>
      <trkpt lat="43.56027" lon="7.13631">
        <ele>-2.75</ele>
        <time>2010-11-14T09:10:30Z</time>
      </trkpt>
      <trkpt lat="43.55997" lon="7.13611">
        <ele>-2.75</ele>
        <time>2010-11-14T09:10:39Z</time>
      </trkpt>
      <trkpt lat="43.55991" lon="7.13605">
        <ele>-3.2300000190735</ele>
        <time>2010-11-14T09:10:41Z</time>
      </trkpt>
      <trkpt lat="43.5597" lon="7.13588">
        <ele>-3.710000038147</ele>
        <time>2010-11-14T09:10:48Z</time>
      </trkpt>
      <trkpt lat="43.55952" lon="7.13576">
        <ele>-3.2300000190735</ele>
        <time>2010-11-14T09:10:54Z</time>
      </trkpt>
      <trkpt lat="43.5593" lon="7.1356">
        <ele>-4.1900000572205</ele>
        <time>2010-11-14T09:11:00Z</time>
      </trkpt>
      <trkpt lat="43.55923" lon="7.13556">
        <ele>-4.6700000762939</ele>
        <time>2010-11-14T09:11:02Z</time>
      </trkpt>
      <trkpt lat="43.55908" lon="7.13543">
        <ele>-4.1900000572205</ele>
        <time>2010-11-14T09:11:07Z</time>
      </trkpt>
      <trkpt lat="43.55891" lon="7.1353">
        <ele>-3.710000038147</ele>
        <time>2010-11-14T09:11:13Z</time>
      </trkpt>
      <trkpt lat="43.55864" lon="7.13511">
        <ele>-4.1900000572205</ele>
        <time>2010-11-14T09:11:22Z</time>
      </trkpt>
      <trkpt lat="43.55847" lon="7.13493">
        <ele>-4.1900000572205</ele>
        <time>2010-11-14T09:11:29Z</time>
      </trkpt>
      <trkpt lat="43.55821" lon="7.13476">
        <ele>-4.1900000572205</ele>
        <time>2010-11-14T09:11:36Z</time>
      </trkpt>
      <trkpt lat="43.55797" lon="7.13465">
        <ele>-4.6700000762939</ele>
        <time>2010-11-14T09:11:43Z</time>
      </trkpt>
      <trkpt lat="43.55776" lon="7.13463">
        <ele>-3.710000038147</ele>
        <time>2010-11-14T09:11:49Z</time>
      </trkpt>
      <trkpt lat="43.5575" lon="7.13463">
        <ele>-4.1900000572205</ele>
        <time>2010-11-14T09:11:56Z</time>
      </trkpt>
      <trkpt lat="43.55718" lon="7.13465">
        <ele>-4.1900000572205</ele>
        <time>2010-11-14T09:12:05Z</time>
      </trkpt>
      <trkpt lat="43.55697" lon="7.13464">
        <ele>-4.1900000572205</ele>
        <time>2010-11-14T09:12:11Z</time>
      </trkpt>
      <trkpt lat="43.55676" lon="7.13467">
        <ele>-4.1900000572205</ele>
        <time>2010-11-14T09:12:17Z</time>
      </trkpt>
      <trkpt lat="43.55673" lon="7.13467">
        <ele>-3.710000038147</ele>
        <time>2010-11-14T09:12:18Z</time>
      </trkpt>
      <trkpt lat="43.55644" lon="7.13454">
        <ele>-4.1900000572205</ele>
        <time>2010-11-14T09:12:27Z</time>
      </trkpt>
      <trkpt lat="43.55624" lon="7.1343">
        <ele>-4.1900000572205</ele>
        <time>2010-11-14T09:12:35Z</time>
      </trkpt>
      <trkpt lat="43.55612" lon="7.13419">
        <ele>-3.710000038147</ele>
        <time>2010-11-14T09:12:39Z</time>
      </trkpt>
      <trkpt lat="43.55584" lon="7.1339">
        <ele>-3.2300000190735</ele>
        <time>2010-11-14T09:12:49Z</time>
      </trkpt>
      <trkpt lat="43.55581" lon="7.13387">
        <ele>-4.1900000572205</ele>
        <time>2010-11-14T09:12:50Z</time>
      </trkpt>
      <trkpt lat="43.5557" lon="7.13376">
        <ele>-3.710000038147</ele>
        <time>2010-11-14T09:12:54Z</time>
      </trkpt>
      <trkpt lat="43.55544" lon="7.13354">
        <ele>-3.2300000190735</ele>
        <time>2010-11-14T09:13:03Z</time>
      </trkpt>
      <trkpt lat="43.55521" lon="7.13335">
        <ele>-2.75</ele>
        <time>2010-11-14T09:13:11Z</time>
      </trkpt>
      <trkpt lat="43.55498" lon="7.13306">
        <ele>-1.2999999523163</ele>
        <time>2010-11-14T09:13:20Z</time>
      </trkpt>
      <trkpt lat="43.55474" lon="7.13284">
        <ele>1.1000000238419</ele>
        <time>2010-11-14T09:13:29Z</time>
      </trkpt>
      <trkpt lat="43.55472" lon="7.13281">
        <ele>0.62000000476837</ele>
        <time>2010-11-14T09:13:30Z</time>
      </trkpt>
      <trkpt lat="43.5546" lon="7.13271">
        <ele>1.5800000429153</ele>
        <time>2010-11-14T09:13:35Z</time>
      </trkpt>
      <trkpt lat="43.55451" lon="7.13264">
        <ele>2.0599999427795</ele>
        <time>2010-11-14T09:13:38Z</time>
      </trkpt>
      <trkpt lat="43.55433" lon="7.13245">
        <ele>3.5</ele>
        <time>2010-11-14T09:13:45Z</time>
      </trkpt>
      <trkpt lat="43.55416" lon="7.13224">
        <ele>5.4200000762939</ele>
        <time>2010-11-14T09:13:53Z</time>
      </trkpt>
      <trkpt lat="43.55399" lon="7.13195">
        <ele>6.3899998664856</ele>
        <time>2010-11-14T09:14:02Z</time>
      </trkpt>
      <trkpt lat="43.55385" lon="7.13168">
        <ele>7.3499999046326</ele>
        <time>2010-11-14T09:14:10Z</time>
      </trkpt>
      <trkpt lat="43.55372" lon="7.13142">
        <ele>9.2700004577637</ele>
        <time>2010-11-14T09:14:17Z</time>
      </trkpt>
      <trkpt lat="43.55365" lon="7.13126">
        <ele>9.2700004577637</ele>
        <time>2010-11-14T09:14:21Z</time>
      </trkpt>
      <trkpt lat="43.55357" lon="7.13106">
        <ele>9.75</ele>
        <time>2010-11-14T09:14:27Z</time>
      </trkpt>
      <trkpt lat="43.55346" lon="7.1308">
        <ele>11.189999580383</ele>
        <time>2010-11-14T09:14:34Z</time>
      </trkpt>
      <trkpt lat="43.55339" lon="7.13063">
        <ele>12.14999961853</ele>
        <time>2010-11-14T09:14:39Z</time>
      </trkpt>
      <trkpt lat="43.55328" lon="7.13025">
        <ele>13.60000038147</ele>
        <time>2010-11-14T09:14:48Z</time>
      </trkpt>
      <trkpt lat="43.55322" lon="7.12998">
        <ele>15.039999961853</ele>
        <time>2010-11-14T09:14:55Z</time>
      </trkpt>
      <trkpt lat="43.55321" lon="7.1299">
        <ele>15.520000457764</ele>
        <time>2010-11-14T09:14:57Z</time>
      </trkpt>
      <trkpt lat="43.55317" lon="7.12966">
        <ele>17.440000534058</ele>
        <time>2010-11-14T09:15:04Z</time>
      </trkpt>
      <trkpt lat="43.55308" lon="7.12945">
        <ele>18.39999961853</ele>
        <time>2010-11-14T09:15:09Z</time>
      </trkpt>
      <trkpt lat="43.55299" lon="7.1292">
        <ele>19.360000610352</ele>
        <time>2010-11-14T09:15:16Z</time>
      </trkpt>
      <trkpt lat="43.55294" lon="7.12913">
        <ele>19.840000152588</ele>
        <time>2010-11-14T09:15:20Z</time>
      </trkpt>
      <trkpt lat="43.55288" lon="7.12898">
        <ele>20.319999694824</ele>
        <time>2010-11-14T09:15:25Z</time>
      </trkpt>
      <trkpt lat="43.55253" lon="7.12884">
        <ele>20.809999465942</ele>
        <time>2010-11-14T09:15:35Z</time>
      </trkpt>
      <trkpt lat="43.55229" lon="7.12874">
        <ele>21.770000457764</ele>
        <time>2010-11-14T09:15:42Z</time>
      </trkpt>
      <trkpt lat="43.55218" lon="7.12872">
        <ele>21.290000915527</ele>
        <time>2010-11-14T09:15:45Z</time>
      </trkpt>
      <trkpt lat="43.55203" lon="7.12866">
        <ele>20.809999465942</ele>
        <time>2010-11-14T09:15:49Z</time>
      </trkpt>
      <trkpt lat="43.55183" lon="7.12848">
        <ele>21.770000457764</ele>
        <time>2010-11-14T09:15:56Z</time>
      </trkpt>
      <trkpt lat="43.55178" lon="7.12842">
        <ele>21.770000457764</ele>
        <time>2010-11-14T09:15:58Z</time>
      </trkpt>
      <trkpt lat="43.55172" lon="7.12835">
        <ele>21.770000457764</ele>
        <time>2010-11-14T09:16:00Z</time>
      </trkpt>
      <trkpt lat="43.55156" lon="7.12809">
        <ele>21.770000457764</ele>
        <time>2010-11-14T09:16:08Z</time>
      </trkpt>
      <trkpt lat="43.55151" lon="7.12802">
        <ele>22.25</ele>
        <time>2010-11-14T09:16:10Z</time>
      </trkpt>
      <trkpt lat="43.55134" lon="7.12765">
        <ele>20.809999465942</ele>
        <time>2010-11-14T09:16:19Z</time>
      </trkpt>
      <trkpt lat="43.55132" lon="7.12761">
        <ele>20.809999465942</ele>
        <time>2010-11-14T09:16:20Z</time>
      </trkpt>
      <trkpt lat="43.55122" lon="7.12739">
        <ele>20.319999694824</ele>
        <time>2010-11-14T09:16:25Z</time>
      </trkpt>
      <trkpt lat="43.55106" lon="7.127">
        <ele>19.360000610352</ele>
        <time>2010-11-14T09:16:34Z</time>
      </trkpt>
      <trkpt lat="43.55091" lon="7.12673">
        <ele>19.840000152588</ele>
        <time>2010-11-14T09:16:40Z</time>
      </trkpt>
      <trkpt lat="43.55078" lon="7.12644">
        <ele>18.879999160767</ele>
        <time>2010-11-14T09:16:47Z</time>
      </trkpt>
      <trkpt lat="43.5507" lon="7.12616">
        <ele>19.360000610352</ele>
        <time>2010-11-14T09:16:53Z</time>
      </trkpt>
      <trkpt lat="43.55061" lon="7.1258">
        <ele>17.920000076294</ele>
        <time>2010-11-14T09:17:01Z</time>
      </trkpt>
      <trkpt lat="43.55054" lon="7.12562">
        <ele>17.920000076294</ele>
        <time>2010-11-14T09:17:05Z</time>
      </trkpt>
      <trkpt lat="43.5504" lon="7.12534">
        <ele>17.920000076294</ele>
        <time>2010-11-14T09:17:12Z</time>
      </trkpt>
      <trkpt lat="43.55035" lon="7.12522">
        <ele>17.440000534058</ele>
        <time>2010-11-14T09:17:15Z</time>
      </trkpt>
      <trkpt lat="43.55027" lon="7.12506">
        <ele>16.959999084473</ele>
        <time>2010-11-14T09:17:19Z</time>
      </trkpt>
      <trkpt lat="43.55006" lon="7.12463">
        <ele>19.360000610352</ele>
        <time>2010-11-14T09:17:30Z</time>
      </trkpt>
      <trkpt lat="43.55002" lon="7.12456">
        <ele>19.360000610352</ele>
        <time>2010-11-14T09:17:32Z</time>
      </trkpt>
      <trkpt lat="43.54996" lon="7.12445">
        <ele>19.840000152588</ele>
        <time>2010-11-14T09:17:35Z</time>
      </trkpt>
      <trkpt lat="43.54978" lon="7.12416">
        <ele>18.879999160767</ele>
        <time>2010-11-14T09:17:43Z</time>
      </trkpt>
      <trkpt lat="43.54974" lon="7.12403">
        <ele>19.360000610352</ele>
        <time>2010-11-14T09:17:46Z</time>
      </trkpt>
      <trkpt lat="43.54957" lon="7.1236">
        <ele>17.920000076294</ele>
        <time>2010-11-14T09:17:56Z</time>
      </trkpt>
      <trkpt lat="43.54952" lon="7.12352">
        <ele>17.440000534058</ele>
        <time>2010-11-14T09:17:58Z</time>
      </trkpt>
      <trkpt lat="43.54946" lon="7.12343">
        <ele>16.959999084473</ele>
        <time>2010-11-14T09:18:01Z</time>
      </trkpt>
      <trkpt lat="43.54923" lon="7.12306">
        <ele>15.039999961853</ele>
        <time>2010-11-14T09:18:11Z</time>
      </trkpt>
      <trkpt lat="43.54898" lon="7.1226">
        <ele>14.079999923706</ele>
        <time>2010-11-14T09:18:22Z</time>
      </trkpt>
      <trkpt lat="43.54894" lon="7.12247">
        <ele>12.630000114441</ele>
        <time>2010-11-14T09:18:25Z</time>
      </trkpt>
      <trkpt lat="43.5489" lon="7.12218">
        <ele>13.60000038147</ele>
        <time>2010-11-14T09:18:32Z</time>
      </trkpt>
      <trkpt lat="43.54887" lon="7.1218">
        <ele>13.119999885559</ele>
        <time>2010-11-14T09:18:40Z</time>
      </trkpt>
      <trkpt lat="43.5489" lon="7.12152">
        <ele>13.119999885559</ele>
        <time>2010-11-14T09:18:45Z</time>
      </trkpt>
      <trkpt lat="43.54897" lon="7.12115">
        <ele>13.119999885559</ele>
        <time>2010-11-14T09:18:53Z</time>
      </trkpt>
      <trkpt lat="43.54903" lon="7.12098">
        <ele>12.630000114441</ele>
        <time>2010-11-14T09:18:57Z</time>
      </trkpt>
      <trkpt lat="43.5491" lon="7.12075">
        <ele>13.119999885559</ele>
        <time>2010-11-14T09:19:02Z</time>
      </trkpt>
      <trkpt lat="43.54922" lon="7.12036">
        <ele>11.670000076294</ele>
        <time>2010-11-14T09:19:10Z</time>
      </trkpt>
      <trkpt lat="43.54939" lon="7.11997">
        <ele>9.75</ele>
        <time>2010-11-14T09:19:19Z</time>
      </trkpt>
      <trkpt lat="43.54943" lon="7.11991">
        <ele>8.3100004196167</ele>
        <time>2010-11-14T09:19:21Z</time>
      </trkpt>
      <trkpt lat="43.54954" lon="7.1197">
        <ele>7.3499999046326</ele>
        <time>2010-11-14T09:19:26Z</time>
      </trkpt>
      <trkpt lat="43.54959" lon="7.11961">
        <ele>7.3499999046326</ele>
        <time>2010-11-14T09:19:28Z</time>
      </trkpt>
      <trkpt lat="43.54968" lon="7.11934">
        <ele>4.9400000572205</ele>
        <time>2010-11-14T09:19:34Z</time>
      </trkpt>
      <trkpt lat="43.5497" lon="7.11922">
        <ele>4.460000038147</ele>
        <time>2010-11-14T09:19:36Z</time>
      </trkpt>
      <trkpt lat="43.54969" lon="7.119">
        <ele>3.5</ele>
        <time>2010-11-14T09:19:40Z</time>
      </trkpt>
      <trkpt lat="43.5495" lon="7.11868">
        <ele>0.62000000476837</ele>
        <time>2010-11-14T09:19:48Z</time>
      </trkpt>
      <trkpt lat="43.54947" lon="7.11865">
        <ele>0.14000000059605</ele>
        <time>2010-11-14T09:19:49Z</time>
      </trkpt>
      <trkpt lat="43.54936" lon="7.11847">
        <ele>-0.34000000357628</ele>
        <time>2010-11-14T09:19:53Z</time>
      </trkpt>
      <trkpt lat="43.54953" lon="7.11819">
        <ele>-2.2699999809265</ele>
        <time>2010-11-14T09:20:01Z</time>
      </trkpt>
      <trkpt lat="43.54966" lon="7.11824">
        <ele>-2.2699999809265</ele>
        <time>2010-11-14T09:20:04Z</time>
      </trkpt>
      <trkpt lat="43.54991" lon="7.11847">
        <ele>-3.710000038147</ele>
        <time>2010-11-14T09:20:12Z</time>
      </trkpt>
      <trkpt lat="43.55017" lon="7.11863">
        <ele>-4.6700000762939</ele>
        <time>2010-11-14T09:20:20Z</time>
      </trkpt>
      <trkpt lat="43.55041" lon="7.11876">
        <ele>-4.6700000762939</ele>
        <time>2010-11-14T09:20:27Z</time>
      </trkpt>
      <trkpt lat="43.5507" lon="7.11886">
        <ele>-5.1500000953674</ele>
        <time>2010-11-14T09:20:36Z</time>
      </trkpt>
      <trkpt lat="43.55076" lon="7.11889">
        <ele>-5.1500000953674</ele>
        <time>2010-11-14T09:20:38Z</time>
      </trkpt>
      <trkpt lat="43.55094" lon="7.11907">
        <ele>-5.1500000953674</ele>
        <time>2010-11-14T09:20:45Z</time>
      </trkpt>
      <trkpt lat="43.55098" lon="7.11915">
        <ele>-5.1500000953674</ele>
        <time>2010-11-14T09:20:47Z</time>
      </trkpt>
      <trkpt lat="43.5511" lon="7.11956">
        <ele>-5.6300001144409</ele>
        <time>2010-11-14T09:20:55Z</time>
      </trkpt>
      <trkpt lat="43.55105" lon="7.11976">
        <ele>-5.6300001144409</ele>
        <time>2010-11-14T09:20:59Z</time>
      </trkpt>
      <trkpt lat="43.55105" lon="7.11998">
        <ele>-6.5900001525879</ele>
        <time>2010-11-14T09:21:03Z</time>
      </trkpt>
      <trkpt lat="43.55107" lon="7.12044">
        <ele>-7.0700001716614</ele>
        <time>2010-11-14T09:21:12Z</time>
      </trkpt>
      <trkpt lat="43.55114" lon="7.12072">
        <ele>-6.5900001525879</ele>
        <time>2010-11-14T09:21:18Z</time>
      </trkpt>
      <trkpt lat="43.55122" lon="7.12095">
        <ele>-6.1100001335144</ele>
        <time>2010-11-14T09:21:24Z</time>
      </trkpt>
      <trkpt lat="43.55128" lon="7.12104">
        <ele>-5.6300001144409</ele>
        <time>2010-11-14T09:21:27Z</time>
      </trkpt>
      <trkpt lat="43.55148" lon="7.12115">
        <ele>-5.1500000953674</ele>
        <time>2010-11-14T09:21:32Z</time>
      </trkpt>
      <trkpt lat="43.55169" lon="7.12122">
        <ele>-6.1100001335144</ele>
        <time>2010-11-14T09:21:39Z</time>
      </trkpt>
      <trkpt lat="43.55186" lon="7.12121">
        <ele>-6.5900001525879</ele>
        <time>2010-11-14T09:21:46Z</time>
      </trkpt>
      <trkpt lat="43.55201" lon="7.12142">
        <ele>-6.5900001525879</ele>
        <time>2010-11-14T09:21:52Z</time>
      </trkpt>
      <trkpt lat="43.5521" lon="7.12165">
        <ele>-6.5900001525879</ele>
        <time>2010-11-14T09:21:56Z</time>
      </trkpt>
      <trkpt lat="43.55235" lon="7.12204">
        <ele>-6.1100001335144</ele>
        <time>2010-11-14T09:22:07Z</time>
      </trkpt>
      <trkpt lat="43.55266" lon="7.12221">
        <ele>-6.5900001525879</ele>
        <time>2010-11-14T09:22:17Z</time>
      </trkpt>
      <trkpt lat="43.55282" lon="7.12223">
        <ele>-5.1500000953674</ele>
        <time>2010-11-14T09:22:21Z</time>
      </trkpt>
      <trkpt lat="43.5531" lon="7.12217">
        <ele>-5.1500000953674</ele>
        <time>2010-11-14T09:22:30Z</time>
      </trkpt>
      <trkpt lat="43.55323" lon="7.12214">
        <ele>-5.6300001144409</ele>
        <time>2010-11-14T09:22:34Z</time>
      </trkpt>
      <trkpt lat="43.55338" lon="7.12214">
        <ele>-6.5900001525879</ele>
        <time>2010-11-14T09:22:38Z</time>
      </trkpt>
      <trkpt lat="43.55355" lon="7.12222">
        <ele>-6.1100001335144</ele>
        <time>2010-11-14T09:22:44Z</time>
      </trkpt>
      <trkpt lat="43.55381" lon="7.12237">
        <ele>-7.5500001907349</ele>
        <time>2010-11-14T09:22:53Z</time>
      </trkpt>
      <trkpt lat="43.55413" lon="7.12244">
        <ele>-7.5500001907349</ele>
        <time>2010-11-14T09:23:02Z</time>
      </trkpt>
      <trkpt lat="43.55441" lon="7.12238">
        <ele>-7.0700001716614</ele>
        <time>2010-11-14T09:23:10Z</time>
      </trkpt>
      <trkpt lat="43.55456" lon="7.12232">
        <ele>-7.5500001907349</ele>
        <time>2010-11-14T09:23:14Z</time>
      </trkpt>
      <trkpt lat="43.55482" lon="7.12209">
        <ele>-7.0700001716614</ele>
        <time>2010-11-14T09:23:23Z</time>
      </trkpt>
      <trkpt lat="43.55487" lon="7.12203">
        <ele>-7.0700001716614</ele>
        <time>2010-11-14T09:23:25Z</time>
      </trkpt>
      <trkpt lat="43.55501" lon="7.12174">
        <ele>-7.0700001716614</ele>
        <time>2010-11-14T09:23:33Z</time>
      </trkpt>
      <trkpt lat="43.55503" lon="7.12171">
        <ele>-7.0700001716614</ele>
        <time>2010-11-14T09:23:34Z</time>
      </trkpt>
      <trkpt lat="43.5551" lon="7.12156">
        <ele>-7.5500001907349</ele>
        <time>2010-11-14T09:23:38Z</time>
      </trkpt>
      <trkpt lat="43.55521" lon="7.12136">
        <ele>-7.5500001907349</ele>
        <time>2010-11-14T09:23:44Z</time>
      </trkpt>
      <trkpt lat="43.55524" lon="7.12128">
        <ele>-7.5500001907349</ele>
        <time>2010-11-14T09:23:46Z</time>
      </trkpt>
      <trkpt lat="43.55536" lon="7.1212">
        <ele>-7.0700001716614</ele>
        <time>2010-11-14T09:23:50Z</time>
      </trkpt>
      <trkpt lat="43.55549" lon="7.12116">
        <ele>-7.5500001907349</ele>
        <time>2010-11-14T09:23:54Z</time>
      </trkpt>
      <trkpt lat="43.55587" lon="7.12125">
        <ele>-6.5900001525879</ele>
        <time>2010-11-14T09:24:05Z</time>
      </trkpt>
      <trkpt lat="43.5559" lon="7.12126">
        <ele>-7.0700001716614</ele>
        <time>2010-11-14T09:24:06Z</time>
      </trkpt>
      <trkpt lat="43.55603" lon="7.1213">
        <ele>-6.5900001525879</ele>
        <time>2010-11-14T09:24:10Z</time>
      </trkpt>
      <trkpt lat="43.55636" lon="7.12152">
        <ele>-7.5500001907349</ele>
        <time>2010-11-14T09:24:20Z</time>
      </trkpt>
      <trkpt lat="43.5566" lon="7.12168">
        <ele>-7.0700001716614</ele>
        <time>2010-11-14T09:24:27Z</time>
      </trkpt>
      <trkpt lat="43.5568" lon="7.12184">
        <ele>-7.0700001716614</ele>
        <time>2010-11-14T09:24:34Z</time>
      </trkpt>
      <trkpt lat="43.55702" lon="7.12197">
        <ele>-7.0700001716614</ele>
        <time>2010-11-14T09:24:43Z</time>
      </trkpt>
      <trkpt lat="43.55727" lon="7.12205">
        <ele>-7.0700001716614</ele>
        <time>2010-11-14T09:24:51Z</time>
      </trkpt>
      <trkpt lat="43.55755" lon="7.12208">
        <ele>-8.0299997329712</ele>
        <time>2010-11-14T09:24:59Z</time>
      </trkpt>
      <trkpt lat="43.55782" lon="7.12199">
        <ele>-7.5500001907349</ele>
        <time>2010-11-14T09:25:07Z</time>
      </trkpt>
      <trkpt lat="43.55785" lon="7.12197">
        <ele>-7.5500001907349</ele>
        <time>2010-11-14T09:25:08Z</time>
      </trkpt>
      <trkpt lat="43.55806" lon="7.12187">
        <ele>-7.5500001907349</ele>
        <time>2010-11-14T09:25:14Z</time>
      </trkpt>
      <trkpt lat="43.55827" lon="7.12182">
        <ele>-7.5500001907349</ele>
        <time>2010-11-14T09:25:20Z</time>
      </trkpt>
      <trkpt lat="43.5585" lon="7.12182">
        <ele>-7.5500001907349</ele>
        <time>2010-11-14T09:25:27Z</time>
      </trkpt>
      <trkpt lat="43.55867" lon="7.12181">
        <ele>-6.5900001525879</ele>
        <time>2010-11-14T09:25:32Z</time>
      </trkpt>
      <trkpt lat="43.55907" lon="7.1218">
        <ele>-6.1100001335144</ele>
        <time>2010-11-14T09:25:44Z</time>
      </trkpt>
      <trkpt lat="43.55938" lon="7.12179">
        <ele>-6.5900001525879</ele>
        <time>2010-11-14T09:25:53Z</time>
      </trkpt>
      <trkpt lat="43.5596" lon="7.12166">
        <ele>-7.0700001716614</ele>
        <time>2010-11-14T09:26:00Z</time>
      </trkpt>
      <trkpt lat="43.55985" lon="7.12144">
        <ele>-6.5900001525879</ele>
        <time>2010-11-14T09:26:09Z</time>
      </trkpt>
      <trkpt lat="43.5601" lon="7.12114">
        <ele>-7.0700001716614</ele>
        <time>2010-11-14T09:26:19Z</time>
      </trkpt>
      <trkpt lat="43.56025" lon="7.12096">
        <ele>-6.1100001335144</ele>
        <time>2010-11-14T09:26:25Z</time>
      </trkpt>
      <trkpt lat="43.56044" lon="7.12063">
        <ele>-6.1100001335144</ele>
        <time>2010-11-14T09:26:34Z</time>
      </trkpt>
      <trkpt lat="43.56065" lon="7.12032">
        <ele>-6.5900001525879</ele>
        <time>2010-11-14T09:26:43Z</time>
      </trkpt>
      <trkpt lat="43.56079" lon="7.12006">
        <ele>-6.5900001525879</ele>
        <time>2010-11-14T09:26:50Z</time>
      </trkpt>
      <trkpt lat="43.56087" lon="7.1199">
        <ele>-6.1100001335144</ele>
        <time>2010-11-14T09:26:54Z</time>
      </trkpt>
      <trkpt lat="43.56107" lon="7.11959">
        <ele>-6.5900001525879</ele>
        <time>2010-11-14T09:27:03Z</time>
      </trkpt>
      <trkpt lat="43.56125" lon="7.1193">
        <ele>-5.1500000953674</ele>
        <time>2010-11-14T09:27:12Z</time>
      </trkpt>
      <trkpt lat="43.56141" lon="7.11896">
        <ele>-4.6700000762939</ele>
        <time>2010-11-14T09:27:20Z</time>
      </trkpt>
      <trkpt lat="43.5615" lon="7.11868">
        <ele>-4.1900000572205</ele>
        <time>2010-11-14T09:27:27Z</time>
      </trkpt>
      <trkpt lat="43.56165" lon="7.11835">
        <ele>-4.6700000762939</ele>
        <time>2010-11-14T09:27:35Z</time>
      </trkpt>
      <trkpt lat="43.56189" lon="7.11809">
        <ele>-4.6700000762939</ele>
        <time>2010-11-14T09:27:44Z</time>
      </trkpt>
      <trkpt lat="43.5621" lon="7.11792">
        <ele>-5.6300001144409</ele>
        <time>2010-11-14T09:27:51Z</time>
      </trkpt>
      <trkpt lat="43.56236" lon="7.1177">
        <ele>-5.1500000953674</ele>
        <time>2010-11-14T09:27:59Z</time>
      </trkpt>
      <trkpt lat="43.56249" lon="7.11762">
        <ele>-5.1500000953674</ele>
        <time>2010-11-14T09:28:04Z</time>
      </trkpt>
      <trkpt lat="43.56271" lon="7.11751">
        <ele>-6.1100001335144</ele>
        <time>2010-11-14T09:28:11Z</time>
      </trkpt>
      <trkpt lat="43.56299" lon="7.11737">
        <ele>-4.6700000762939</ele>
        <time>2010-11-14T09:28:21Z</time>
      </trkpt>
      <trkpt lat="43.56317" lon="7.11723">
        <ele>-4.1900000572205</ele>
        <time>2010-11-14T09:28:28Z</time>
      </trkpt>
      <trkpt lat="43.56342" lon="7.11699">
        <ele>-3.710000038147</ele>
        <time>2010-11-14T09:28:37Z</time>
      </trkpt>
      <trkpt lat="43.56361" lon="7.11671">
        <ele>-2.75</ele>
        <time>2010-11-14T09:28:46Z</time>
      </trkpt>
      <trkpt lat="43.56374" lon="7.11649">
        <ele>-2.2699999809265</ele>
        <time>2010-11-14T09:28:53Z</time>
      </trkpt>
      <trkpt lat="43.56393" lon="7.11619">
        <ele>-0.81999999284744</ele>
        <time>2010-11-14T09:29:02Z</time>
      </trkpt>
      <trkpt lat="43.56415" lon="7.11598">
        <ele>-0.81999999284744</ele>
        <time>2010-11-14T09:29:10Z</time>
      </trkpt>
      <trkpt lat="43.56422" lon="7.11592">
        <ele>-1.2999999523163</ele>
        <time>2010-11-14T09:29:13Z</time>
      </trkpt>
      <trkpt lat="43.56451" lon="7.11582">
        <ele>-1.2999999523163</ele>
        <time>2010-11-14T09:29:21Z</time>
      </trkpt>
      <trkpt lat="43.56478" lon="7.11573">
        <ele>-0.34000000357628</ele>
        <time>2010-11-14T09:29:30Z</time>
      </trkpt>
      <trkpt lat="43.56507" lon="7.11563">
        <ele>-0.34000000357628</ele>
        <time>2010-11-14T09:29:39Z</time>
      </trkpt>
      <trkpt lat="43.56532" lon="7.11559">
        <ele>0.14000000059605</ele>
        <time>2010-11-14T09:29:47Z</time>
      </trkpt>
      <trkpt lat="43.56557" lon="7.1156">
        <ele>0.62000000476837</ele>
        <time>2010-11-14T09:29:55Z</time>
      </trkpt>
      <trkpt lat="43.56593" lon="7.11566">
        <ele>0.14000000059605</ele>
        <time>2010-11-14T09:30:05Z</time>
      </trkpt>
      <trkpt lat="43.56617" lon="7.11573">
        <ele>0.14000000059605</ele>
        <time>2010-11-14T09:30:13Z</time>
      </trkpt>
      <trkpt lat="43.56625" lon="7.11568">
        <ele>-0.81999999284744</ele>
        <time>2010-11-14T09:30:16Z</time>
      </trkpt>
      <trkpt lat="43.56643" lon="7.1154">
        <ele>-0.34000000357628</ele>
        <time>2010-11-14T09:30:25Z</time>
      </trkpt>
      <trkpt lat="43.5666" lon="7.11519">
        <ele>-0.81999999284744</ele>
        <time>2010-11-14T09:30:31Z</time>
      </trkpt>
      <trkpt lat="43.56685" lon="7.11488">
        <ele>-0.81999999284744</ele>
        <time>2010-11-14T09:30:40Z</time>
      </trkpt>
      <trkpt lat="43.56701" lon="7.11459">
        <ele>-1.789999961853</ele>
        <time>2010-11-14T09:30:47Z</time>
      </trkpt>
      <trkpt lat="43.56702" lon="7.11456">
        <ele>-1.2999999523163</ele>
        <time>2010-11-14T09:30:48Z</time>
      </trkpt>
      <trkpt lat="43.56717" lon="7.11436">
        <ele>-2.2699999809265</ele>
        <time>2010-11-14T09:30:54Z</time>
      </trkpt>
      <trkpt lat="43.56726" lon="7.11412">
        <ele>-1.789999961853</ele>
        <time>2010-11-14T09:31:00Z</time>
      </trkpt>
      <trkpt lat="43.56728" lon="7.11409">
        <ele>-2.2699999809265</ele>
        <time>2010-11-14T09:31:01Z</time>
      </trkpt>
      <trkpt lat="43.56746" lon="7.11383">
        <ele>-2.75</ele>
        <time>2010-11-14T09:31:09Z</time>
      </trkpt>
      <trkpt lat="43.56759" lon="7.1135">
        <ele>-2.75</ele>
        <time>2010-11-14T09:31:17Z</time>
      </trkpt>
      <trkpt lat="43.56768" lon="7.11329">
        <ele>-4.1900000572205</ele>
        <time>2010-11-14T09:31:22Z</time>
      </trkpt>
      <trkpt lat="43.5678" lon="7.11296">
        <ele>-3.710000038147</ele>
        <time>2010-11-14T09:31:30Z</time>
      </trkpt>
      <trkpt lat="43.56783" lon="7.11268">
        <ele>-3.710000038147</ele>
        <time>2010-11-14T09:31:38Z</time>
      </trkpt>
      <trkpt lat="43.56789" lon="7.11233">
        <ele>-4.1900000572205</ele>
        <time>2010-11-14T09:31:45Z</time>
      </trkpt>
      <trkpt lat="43.56785" lon="7.11196">
        <ele>-4.6700000762939</ele>
        <time>2010-11-14T09:31:52Z</time>
      </trkpt>
      <trkpt lat="43.56784" lon="7.11186">
        <ele>-3.710000038147</ele>
        <time>2010-11-14T09:31:54Z</time>
      </trkpt>
      <trkpt lat="43.56792" lon="7.11155">
        <ele>-3.2300000190735</ele>
        <time>2010-11-14T09:32:01Z</time>
      </trkpt>
      <trkpt lat="43.568" lon="7.11121">
        <ele>-3.2300000190735</ele>
        <time>2010-11-14T09:32:10Z</time>
      </trkpt>
      <trkpt lat="43.5681" lon="7.11092">
        <ele>-2.75</ele>
        <time>2010-11-14T09:32:17Z</time>
      </trkpt>
      <trkpt lat="43.56819" lon="7.11072">
        <ele>-3.2300000190735</ele>
        <time>2010-11-14T09:32:22Z</time>
      </trkpt>
      <trkpt lat="43.5683" lon="7.11062">
        <ele>-3.2300000190735</ele>
        <time>2010-11-14T09:32:26Z</time>
      </trkpt>
      <trkpt lat="43.56852" lon="7.11069">
        <ele>-2.2699999809265</ele>
        <time>2010-11-14T09:32:34Z</time>
      </trkpt>
      <trkpt lat="43.56862" lon="7.11067">
        <ele>-2.2699999809265</ele>
        <time>2010-11-14T09:32:37Z</time>
      </trkpt>
      <trkpt lat="43.56873" lon="7.11053">
        <ele>-2.2699999809265</ele>
        <time>2010-11-14T09:32:42Z</time>
      </trkpt>
      <trkpt lat="43.56878" lon="7.11032">
        <ele>-2.2699999809265</ele>
        <time>2010-11-14T09:32:47Z</time>
      </trkpt>
      <trkpt lat="43.56884" lon="7.1098">
        <ele>-2.2699999809265</ele>
        <time>2010-11-14T09:32:59Z</time>
      </trkpt>
      <trkpt lat="43.56892" lon="7.10933">
        <ele>-2.2699999809265</ele>
        <time>2010-11-14T09:33:09Z</time>
      </trkpt>
      <trkpt lat="43.56897" lon="7.10893">
        <ele>-3.710000038147</ele>
        <time>2010-11-14T09:33:18Z</time>
      </trkpt>
      <trkpt lat="43.56904" lon="7.10854">
        <ele>-3.2300000190735</ele>
        <time>2010-11-14T09:33:27Z</time>
      </trkpt>
      <trkpt lat="43.56906" lon="7.10841">
        <ele>-3.2300000190735</ele>
        <time>2010-11-14T09:33:30Z</time>
      </trkpt>
      <trkpt lat="43.56908" lon="7.10819">
        <ele>-3.710000038147</ele>
        <time>2010-11-14T09:33:35Z</time>
      </trkpt>
      <trkpt lat="43.56924" lon="7.10769">
        <ele>-3.2300000190735</ele>
        <time>2010-11-14T09:33:47Z</time>
      </trkpt>
      <trkpt lat="43.56936" lon="7.10735">
        <ele>-3.2300000190735</ele>
        <time>2010-11-14T09:33:56Z</time>
      </trkpt>
      <trkpt lat="43.5695" lon="7.107">
        <ele>-3.2300000190735</ele>
        <time>2010-11-14T09:34:06Z</time>
      </trkpt>
      <trkpt lat="43.56957" lon="7.10686">
        <ele>-3.2300000190735</ele>
        <time>2010-11-14T09:34:10Z</time>
      </trkpt>
      <trkpt lat="43.56974" lon="7.10643">
        <ele>-3.710000038147</ele>
        <time>2010-11-14T09:34:21Z</time>
      </trkpt>
      <trkpt lat="43.56992" lon="7.10603">
        <ele>-3.2300000190735</ele>
        <time>2010-11-14T09:34:32Z</time>
      </trkpt>
      <trkpt lat="43.57005" lon="7.10569">
        <ele>-3.2300000190735</ele>
        <time>2010-11-14T09:34:41Z</time>
      </trkpt>
      <trkpt lat="43.57019" lon="7.10534">
        <ele>-2.2699999809265</ele>
        <time>2010-11-14T09:34:51Z</time>
      </trkpt>
      <trkpt lat="43.57035" lon="7.10495">
        <ele>-2.75</ele>
        <time>2010-11-14T09:35:01Z</time>
      </trkpt>
      <trkpt lat="43.57045" lon="7.10453">
        <ele>-2.75</ele>
        <time>2010-11-14T09:35:12Z</time>
      </trkpt>
      <trkpt lat="43.57054" lon="7.10406">
        <ele>-3.2300000190735</ele>
        <time>2010-11-14T09:35:23Z</time>
      </trkpt>
      <trkpt lat="43.57059" lon="7.10368">
        <ele>-3.2300000190735</ele>
        <time>2010-11-14T09:35:32Z</time>
      </trkpt>
      <trkpt lat="43.57064" lon="7.10342">
        <ele>-2.2699999809265</ele>
        <time>2010-11-14T09:35:42Z</time>
      </trkpt>
      <trkpt lat="43.57071" lon="7.10308">
        <ele>-2.75</ele>
        <time>2010-11-14T09:35:53Z</time>
      </trkpt>
      <trkpt lat="43.57075" lon="7.10269">
        <ele>-2.2699999809265</ele>
        <time>2010-11-14T09:36:03Z</time>
      </trkpt>
      <trkpt lat="43.57084" lon="7.10218">
        <ele>-2.2699999809265</ele>
        <time>2010-11-14T09:36:15Z</time>
      </trkpt>
      <trkpt lat="43.57095" lon="7.10163">
        <ele>-1.789999961853</ele>
        <time>2010-11-14T09:36:28Z</time>
      </trkpt>
      <trkpt lat="43.57106" lon="7.10114">
        <ele>-1.789999961853</ele>
        <time>2010-11-14T09:36:40Z</time>
      </trkpt>
      <trkpt lat="43.57116" lon="7.10052">
        <ele>-1.789999961853</ele>
        <time>2010-11-14T09:36:55Z</time>
      </trkpt>
      <trkpt lat="43.57129" lon="7.09993">
        <ele>-1.2999999523163</ele>
        <time>2010-11-14T09:37:10Z</time>
      </trkpt>
      <trkpt lat="43.57129" lon="7.09939">
        <ele>-0.81999999284744</ele>
        <time>2010-11-14T09:37:23Z</time>
      </trkpt>
      <trkpt lat="43.5713" lon="7.09887">
        <ele>-0.81999999284744</ele>
        <time>2010-11-14T09:37:36Z</time>
      </trkpt>
      <trkpt lat="43.5713" lon="7.09831">
        <ele>0.14000000059605</ele>
        <time>2010-11-14T09:37:49Z</time>
      </trkpt>
      <trkpt lat="43.57128" lon="7.09777">
        <ele>-0.34000000357628</ele>
        <time>2010-11-14T09:38:02Z</time>
      </trkpt>
      <trkpt lat="43.57128" lon="7.09714">
        <ele>-0.34000000357628</ele>
        <time>2010-11-14T09:38:17Z</time>
      </trkpt>
      <trkpt lat="43.57125" lon="7.09666">
        <ele>-0.81999999284744</ele>
        <time>2010-11-14T09:38:28Z</time>
      </trkpt>
      <trkpt lat="43.57121" lon="7.09611">
        <ele>-0.34000000357628</ele>
        <time>2010-11-14T09:38:41Z</time>
      </trkpt>
      <trkpt lat="43.57114" lon="7.09549">
        <ele>-1.2999999523163</ele>
        <time>2010-11-14T09:38:56Z</time>
      </trkpt>
      <trkpt lat="43.57108" lon="7.09493">
        <ele>-0.81999999284744</ele>
        <time>2010-11-14T09:39:10Z</time>
      </trkpt>
      <trkpt lat="43.571" lon="7.09434">
        <ele>-0.81999999284744</ele>
        <time>2010-11-14T09:39:24Z</time>
      </trkpt>
      <trkpt lat="43.57092" lon="7.09371">
        <ele>-0.81999999284744</ele>
        <time>2010-11-14T09:39:40Z</time>
      </trkpt>
      <trkpt lat="43.57083" lon="7.09312">
        <ele>-0.81999999284744</ele>
        <time>2010-11-14T09:39:54Z</time>
      </trkpt>
      <trkpt lat="43.57078" lon="7.09258">
        <ele>-0.81999999284744</ele>
        <time>2010-11-14T09:40:07Z</time>
      </trkpt>
      <trkpt lat="43.57073" lon="7.09211">
        <ele>-0.81999999284744</ele>
        <time>2010-11-14T09:40:19Z</time>
      </trkpt>
      <trkpt lat="43.57068" lon="7.09145">
        <ele>-0.81999999284744</ele>
        <time>2010-11-14T09:40:35Z</time>
      </trkpt>
      <trkpt lat="43.5706" lon="7.09089">
        <ele>0.14000000059605</ele>
        <time>2010-11-14T09:40:49Z</time>
      </trkpt>
      <trkpt lat="43.57056" lon="7.09039">
        <ele>0.14000000059605</ele>
        <time>2010-11-14T09:41:01Z</time>
      </trkpt>
      <trkpt lat="43.57052" lon="7.08978">
        <ele>-1.2999999523163</ele>
        <time>2010-11-14T09:41:16Z</time>
      </trkpt>
      <trkpt lat="43.57047" lon="7.08917">
        <ele>-0.81999999284744</ele>
        <time>2010-11-14T09:41:31Z</time>
      </trkpt>
      <trkpt lat="43.5704" lon="7.08864">
        <ele>-0.81999999284744</ele>
        <time>2010-11-14T09:41:44Z</time>
      </trkpt>
      <trkpt lat="43.57036" lon="7.08811">
        <ele>-1.2999999523163</ele>
        <time>2010-11-14T09:41:57Z</time>
      </trkpt>
      <trkpt lat="43.5703" lon="7.08757">
        <ele>-0.34000000357628</ele>
        <time>2010-11-14T09:42:10Z</time>
      </trkpt>
      <trkpt lat="43.57026" lon="7.08715">
        <ele>0.14000000059605</ele>
        <time>2010-11-14T09:42:20Z</time>
      </trkpt>
      <trkpt lat="43.57016" lon="7.0865">
        <ele>0.14000000059605</ele>
        <time>2010-11-14T09:42:36Z</time>
      </trkpt>
      <trkpt lat="43.57011" lon="7.08602">
        <ele>0.14000000059605</ele>
        <time>2010-11-14T09:42:48Z</time>
      </trkpt>
      <trkpt lat="43.57005" lon="7.08548">
        <ele>0.62000000476837</ele>
        <time>2010-11-14T09:43:01Z</time>
      </trkpt>
      <trkpt lat="43.56997" lon="7.08499">
        <ele>0.14000000059605</ele>
        <time>2010-11-14T09:43:14Z</time>
      </trkpt>
      <trkpt lat="43.56987" lon="7.08454">
        <ele>-0.34000000357628</ele>
        <time>2010-11-14T09:43:26Z</time>
      </trkpt>
      <trkpt lat="43.56969" lon="7.08397">
        <ele>-0.81999999284744</ele>
        <time>2010-11-14T09:43:41Z</time>
      </trkpt>
      <trkpt lat="43.56955" lon="7.08362">
        <ele>-0.34000000357628</ele>
        <time>2010-11-14T09:43:51Z</time>
      </trkpt>
      <trkpt lat="43.56934" lon="7.08308">
        <ele>-0.81999999284744</ele>
        <time>2010-11-14T09:44:06Z</time>
      </trkpt>
      <trkpt lat="43.56915" lon="7.08267">
        <ele>-0.81999999284744</ele>
        <time>2010-11-14T09:44:17Z</time>
      </trkpt>
      <trkpt lat="43.56894" lon="7.08221">
        <ele>-0.81999999284744</ele>
        <time>2010-11-14T09:44:30Z</time>
      </trkpt>
      <trkpt lat="43.56874" lon="7.08174">
        <ele>-1.2999999523163</ele>
        <time>2010-11-14T09:44:43Z</time>
      </trkpt>
      <trkpt lat="43.56853" lon="7.08131">
        <ele>-0.81999999284744</ele>
        <time>2010-11-14T09:44:56Z</time>
      </trkpt>
      <trkpt lat="43.56829" lon="7.08088">
        <ele>-0.34000000357628</ele>
        <time>2010-11-14T09:45:10Z</time>
      </trkpt>
      <trkpt lat="43.56806" lon="7.08045">
        <ele>-1.2999999523163</ele>
        <time>2010-11-14T09:45:24Z</time>
      </trkpt>
      <trkpt lat="43.56778" lon="7.07999">
        <ele>-0.81999999284744</ele>
        <time>2010-11-14T09:45:39Z</time>
      </trkpt>
      <trkpt lat="43.56745" lon="7.07952">
        <ele>-0.81999999284744</ele>
        <time>2010-11-14T09:45:56Z</time>
      </trkpt>
      <trkpt lat="43.56723" lon="7.07907">
        <ele>-0.81999999284744</ele>
        <time>2010-11-14T09:46:10Z</time>
      </trkpt>
      <trkpt lat="43.56706" lon="7.07867">
        <ele>-0.34000000357628</ele>
        <time>2010-11-14T09:46:22Z</time>
      </trkpt>
      <trkpt lat="43.56688" lon="7.07825">
        <ele>0.62000000476837</ele>
        <time>2010-11-14T09:46:34Z</time>
      </trkpt>
      <trkpt lat="43.5667" lon="7.07787">
        <ele>0.62000000476837</ele>
        <time>2010-11-14T09:46:46Z</time>
      </trkpt>
      <trkpt lat="43.56663" lon="7.07766">
        <ele>-0.34000000357628</ele>
        <time>2010-11-14T09:46:55Z</time>
      </trkpt>
      <trkpt lat="43.56652" lon="7.07721">
        <ele>0.14000000059605</ele>
        <time>2010-11-14T09:47:07Z</time>
      </trkpt>
      <trkpt lat="43.56643" lon="7.07665">
        <ele>0.14000000059605</ele>
        <time>2010-11-14T09:47:21Z</time>
      </trkpt>
      <trkpt lat="43.56631" lon="7.07613">
        <ele>-0.34000000357628</ele>
        <time>2010-11-14T09:47:34Z</time>
      </trkpt>
      <trkpt lat="43.56622" lon="7.07562">
        <ele>0.14000000059605</ele>
        <time>2010-11-14T09:47:47Z</time>
      </trkpt>
      <trkpt lat="43.56615" lon="7.07527">
        <ele>0.14000000059605</ele>
        <time>2010-11-14T09:47:56Z</time>
      </trkpt>
      <trkpt lat="43.56605" lon="7.07492">
        <ele>0.14000000059605</ele>
        <time>2010-11-14T09:48:06Z</time>
      </trkpt>
      <trkpt lat="43.56592" lon="7.07449">
        <ele>0.14000000059605</ele>
        <time>2010-11-14T09:48:18Z</time>
      </trkpt>
      <trkpt lat="43.56575" lon="7.07408">
        <ele>0.14000000059605</ele>
        <time>2010-11-14T09:48:30Z</time>
      </trkpt>
      <trkpt lat="43.56554" lon="7.07372">
        <ele>0.62000000476837</ele>
        <time>2010-11-14T09:48:41Z</time>
      </trkpt>
      <trkpt lat="43.56536" lon="7.07322">
        <ele>0.62000000476837</ele>
        <time>2010-11-14T09:48:54Z</time>
      </trkpt>
      <trkpt lat="43.5652" lon="7.07275">
        <ele>0.62000000476837</ele>
        <time>2010-11-14T09:49:06Z</time>
      </trkpt>
      <trkpt lat="43.56498" lon="7.07225">
        <ele>0.14000000059605</ele>
        <time>2010-11-14T09:49:20Z</time>
      </trkpt>
      <trkpt lat="43.56475" lon="7.07178">
        <ele>0.62000000476837</ele>
        <time>2010-11-14T09:49:34Z</time>
      </trkpt>
      <trkpt lat="43.56454" lon="7.07127">
        <ele>-0.34000000357628</ele>
        <time>2010-11-14T09:49:48Z</time>
      </trkpt>
      <trkpt lat="43.56433" lon="7.07079">
        <ele>0.62000000476837</ele>
        <time>2010-11-14T09:50:02Z</time>
      </trkpt>
      <trkpt lat="43.56408" lon="7.07026">
        <ele>0.14000000059605</ele>
        <time>2010-11-14T09:50:17Z</time>
      </trkpt>
      <trkpt lat="43.56384" lon="7.06979">
        <ele>0.62000000476837</ele>
        <time>2010-11-14T09:50:32Z</time>
      </trkpt>
      <trkpt lat="43.56365" lon="7.06944">
        <ele>0.62000000476837</ele>
        <time>2010-11-14T09:50:43Z</time>
      </trkpt>
      <trkpt lat="43.56359" lon="7.06935">
        <ele>0.14000000059605</ele>
        <time>2010-11-14T09:50:50Z</time>
      </trkpt>
      <trkpt lat="43.56355" lon="7.06928">
        <ele>0.14000000059605</ele>
        <time>2010-11-14T09:50:56Z</time>
      </trkpt>
      <trkpt lat="43.56342" lon="7.06908">
        <ele>1.5800000429153</ele>
        <time>2010-11-14T09:51:11Z</time>
      </trkpt>
      <trkpt lat="43.56321" lon="7.06875">
        <ele>2.0599999427795</ele>
        <time>2010-11-14T09:51:24Z</time>
      </trkpt>
      <trkpt lat="43.56295" lon="7.0684">
        <ele>3.5</ele>
        <time>2010-11-14T09:51:38Z</time>
      </trkpt>
      <trkpt lat="43.56271" lon="7.06811">
        <ele>5.9099998474121</ele>
        <time>2010-11-14T09:51:51Z</time>
      </trkpt>
      <trkpt lat="43.56246" lon="7.06786">
        <ele>7.3499999046326</ele>
        <time>2010-11-14T09:52:04Z</time>
      </trkpt>
      <trkpt lat="43.56214" lon="7.06752">
        <ele>10.229999542236</ele>
        <time>2010-11-14T09:52:21Z</time>
      </trkpt>
      <trkpt lat="43.5619" lon="7.06714">
        <ele>10.710000038147</ele>
        <time>2010-11-14T09:52:35Z</time>
      </trkpt>
      <trkpt lat="43.56176" lon="7.06668">
        <ele>11.670000076294</ele>
        <time>2010-11-14T09:52:47Z</time>
      </trkpt>
      <trkpt lat="43.56148" lon="7.06636">
        <ele>11.670000076294</ele>
        <time>2010-11-14T09:53:01Z</time>
      </trkpt>
      <trkpt lat="43.56114" lon="7.06607">
        <ele>13.119999885559</ele>
        <time>2010-11-14T09:53:15Z</time>
      </trkpt>
      <trkpt lat="43.56077" lon="7.06571">
        <ele>11.670000076294</ele>
        <time>2010-11-14T09:53:30Z</time>
      </trkpt>
      <trkpt lat="43.5603" lon="7.06531">
        <ele>11.670000076294</ele>
        <time>2010-11-14T09:53:48Z</time>
      </trkpt>
      <trkpt lat="43.55988" lon="7.06494">
        <ele>12.630000114441</ele>
        <time>2010-11-14T09:54:05Z</time>
      </trkpt>
      <trkpt lat="43.5596" lon="7.06465">
        <ele>14.079999923706</ele>
        <time>2010-11-14T09:54:18Z</time>
      </trkpt>
      <trkpt lat="43.55927" lon="7.06431">
        <ele>14.079999923706</ele>
        <time>2010-11-14T09:54:33Z</time>
      </trkpt>
      <trkpt lat="43.55885" lon="7.0639">
        <ele>14.560000419617</ele>
        <time>2010-11-14T09:54:51Z</time>
      </trkpt>
      <trkpt lat="43.55847" lon="7.06355">
        <ele>15.039999961853</ele>
        <time>2010-11-14T09:55:07Z</time>
      </trkpt>
      <trkpt lat="43.5581" lon="7.0632">
        <ele>14.079999923706</ele>
        <time>2010-11-14T09:55:22Z</time>
      </trkpt>
      <trkpt lat="43.55778" lon="7.0629">
        <ele>12.630000114441</ele>
        <time>2010-11-14T09:55:35Z</time>
      </trkpt>
      <trkpt lat="43.55741" lon="7.06262">
        <ele>11.670000076294</ele>
        <time>2010-11-14T09:55:49Z</time>
      </trkpt>
      <trkpt lat="43.55703" lon="7.06235">
        <ele>11.189999580383</ele>
        <time>2010-11-14T09:56:03Z</time>
      </trkpt>
      <trkpt lat="43.55663" lon="7.0621">
        <ele>11.189999580383</ele>
        <time>2010-11-14T09:56:18Z</time>
      </trkpt>
      <trkpt lat="43.55626" lon="7.06187">
        <ele>11.670000076294</ele>
        <time>2010-11-14T09:56:32Z</time>
      </trkpt>
      <trkpt lat="43.55585" lon="7.0616">
        <ele>13.119999885559</ele>
        <time>2010-11-14T09:56:47Z</time>
      </trkpt>
      <trkpt lat="43.55552" lon="7.06135">
        <ele>11.670000076294</ele>
        <time>2010-11-14T09:57:00Z</time>
      </trkpt>
      <trkpt lat="43.55519" lon="7.06105">
        <ele>10.710000038147</ele>
        <time>2010-11-14T09:57:13Z</time>
      </trkpt>
      <trkpt lat="43.55482" lon="7.06064">
        <ele>9.75</ele>
        <time>2010-11-14T09:57:28Z</time>
      </trkpt>
      <trkpt lat="43.5544" lon="7.06016">
        <ele>9.75</ele>
        <time>2010-11-14T09:57:46Z</time>
      </trkpt>
      <trkpt lat="43.55405" lon="7.05973">
        <ele>11.670000076294</ele>
        <time>2010-11-14T09:58:03Z</time>
      </trkpt>
      <trkpt lat="43.55373" lon="7.05939">
        <ele>12.14999961853</ele>
        <time>2010-11-14T09:58:18Z</time>
      </trkpt>
      <trkpt lat="43.55338" lon="7.05899">
        <ele>14.079999923706</ele>
        <time>2010-11-14T09:58:35Z</time>
      </trkpt>
      <trkpt lat="43.55309" lon="7.05867">
        <ele>14.560000419617</ele>
        <time>2010-11-14T09:58:48Z</time>
      </trkpt>
      <trkpt lat="43.55276" lon="7.05837">
        <ele>14.079999923706</ele>
        <time>2010-11-14T09:59:02Z</time>
      </trkpt>
      <trkpt lat="43.55245" lon="7.0581">
        <ele>13.60000038147</ele>
        <time>2010-11-14T09:59:15Z</time>
      </trkpt>
      <trkpt lat="43.55208" lon="7.05787">
        <ele>13.60000038147</ele>
        <time>2010-11-14T09:59:29Z</time>
      </trkpt>
      <trkpt lat="43.55167" lon="7.05754">
        <ele>12.14999961853</ele>
        <time>2010-11-14T09:59:44Z</time>
      </trkpt>
      <trkpt lat="43.55129" lon="7.05724">
        <ele>11.670000076294</ele>
        <time>2010-11-14T09:59:58Z</time>
      </trkpt>
      <trkpt lat="43.55085" lon="7.05688">
        <ele>12.14999961853</ele>
        <time>2010-11-14T10:00:15Z</time>
      </trkpt>
      <trkpt lat="43.55052" lon="7.05664">
        <ele>12.14999961853</ele>
        <time>2010-11-14T10:00:28Z</time>
      </trkpt>
      <trkpt lat="43.55012" lon="7.05635">
        <ele>13.60000038147</ele>
        <time>2010-11-14T10:00:45Z</time>
      </trkpt>
      <trkpt lat="43.54974" lon="7.05605">
        <ele>15.520000457764</ele>
        <time>2010-11-14T10:01:00Z</time>
      </trkpt>
      <trkpt lat="43.54934" lon="7.05563">
        <ele>15.520000457764</ele>
        <time>2010-11-14T10:01:17Z</time>
      </trkpt>
      <trkpt lat="43.54892" lon="7.05521">
        <ele>16</ele>
        <time>2010-11-14T10:01:34Z</time>
      </trkpt>
      <trkpt lat="43.5486" lon="7.05482">
        <ele>15.039999961853</ele>
        <time>2010-11-14T10:01:48Z</time>
      </trkpt>
      <trkpt lat="43.5483" lon="7.05435">
        <ele>14.079999923706</ele>
        <time>2010-11-14T10:02:03Z</time>
      </trkpt>
      <trkpt lat="43.54804" lon="7.05387">
        <ele>14.560000419617</ele>
        <time>2010-11-14T10:02:17Z</time>
      </trkpt>
      <trkpt lat="43.54785" lon="7.05336">
        <ele>13.60000038147</ele>
        <time>2010-11-14T10:02:30Z</time>
      </trkpt>
      <trkpt lat="43.54767" lon="7.05276">
        <ele>13.119999885559</ele>
        <time>2010-11-14T10:02:45Z</time>
      </trkpt>
      <trkpt lat="43.54753" lon="7.05224">
        <ele>12.630000114441</ele>
        <time>2010-11-14T10:02:58Z</time>
      </trkpt>
      <trkpt lat="43.54745" lon="7.05171">
        <ele>12.14999961853</ele>
        <time>2010-11-14T10:03:11Z</time>
      </trkpt>
      <trkpt lat="43.5474" lon="7.05119">
        <ele>12.630000114441</ele>
        <time>2010-11-14T10:03:23Z</time>
      </trkpt>
      <trkpt lat="43.54736" lon="7.05064">
        <ele>11.670000076294</ele>
        <time>2010-11-14T10:03:36Z</time>
      </trkpt>
      <trkpt lat="43.54737" lon="7.05009">
        <ele>11.670000076294</ele>
        <time>2010-11-14T10:03:49Z</time>
      </trkpt>
      <trkpt lat="43.54739" lon="7.04955">
        <ele>11.670000076294</ele>
        <time>2010-11-14T10:04:02Z</time>
      </trkpt>
      <trkpt lat="43.54742" lon="7.04921">
        <ele>12.14999961853</ele>
        <time>2010-11-14T10:04:11Z</time>
      </trkpt>
      <trkpt lat="43.54744" lon="7.04878">
        <ele>13.119999885559</ele>
        <time>2010-11-14T10:04:22Z</time>
      </trkpt>
      <trkpt lat="43.5474" lon="7.0484">
        <ele>12.14999961853</ele>
        <time>2010-11-14T10:04:32Z</time>
      </trkpt>
      <trkpt lat="43.54739" lon="7.04771">
        <ele>11.670000076294</ele>
        <time>2010-11-14T10:04:47Z</time>
      </trkpt>
      <trkpt lat="43.54736" lon="7.04709">
        <ele>12.14999961853</ele>
        <time>2010-11-14T10:05:02Z</time>
      </trkpt>
      <trkpt lat="43.54729" lon="7.04666">
        <ele>13.119999885559</ele>
        <time>2010-11-14T10:05:13Z</time>
      </trkpt>
      <trkpt lat="43.54711" lon="7.04645">
        <ele>11.189999580383</ele>
        <time>2010-11-14T10:05:23Z</time>
      </trkpt>
      <trkpt lat="43.5469" lon="7.04634">
        <ele>9.75</ele>
        <time>2010-11-14T10:05:34Z</time>
      </trkpt>
      <trkpt lat="43.54661" lon="7.04626">
        <ele>6.3899998664856</ele>
        <time>2010-11-14T10:05:43Z</time>
      </trkpt>
      <trkpt lat="43.54652" lon="7.04625">
        <ele>6.8699998855591</ele>
        <time>2010-11-14T10:05:46Z</time>
      </trkpt>
      <trkpt lat="43.54632" lon="7.04635">
        <ele>5.9099998474121</ele>
        <time>2010-11-14T10:05:54Z</time>
      </trkpt>
      <trkpt lat="43.54601" lon="7.04669">
        <ele>3.5</ele>
        <time>2010-11-14T10:06:06Z</time>
      </trkpt>
      <trkpt lat="43.54571" lon="7.04673">
        <ele>2.539999961853</ele>
        <time>2010-11-14T10:06:15Z</time>
      </trkpt>
      <trkpt lat="43.54531" lon="7.04636">
        <ele>2.539999961853</ele>
        <time>2010-11-14T10:06:30Z</time>
      </trkpt>
      <trkpt lat="43.54504" lon="7.04598">
        <ele>2.539999961853</ele>
        <time>2010-11-14T10:06:42Z</time>
      </trkpt>
      <trkpt lat="43.54473" lon="7.04552">
        <ele>2.539999961853</ele>
        <time>2010-11-14T10:06:57Z</time>
      </trkpt>
      <trkpt lat="43.54451" lon="7.0451">
        <ele>2.539999961853</ele>
        <time>2010-11-14T10:07:10Z</time>
      </trkpt>
      <trkpt lat="43.5443" lon="7.04468">
        <ele>3.0199999809265</ele>
        <time>2010-11-14T10:07:23Z</time>
      </trkpt>
      <trkpt lat="43.544" lon="7.04405">
        <ele>3.9800000190735</ele>
        <time>2010-11-14T10:07:41Z</time>
      </trkpt>
      <trkpt lat="43.54376" lon="7.04355">
        <ele>3.0199999809265</ele>
        <time>2010-11-14T10:07:55Z</time>
      </trkpt>
      <trkpt lat="43.54363" lon="7.0429">
        <ele>2.539999961853</ele>
        <time>2010-11-14T10:08:11Z</time>
      </trkpt>
      <trkpt lat="43.54346" lon="7.04226">
        <ele>1.5800000429153</ele>
        <time>2010-11-14T10:08:27Z</time>
      </trkpt>
      <trkpt lat="43.54321" lon="7.04172">
        <ele>1.5800000429153</ele>
        <time>2010-11-14T10:08:42Z</time>
      </trkpt>
      <trkpt lat="43.54292" lon="7.04121">
        <ele>1.5800000429153</ele>
        <time>2010-11-14T10:08:58Z</time>
      </trkpt>
      <trkpt lat="43.54265" lon="7.04086">
        <ele>0.62000000476837</ele>
        <time>2010-11-14T10:09:10Z</time>
      </trkpt>
      <trkpt lat="43.54222" lon="7.04046">
        <ele>1.1000000238419</ele>
        <time>2010-11-14T10:09:27Z</time>
      </trkpt>
      <trkpt lat="43.54185" lon="7.04016">
        <ele>1.5800000429153</ele>
        <time>2010-11-14T10:09:41Z</time>
      </trkpt>
      <trkpt lat="43.5414" lon="7.03987">
        <ele>1.5800000429153</ele>
        <time>2010-11-14T10:09:57Z</time>
      </trkpt>
      <trkpt lat="43.54102" lon="7.03962">
        <ele>1.5800000429153</ele>
        <time>2010-11-14T10:10:11Z</time>
      </trkpt>
      <trkpt lat="43.54046" lon="7.03936">
        <ele>0.62000000476837</ele>
        <time>2010-11-14T10:10:30Z</time>
      </trkpt>
      <trkpt lat="43.53992" lon="7.03922">
        <ele>0.62000000476837</ele>
        <time>2010-11-14T10:10:47Z</time>
      </trkpt>
      <trkpt lat="43.53947" lon="7.03922">
        <ele>1.1000000238419</ele>
        <time>2010-11-14T10:11:02Z</time>
      </trkpt>
      <trkpt lat="43.539" lon="7.03909">
        <ele>1.5800000429153</ele>
        <time>2010-11-14T10:11:18Z</time>
      </trkpt>
      <trkpt lat="43.5386" lon="7.03878">
        <ele>0.14000000059605</ele>
        <time>2010-11-14T10:11:33Z</time>
      </trkpt>
      <trkpt lat="43.53813" lon="7.03846">
        <ele>0.14000000059605</ele>
        <time>2010-11-14T10:11:50Z</time>
      </trkpt>
      <trkpt lat="43.53764" lon="7.03833">
        <ele>1.1000000238419</ele>
        <time>2010-11-14T10:12:07Z</time>
      </trkpt>
      <trkpt lat="43.53717" lon="7.03822">
        <ele>1.1000000238419</ele>
        <time>2010-11-14T10:12:22Z</time>
      </trkpt>
      <trkpt lat="43.53667" lon="7.03814">
        <ele>1.1000000238419</ele>
        <time>2010-11-14T10:12:38Z</time>
      </trkpt>
      <trkpt lat="43.53661" lon="7.03804">
        <ele>2.0599999427795</ele>
        <time>2010-11-14T10:12:42Z</time>
      </trkpt>
      <trkpt lat="43.53669" lon="7.03727">
        <ele>1.1000000238419</ele>
        <time>2010-11-14T10:13:00Z</time>
      </trkpt>
      <trkpt lat="43.53677" lon="7.03672">
        <ele>1.5800000429153</ele>
        <time>2010-11-14T10:13:13Z</time>
      </trkpt>
      <trkpt lat="43.5368" lon="7.03667">
        <ele>1.1000000238419</ele>
        <time>2010-11-14T10:13:14Z</time>
      </trkpt>
      <trkpt lat="43.5372" lon="7.03672">
        <ele>1.1000000238419</ele>
        <time>2010-11-14T10:13:27Z</time>
      </trkpt>
      <trkpt lat="43.53757" lon="7.03678">
        <ele>1.1000000238419</ele>
        <time>2010-11-14T10:13:39Z</time>
      </trkpt>
      <trkpt lat="43.53799" lon="7.03669">
        <ele>2.0599999427795</ele>
        <time>2010-11-14T10:13:52Z</time>
      </trkpt>
      <trkpt lat="43.53835" lon="7.03649">
        <ele>2.0599999427795</ele>
        <time>2010-11-14T10:14:05Z</time>
      </trkpt>
      <trkpt lat="43.53867" lon="7.03626">
        <ele>2.0599999427795</ele>
        <time>2010-11-14T10:14:17Z</time>
      </trkpt>
      <trkpt lat="43.53898" lon="7.03604">
        <ele>2.539999961853</ele>
        <time>2010-11-14T10:14:28Z</time>
      </trkpt>
      <trkpt lat="43.53933" lon="7.03573">
        <ele>2.0599999427795</ele>
        <time>2010-11-14T10:14:41Z</time>
      </trkpt>
      <trkpt lat="43.53963" lon="7.03539">
        <ele>3.0199999809265</ele>
        <time>2010-11-14T10:14:55Z</time>
      </trkpt>
      <trkpt lat="43.54" lon="7.03506">
        <ele>2.539999961853</ele>
        <time>2010-11-14T10:15:08Z</time>
      </trkpt>
      <trkpt lat="43.54041" lon="7.03492">
        <ele>3.0199999809265</ele>
        <time>2010-11-14T10:15:21Z</time>
      </trkpt>
      <trkpt lat="43.54092" lon="7.03486">
        <ele>3.0199999809265</ele>
        <time>2010-11-14T10:15:37Z</time>
      </trkpt>
      <trkpt lat="43.54135" lon="7.03475">
        <ele>3.0199999809265</ele>
        <time>2010-11-14T10:15:52Z</time>
      </trkpt>
      <trkpt lat="43.54177" lon="7.03454">
        <ele>3.5</ele>
        <time>2010-11-14T10:16:06Z</time>
      </trkpt>
      <trkpt lat="43.54205" lon="7.03456">
        <ele>3.0199999809265</ele>
        <time>2010-11-14T10:16:16Z</time>
      </trkpt>
      <trkpt lat="43.54243" lon="7.0346">
        <ele>3.0199999809265</ele>
        <time>2010-11-14T10:16:28Z</time>
      </trkpt>
      <trkpt lat="43.54286" lon="7.03479">
        <ele>3.5</ele>
        <time>2010-11-14T10:16:41Z</time>
      </trkpt>
      <trkpt lat="43.54319" lon="7.03498">
        <ele>3.0199999809265</ele>
        <time>2010-11-14T10:16:52Z</time>
      </trkpt>
      <trkpt lat="43.54358" lon="7.03515">
        <ele>3.5</ele>
        <time>2010-11-14T10:17:06Z</time>
      </trkpt>
      <trkpt lat="43.54403" lon="7.03516">
        <ele>4.460000038147</ele>
        <time>2010-11-14T10:17:20Z</time>
      </trkpt>
      <trkpt lat="43.54441" lon="7.03503">
        <ele>3.9800000190735</ele>
        <time>2010-11-14T10:17:32Z</time>
      </trkpt>
      <trkpt lat="43.54479" lon="7.03489">
        <ele>4.9400000572205</ele>
        <time>2010-11-14T10:17:45Z</time>
      </trkpt>
      <trkpt lat="43.54511" lon="7.0347">
        <ele>4.460000038147</ele>
        <time>2010-11-14T10:17:56Z</time>
      </trkpt>
      <trkpt lat="43.54538" lon="7.03437">
        <ele>3.9800000190735</ele>
        <time>2010-11-14T10:18:08Z</time>
      </trkpt>
      <trkpt lat="43.54565" lon="7.03395">
        <ele>3.9800000190735</ele>
        <time>2010-11-14T10:18:21Z</time>
      </trkpt>
      <trkpt lat="43.54593" lon="7.03344">
        <ele>3.9800000190735</ele>
        <time>2010-11-14T10:18:36Z</time>
      </trkpt>
      <trkpt lat="43.5462" lon="7.03306">
        <ele>3.9800000190735</ele>
        <time>2010-11-14T10:18:48Z</time>
      </trkpt>
      <trkpt lat="43.54647" lon="7.03255">
        <ele>4.460000038147</ele>
        <time>2010-11-14T10:19:03Z</time>
      </trkpt>
      <trkpt lat="43.54666" lon="7.03213">
        <ele>3.9800000190735</ele>
        <time>2010-11-14T10:19:15Z</time>
      </trkpt>
      <trkpt lat="43.54689" lon="7.03177">
        <ele>3.5</ele>
        <time>2010-11-14T10:19:26Z</time>
      </trkpt>
      <trkpt lat="43.54714" lon="7.03129">
        <ele>4.460000038147</ele>
        <time>2010-11-14T10:19:40Z</time>
      </trkpt>
      <trkpt lat="43.54733" lon="7.03086">
        <ele>3.9800000190735</ele>
        <time>2010-11-14T10:19:53Z</time>
      </trkpt>
      <trkpt lat="43.54759" lon="7.03035">
        <ele>4.460000038147</ele>
        <time>2010-11-14T10:20:07Z</time>
      </trkpt>
      <trkpt lat="43.54786" lon="7.02991">
        <ele>4.460000038147</ele>
        <time>2010-11-14T10:20:21Z</time>
      </trkpt>
      <trkpt lat="43.54805" lon="7.02953">
        <ele>3.9800000190735</ele>
        <time>2010-11-14T10:20:32Z</time>
      </trkpt>
      <trkpt lat="43.54828" lon="7.02906">
        <ele>3.5</ele>
        <time>2010-11-14T10:20:46Z</time>
      </trkpt>
      <trkpt lat="43.54845" lon="7.02872">
        <ele>4.460000038147</ele>
        <time>2010-11-14T10:20:56Z</time>
      </trkpt>
      <trkpt lat="43.5486" lon="7.02835">
        <ele>3.9800000190735</ele>
        <time>2010-11-14T10:21:07Z</time>
      </trkpt>
      <trkpt lat="43.54879" lon="7.02791">
        <ele>3.9800000190735</ele>
        <time>2010-11-14T10:21:19Z</time>
      </trkpt>
      <trkpt lat="43.549" lon="7.0273">
        <ele>4.460000038147</ele>
        <time>2010-11-14T10:21:32Z</time>
      </trkpt>
      <trkpt lat="43.54924" lon="7.02675">
        <ele>4.9400000572205</ele>
        <time>2010-11-14T10:21:44Z</time>
      </trkpt>
      <trkpt lat="43.5495" lon="7.026">
        <ele>4.460000038147</ele>
        <time>2010-11-14T10:21:59Z</time>
      </trkpt>
      <trkpt lat="43.5496" lon="7.02564">
        <ele>3.9800000190735</ele>
        <time>2010-11-14T10:22:05Z</time>
      </trkpt>
      <trkpt lat="43.54969" lon="7.02531">
        <ele>3.5</ele>
        <time>2010-11-14T10:22:11Z</time>
      </trkpt>
    </trkseg>
  </trk>
</gpx>